[[{"header":{"parameterUnit":"m.s-1","parameterCategory":1,"la1":31.0,"la2":29.5877,"lo1":-88.7671,"lo2":-86.6584,"dy":0.0162,"dx":0.0185,"nx":115,"ny":88,"refTime":"2024-02-12T18:00:00:Z","depth":0,"parameterNumber":2,"parameterNumberName":"U-component_of_WINDS"},"data":[0.0,0.0,0.0,0.0,0.0,0.0,0.0,0.0,0.0,0.0,0.0,0.0,0.0,0.0,0.0,0.0,0.0,0.0,0.0,0.0,0.0,0.0,0.0,0.0,0.0,0.0,0.0,0.0,0.0,0.0,0.0,0.0,0.0,0.0,0.0,0.0,0.0,0.0,0.0,0.0,0.0,0.0,0.0,0.0,0.0,0.0,0.0,0.0,0.0,0.0,0.0,0.0,0.0,0.0,0.0,0.0,0.0,0.0,0.0,0.0,0.0,0.0,0.0,0.0,0.0,0.0,0.0,0.0,0.0,0.0,0.0,0.0,0.0,0.0,0.0,0.0,0.0,0.0,0.0,0.0,0.0,0.0,0.0,0.0,0.0,0.0,0.0,0.0,0.0,0.0,0.0,0.0,0.0,0.0,0.0,0.0,0.0,0.0,0.0,0.0,0.0,0.0,0.0,0.0,0.0,0.0,0.0,0.0,0.0,0.0,0.0,0.0,0.0,0.0,0.0,0.0,0.0,0.0,0.0,0.0,0.0,0.0,0.0,0.0,0.0,0.0,0.0,0.0,0.0,0.0,0.0,0.0,0.0,0.0,0.0,0.0,0.0,0.0,0.0,0.0,0.0,0.0,0.0,0.0,0.0,0.0,0.0,0.0,0.0,0.0,0.0,0.0,0.0,0.0,0.0,0.0,0.0,0.0,0.0,0.0,0.0,0.0,0.0,0.0,0.0,0.0,0.0,0.0,0.0,0.0,0.0,0.0,0.0,0.0,0.0,0.0,0.0,0.0,0.0,0.0,0.0,0.0,0.0,0.0,0.0,0.0,0.0,0.0,0.0,0.0,0.0,0.0,0.0,0.0,0.0,0.0,0.0,0.0,0.0,0.0,0.0,0.0,0.0,0.0,0.0,0.0,0.0,0.0,0.0,0.0,0.0,0.0,0.0,0.0,0.0,0.0,0.0,0.0,0.0,0.0,0.0,0.0,0.0,0.0,0.0,0.0,0.0,0.0,0.0,0.0,0.0,0.0,0.0,0.0,0.0,0.0,0.0,0.0,0.0,0.0,0.0,0.0,0.0,0.0,0.0,0.0,0.0,0.0,0.0,0.0,0.0,0.0,0.0,0.0,0.0,0.0,0.0,0.0,0.0,0.0,0.0,0.0,0.0,0.0,0.0,0.0,0.0,0.0,0.0,0.0,0.0,0.0,0.0,0.0,0.0,0.0,0.0,0.0,0.0,0.0,0.0,0.0,0.0,0.0,0.0,0.0,0.0,0.0,0.0,0.0,0.0,0.0,0.0,0.0,0.0,0.0,0.0,0.0,0.0,0.0,0.0,0.0,0.0,0.0,0.0,0.0,0.0,0.0,0.0,0.0,0.0,0.0,0.0,0.0,0.0,0.0,0.0,0.0,0.0,0.0,0.0,0.0,0.0,0.0,0.0,0.0,0.0,0.0,0.0,0.0,0.0,0.0,0.0,0.0,0.0,0.0,0.0,0.0,0.0,0.0,0.0,0.0,0.0,0.0,0.0,0.0,0.0,0.0,0.0,0.0,0.0,0.0,0.0,0.0,0.0,0.0,0.0,0.0,0.0,0.0,0.0,0.0,0.0,0.0,0.0,0.0,0.0,0.0,0.0,0.0,0.0,0.0,0.0,0.0,0.0,0.0,0.0,0.0,0.0,0.0,0.0,0.0,0.0,0.0,0.0,0.0,0.0,0.0,0.0,0.0,0.0,0.0,0.0,0.0,0.0,0.0,0.0,0.0,0.0,0.0,0.0,0.0,0.0,0.0,0.0,0.0,0.0,0.0,0.0,0.0,0.0,0.0,0.0,0.0,0.0,0.0,0.0,0.0,0.0,0.0,0.0,0.0,0.0,0.0,0.0,0.0,0.0,0.0,0.0,0.0,0.0,0.0,0.0,0.0,0.0,0.0,0.0,0.0,0.0,0.0,0.0,0.0,0.0,0.0,0.0,0.0,0.0,0.0,0.0,0.0,0.0,0.0,0.0,0.0,0.0,0.0,0.0,0.0,0.0,0.0,0.0,0.0,0.0,0.0,0.0,0.0,0.0,0.0,0.0,0.0,0.0,0.0,0.0,0.0,0.0,0.0,0.0,0.0,0.0,0.0,0.0,0.0,0.0,0.0,0.0,0.0,0.0,0.0,0.0,0.0,0.0,0.0,0.0,0.0,0.0,0.0,0.0,0.0,0.0,0.0,0.0,0.0,0.0,0.0,0.0,0.0,0.0,0.0,0.0,0.0,0.0,0.0,0.0,0.0,0.0,0.0,0.0,0.0,0.0,0.0,0.0,0.0,0.0,0.0,0.0,0.0,0.0,0.0,0.0,0.0,0.0,0.0,0.0,0.0,0.0,0.0,0.0,0.0,0.0,0.0,0.0,0.0,0.0,0.0,0.0,0.0,0.0,0.0,0.0,0.0,0.0,0.0,0.0,0.0,0.0,0.0,0.0,0.0,0.0,0.0,0.0,0.0,0.0,0.0,0.0,0.0,0.0,0.0,0.0,0.0,0.0,0.0,0.0,0.0,0.0,0.0,0.0,0.0,0.0,0.0,0.0,0.0,0.0,0.0,0.0,0.0,0.0,0.0,0.0,0.0,0.0,0.0,0.0,0.0,0.0,0.0,0.0,0.0,0.0,0.0,0.0,0.0,0.0,0.0,0.0,0.0,0.0,0.0,0.0,0.0,0.0,0.0,0.0,0.0,0.0,0.0,0.0,0.0,0.0,0.0,0.0,0.0,0.0,0.0,0.0,0.0,0.0,0.0,0.0,0.0,0.0,0.0,0.0,0.0,0.0,0.0,0.0,0.0,0.0,0.0,0.0,0.0,0.0,0.0,0.0,0.0,0.0,0.0,0.0,0.0,0.0,0.0,0.0,0.0,0.0,0.0,0.0,0.0,0.0,0.0,0.0,0.0,0.0,0.0,0.0,0.0,0.0,0.0,0.0,0.0,0.0,0.0,0.0,0.0,0.0,0.0,0.0,0.0,0.0,0.0,0.0,0.0,0.0,0.0,0.0,0.0,0.0,0.0,0.0,0.0,0.0,0.0,0.0,0.0,0.0,0.0,0.0,0.0,0.0,0.0,0.0,0.0,0.0,0.0,0.0,0.0,0.0,0.0,0.0,0.0,0.0,0.0,0.0,0.0,0.0,0.0,0.0,0.0,0.0,0.0,0.0,0.0,0.0,0.0,0.0,0.0,0.0,0.0,0.0,0.0,0.0,0.0,0.0,0.0,0.0,0.0,0.0,0.0,0.0,0.0,0.0,0.0,0.0,0.0,0.0,0.0,0.0,0.0,0.0,0.0,0.0,0.0,0.0,0.0,0.0,0.0,0.0,0.0,0.0,0.0,0.0,0.0,0.0,0.0,0.0,0.0,0.0,0.0,0.0,0.0,0.0,0.0,0.0,0.0,0.0,0.0,0.0,0.0,0.0,0.0,0.0,0.0,0.0,0.0,0.0,0.0,0.0,0.0,0.0,0.0,0.0,0.0,0.0,0.0,0.0,0.0,0.0,0.0,0.0,0.0,0.0,0.0,0.0,0.0,0.0,0.0,0.0,0.0,0.0,0.0,0.0,0.0,0.0,0.0,0.0,0.0,0.0,0.0,0.0,0.0,0.0,0.0,0.0,0.0,0.0,0.0,0.0,0.0,0.0,0.0,0.0,0.0,0.0,0.0,0.0,0.0,0.0,0.0,0.0,0.0,0.0,0.0,0.0,0.0,0.0,0.0,0.0,0.0,0.0,0.0,0.0,0.0,0.0,0.0,0.0,0.0,0.0,0.0,0.0,0.0,0.0,0.0,0.0,0.0,0.0,0.0,0.0,0.0,0.0,0.0,0.0,0.0,0.0,0.0,0.0,0.0,0.0,0.0,0.0,0.0,0.0,0.0,0.0,0.0,0.0,0.0,0.0,0.0,0.0,0.0,0.0,0.0,0.0,0.0,0.0,0.0,0.0,0.0,0.0,0.0,0.0,0.0,0.0,0.0,0.0,0.0,0.0,0.0,0.0,0.0,0.0,0.0,0.0,0.0,0.0,0.0,0.0,0.0,0.0,0.0,0.0,0.0,0.0,0.0,0.0,0.0,0.0,0.0,0.0,0.0,0.0,0.0,0.0,0.0,0.0,0.0,0.0,0.0,0.0,0.0,0.0,0.0,0.0,0.0,0.0,0.0,0.0,0.0,0.0,0.0,0.0,0.0,0.0,0.0,0.0,0.0,0.0,0.0,0.0,0.0,0.0,0.0,0.0,0.0,0.0,0.0,6.0836,0.0,0.0,0.0,0.0,0.0,0.0,0.0,0.0,0.0,0.0,0.0,0.0,0.0,0.0,0.0,0.0,0.0,0.0,0.0,0.0,0.0,0.0,0.0,0.0,0.0,0.0,0.0,0.0,0.0,0.0,0.0,0.0,0.0,0.0,0.0,0.0,0.0,0.0,0.0,0.0,0.0,0.0,0.0,0.0,0.0,0.0,0.0,0.0,0.0,0.0,0.0,0.0,0.0,0.0,0.0,0.0,0.0,0.0,0.0,0.0,0.0,0.0,0.0,0.0,0.0,0.0,0.0,0.0,0.0,0.0,0.0,0.0,0.0,0.0,0.0,0.0,0.0,0.0,0.0,0.0,0.0,0.0,0.0,0.0,0.0,0.0,0.0,0.0,0.0,0.0,0.0,0.0,0.0,0.0,0.0,0.0,0.0,0.0,0.0,0.0,0.0,0.0,0.0,0.0,0.0,0.0,0.0,0.0,0.0,0.0,6.0399,6.0784,6.0813,6.0813,6.079,0.0,0.0,0.0,0.0,0.0,0.0,0.0,0.0,0.0,0.0,0.0,0.0,0.0,0.0,0.0,0.0,0.0,0.0,0.0,0.0,0.0,0.0,0.0,0.0,0.0,0.0,0.0,0.0,0.0,0.0,0.0,0.0,0.0,0.0,0.0,0.0,0.0,0.0,0.0,0.0,0.0,0.0,0.0,0.0,0.0,0.0,0.0,0.0,0.0,0.0,0.0,0.0,0.0,0.0,0.0,0.0,0.0,0.0,0.0,0.0,0.0,0.0,0.0,0.0,0.0,0.0,0.0,0.0,0.0,0.0,0.0,0.0,0.0,0.0,0.0,0.0,0.0,0.0,0.0,0.0,0.0,0.0,0.0,0.0,0.0,0.0,0.0,0.0,0.0,0.0,0.0,0.0,0.0,0.0,0.0,0.0,0.0,0.0,0.0,0.0,0.0,0.0,0.0,0.0,0.0,0.0,0.0,0.0,0.0,0.0,0.0,0.0,6.0781,6.0781,6.079,0.0,0.0,0.0,0.0,0.0,0.0,0.0,0.0,0.0,0.0,0.0,0.0,0.0,0.0,0.0,0.0,0.0,0.0,0.0,0.0,0.0,0.0,0.0,0.0,0.0,0.0,0.0,0.0,0.0,0.0,0.0,0.0,0.0,0.0,0.0,0.0,0.0,0.0,0.0,0.0,0.0,0.0,0.0,0.0,0.0,0.0,0.0,0.0,0.0,0.0,0.0,0.0,0.0,0.0,0.0,0.0,0.0,0.0,0.0,0.0,0.0,0.0,0.0,0.0,0.0,0.0,0.0,0.0,0.0,0.0,0.0,0.0,0.0,0.0,0.0,0.0,0.0,0.0,0.0,0.0,0.0,0.0,0.0,0.0,0.0,0.0,0.0,0.0,0.0,0.0,0.0,0.0,0.0,0.0,0.0,0.0,0.0,0.0,0.0,0.0,0.0,0.0,0.0,0.0,0.0,0.0,0.0,0.0,0.0,0.0,6.0781,6.0781,6.0781,0.0,6.0745,0.0,0.0,0.0,0.0,0.0,0.0,0.0,0.0,0.0,0.0,0.0,0.0,0.0,0.0,0.0,0.0,0.0,0.0,0.0,0.0,0.0,0.0,0.0,0.0,0.0,0.0,0.0,0.0,0.0,0.0,0.0,0.0,0.0,0.0,0.0,0.0,0.0,0.0,0.0,0.0,0.0,0.0,0.0,0.0,0.0,0.0,0.0,0.0,0.0,0.0,0.0,0.0,0.0,0.0,0.0,0.0,0.0,0.0,0.0,0.0,0.0,0.0,0.0,0.0,0.0,0.0,0.0,0.0,0.0,0.0,0.0,0.0,0.0,0.0,0.0,0.0,0.0,0.0,0.0,0.0,0.0,0.0,0.0,0.0,0.0,0.0,0.0,0.0,0.0,0.0,0.0,0.0,0.0,0.0,0.0,0.0,0.0,0.0,0.0,0.0,0.0,0.0,0.0,0.0,0.0,0.0,0.0,0.0,0.0,0.0,6.0781,6.0781,6.0781,6.0781,0.0,0.0,0.0,0.0,0.0,0.0,0.0,0.0,0.0,0.0,0.0,0.0,0.0,0.0,0.0,0.0,0.0,0.0,0.0,0.0,0.0,0.0,0.0,0.0,0.0,0.0,0.0,0.0,0.0,0.0,0.0,0.0,0.0,0.0,0.0,0.0,0.0,0.0,0.0,0.0,0.0,0.0,0.0,0.0,0.0,0.0,0.0,0.0,0.0,0.0,0.0,0.0,0.0,0.0,0.0,0.0,0.0,0.0,0.0,0.0,0.0,0.0,0.0,0.0,0.0,0.0,0.0,0.0,0.0,0.0,0.0,0.0,0.0,0.0,0.0,0.0,0.0,0.0,0.0,0.0,0.0,0.0,0.0,0.0,0.0,0.0,0.0,0.0,0.0,0.0,0.0,0.0,0.0,0.0,0.0,0.0,0.0,0.0,0.0,0.0,0.0,0.0,0.0,0.0,0.0,0.0,0.0,0.0,0.0,0.0,6.1053,6.1169,6.1133,6.0941,6.0781,6.0781,0.0,0.0,0.0,0.0,0.0,0.0,0.0,0.0,0.0,0.0,0.0,0.0,0.0,0.0,0.0,0.0,0.0,0.0,0.0,0.0,0.0,0.0,0.0,0.0,0.0,0.0,0.0,0.0,0.0,0.0,0.0,0.0,0.0,0.0,0.0,0.0,0.0,0.0,0.0,0.0,0.0,0.0,0.0,0.0,0.0,0.0,0.0,0.0,0.0,0.0,0.0,0.0,0.0,0.0,0.0,0.0,0.0,0.0,0.0,0.0,0.0,0.0,0.0,0.0,0.0,0.0,0.0,0.0,0.0,0.0,0.0,0.0,0.0,0.0,0.0,0.0,0.0,0.0,0.0,0.0,0.0,0.0,0.0,0.0,0.0,0.0,0.0,0.0,0.0,0.0,0.0,0.0,0.0,0.0,0.0,0.0,0.0,0.0,0.0,0.0,0.0,0.0,0.0,0.0,0.0,0.0,0.0,0.0,6.0861,6.1633,6.2021,6.2018,6.1246,6.0784,0.0,0.0,0.0,0.0,0.0,0.0,0.0,0.0,0.0,0.0,0.0,0.0,0.0,0.0,0.0,0.0,0.0,0.0,0.0,0.0,0.0,0.0,0.0,0.0,0.0,0.0,0.0,0.0,0.0,0.0,0.0,0.0,0.0,0.0,0.0,0.0,0.0,0.0,0.0,0.0,0.0,0.0,0.0,0.0,0.0,0.0,0.0,0.0,0.0,0.0,0.0,0.0,0.0,0.0,0.0,0.0,0.0,0.0,0.0,0.0,0.0,0.0,0.0,0.0,0.0,0.0,0.0,0.0,0.0,0.0,0.0,0.0,0.0,0.0,0.0,0.0,0.0,0.0,0.0,0.0,0.0,0.0,0.0,0.0,0.0,0.0,0.0,0.0,0.0,0.0,0.0,0.0,0.0,0.0,0.0,0.0,0.0,0.0,0.0,0.0,0.0,0.0,0.0,0.0,0.0,0.0,0.0,0.0,0.0,6.2394,6.2701,6.2858,6.2855,6.2053,6.1633,0.0,0.0,0.0,0.0,0.0,0.0,0.0,0.0,0.0,0.0,0.0,0.0,0.0,0.0,0.0,0.0,0.0,0.0,0.0,0.0,0.0,0.0,0.0,0.0,0.0,0.0,0.0,0.0,0.0,0.0,0.0,0.0,0.0,0.0,0.0,0.0,0.0,0.0,0.0,0.0,0.0,0.0,0.0,0.0,0.0,0.0,0.0,0.0,0.0,0.0,0.0,0.0,0.0,0.0,0.0,0.0,0.0,0.0,0.0,0.0,0.0,0.0,0.0,0.0,0.0,0.0,0.0,0.0,0.0,0.0,0.0,0.0,0.0,0.0,0.0,0.0,0.0,0.0,0.0,0.0,0.0,0.0,0.0,0.0,0.0,0.0,0.0,0.0,0.0,0.0,0.0,0.0,0.0,0.0,0.0,0.0,0.0,0.0,0.0,0.0,0.0,0.0,0.0,0.0,0.0,0.0,0.0,0.0,0.0,6.366,0.0,6.3426,6.3663,6.2935,6.248,0.0,0.0,0.0,0.0,0.0,0.0,0.0,0.0,0.0,0.0,0.0,0.0,0.0,0.0,0.0,0.0,0.0,0.0,0.0,0.0,0.0,0.0,0.0,0.0,0.0,0.0,0.0,0.0,0.0,0.0,0.0,0.0,0.0,0.0,0.0,0.0,0.0,0.0,0.0,0.0,0.0,0.0,0.0,0.0,0.0,0.0,0.0,0.0,0.0,0.0,0.0,0.0,0.0,0.0,0.0,0.0,0.0,0.0,0.0,0.0,0.0,0.0,0.0,0.0,0.0,0.0,0.0,0.0,0.0,0.0,0.0,0.0,0.0,0.0,0.0,0.0,0.0,0.0,0.0,0.0,0.0,0.0,0.0,0.0,0.0,0.0,0.0,0.0,0.0,0.0,0.0,0.0,0.0,0.0,0.0,0.0,0.0,0.0,0.0,0.0,0.0,0.0,0.0,0.0,0.0,0.0,0.0,0.0,6.3778,6.4548,6.3855,6.3932,6.4551,6.3817,6.3314,0.0,0.0,0.0,0.0,0.0,0.0,0.0,0.0,0.0,0.0,0.0,0.0,0.0,0.0,0.0,0.0,0.0,0.0,0.0,0.0,0.0,0.0,0.0,0.0,0.0,0.0,0.0,0.0,0.0,0.0,0.0,0.0,0.0,0.0,0.0,0.0,0.0,0.0,0.0,0.0,0.0,0.0,0.0,0.0,0.0,0.0,0.0,0.0,0.0,0.0,0.0,0.0,0.0,0.0,0.0,0.0,0.0,0.0,0.0,0.0,0.0,0.0,0.0,0.0,0.0,0.0,0.0,0.0,0.0,0.0,0.0,0.0,0.0,0.0,0.0,0.0,0.0,0.0,0.0,0.0,0.0,0.0,0.0,0.0,0.0,0.0,0.0,0.0,0.0,0.0,0.0,0.0,0.0,0.0,0.0,0.0,0.0,0.0,0.0,0.0,0.0,0.0,0.0,0.0,0.0,0.0,0.0,0.0,0.0,6.6324,6.6625,6.6664,6.6324,6.5513,6.482,0.0,0.0,0.0,0.0,0.0,0.0,0.0,0.0,0.0,0.0,0.0,0.0,0.0,0.0,0.0,0.0,0.0,0.0,0.0,0.0,0.0,0.0,0.0,0.0,0.0,0.0,0.0,0.0,0.0,0.0,0.0,0.0,0.0,0.0,0.0,0.0,0.0,0.0,0.0,0.0,0.0,0.0,0.0,0.0,0.0,0.0,0.0,0.0,0.0,0.0,0.0,0.0,0.0,0.0,0.0,0.0,0.0,0.0,0.0,0.0,0.0,0.0,0.0,0.0,0.0,0.0,0.0,0.0,0.0,0.0,0.0,0.0,0.0,0.0,0.0,0.0,0.0,0.0,0.0,0.0,0.0,0.0,0.0,0.0,0.0,0.0,0.0,0.0,0.0,0.0,0.0,0.0,0.0,0.0,0.0,0.0,0.0,0.0,0.0,0.0,0.0,0.0,0.0,0.0,0.0,0.0,0.0,0.0,0.0,6.8517,6.8433,6.8318,6.8093,6.7244,6.6439,6.5554,0.0,0.0,0.0,0.0,0.0,0.0,0.0,0.0,0.0,0.0,0.0,0.0,0.0,0.0,0.0,0.0,0.0,0.0,0.0,0.0,0.0,0.0,0.0,0.0,0.0,0.0,0.0,0.0,0.0,0.0,0.0,0.0,0.0,0.0,0.0,0.0,0.0,0.0,0.0,0.0,0.0,0.0,0.0,0.0,0.0,0.0,0.0,0.0,0.0,0.0,0.0,0.0,0.0,0.0,0.0,0.0,0.0,0.0,0.0,0.0,0.0,0.0,0.0,0.0,0.0,0.0,0.0,0.0,0.0,0.0,0.0,0.0,0.0,0.0,0.0,0.0,0.0,0.0,0.0,0.0,0.0,0.0,0.0,0.0,0.0,0.0,0.0,0.0,0.0,0.0,0.0,0.0,0.0,0.0,0.0,0.0,0.0,0.0,0.0,0.0,0.0,0.0,0.0,0.0,0.0,0.0,0.0,0.0,7.1091,6.951,6.9084,6.9783,6.8933,6.8048,0.0,0.0,0.0,0.0,0.0,0.0,0.0,0.0,0.0,0.0,0.0,0.0,0.0,0.0,0.0,0.0,0.0,0.0,0.0,0.0,0.0,0.0,0.0,0.0,0.0,0.0,0.0,0.0,0.0,0.0,0.0,0.0,0.0,0.0,0.0,0.0,0.0,0.0,0.0,0.0,0.0,0.0,0.0,0.0,0.0,0.0,0.0,0.0,0.0,0.0,0.0,0.0,0.0,0.0,0.0,0.0,0.0,0.0,0.0,0.0,0.0,0.0,0.0,0.0,0.0,0.0,0.0,0.0,0.0,0.0,0.0,0.0,0.0,0.0,0.0,0.0,0.0,0.0,0.0,0.0,0.0,0.0,0.0,0.0,0.0,0.0,0.0,0.0,0.0,0.0,0.0,0.0,0.0,0.0,0.0,0.0,0.0,0.0,0.0,0.0,0.0,0.0,0.0,0.0,0.0,0.0,0.0,0.0,0.0,7.3588,7.2699,7.1972,7.1556,7.0129,6.8972,0.0,0.0,0.0,0.0,0.0,0.0,0.0,0.0,0.0,0.0,0.0,0.0,0.0,0.0,0.0,0.0,0.0,0.0,0.0,0.0,0.0,0.0,0.0,0.0,0.0,0.0,0.0,0.0,0.0,0.0,0.0,0.0,0.0,0.0,0.0,0.0,0.0,0.0,0.0,0.0,0.0,0.0,0.0,0.0,0.0,0.0,0.0,0.0,0.0,0.0,0.0,0.0,0.0,0.0,0.0,0.0,0.0,0.0,0.0,0.0,0.0,0.0,0.0,0.0,0.0,0.0,0.0,0.0,0.0,0.0,0.0,0.0,0.0,0.0,0.0,0.0,0.0,0.0,0.0,0.0,0.0,0.0,0.0,0.0,0.0,0.0,0.0,0.0,0.0,0.0,0.0,0.0,0.0,0.0,0.0,0.0,0.0,0.0,0.0,0.0,0.0,0.0,0.0,0.0,0.0,0.0,0.0,0.0,7.2703,7.4165,7.4084,7.3934,7.3787,7.1822,7.0321,0.0,0.0,0.0,0.0,0.0,0.0,0.0,0.0,0.0,0.0,0.0,0.0,0.0,0.0,0.0,0.0,0.0,0.0,0.0,0.0,0.0,0.0,0.0,0.0,0.0,0.0,0.0,0.0,0.0,0.0,0.0,0.0,0.0,0.0,0.0,0.0,0.0,0.0,0.0,0.0,0.0,0.0,0.0,0.0,0.0,0.0,0.0,0.0,0.0,0.0,0.0,0.0,0.0,0.0,0.0,0.0,0.0,0.0,0.0,0.0,0.0,0.0,0.0,0.0,0.0,0.0,0.0,0.0,0.0,0.0,0.0,0.0,0.0,0.0,0.0,0.0,0.0,0.0,0.0,0.0,0.0,0.0,0.0,0.0,0.0,0.0,0.0,0.0,0.0,0.0,0.0,0.0,0.0,0.0,0.0,0.0,0.0,0.0,0.0,0.0,0.0,0.0,0.0,0.0,0.0,0.0,0.0,0.0,7.3661,7.3776,7.4469,7.5203,7.5899,7.3633,7.194,0.0,0.0,0.0,0.0,0.0,0.0,0.0,0.0,0.0,0.0,0.0,0.0,0.0,0.0,0.0,0.0,0.0,0.0,0.0,0.0,0.0,0.0,0.0,0.0,0.0,0.0,0.0,0.0,0.0,0.0,0.0,0.0,0.0,0.0,0.0,0.0,0.0,0.0,0.0,0.0,0.0,0.0,0.0,0.0,0.0,0.0,0.0,0.0,0.0,0.0,0.0,0.0,0.0,0.0,0.0,0.0,0.0,0.0,0.0,0.0,0.0,0.0,0.0,0.0,0.0,0.0,0.0,0.0,0.0,0.0,0.0,0.0,0.0,0.0,0.0,0.0,0.0,0.0,0.0,0.0,0.0,0.0,0.0,0.0,0.0,0.0,0.0,0.0,0.0,0.0,0.0,0.0,0.0,0.0,0.0,0.0,0.0,0.0,0.0,0.0,0.0,0.0,0.0,0.0,0.0,0.0,0.0,0.0,7.478,7.5472,7.563,7.5822,7.5976,7.4203,7.2822,0.0,0.0,0.0,0.0,0.0,0.0,0.0,0.0,0.0,0.0,0.0,0.0,0.0,0.0,0.0,0.0,0.0,0.0,0.0,0.0,0.0,0.0,0.0,0.0,0.0,0.0,0.0,0.0,0.0,0.0,0.0,0.0,0.0,0.0,0.0,0.0,0.0,0.0,0.0,0.0,0.0,0.0,0.0,0.0,0.0,0.0,0.0,0.0,5.9396,0.0,0.0,0.0,0.0,0.0,0.0,0.0,0.0,0.0,0.0,0.0,0.0,0.0,0.0,0.0,0.0,0.0,0.0,0.0,0.0,0.0,0.0,0.0,0.0,0.0,0.0,0.0,0.0,0.0,0.0,0.0,0.0,0.0,0.0,0.0,0.0,0.0,0.0,0.0,0.0,0.0,0.0,0.0,0.0,0.0,0.0,0.0,0.0,0.0,0.0,0.0,0.0,0.0,0.0,0.0,0.0,0.0,0.0,0.0,7.493,7.5357,7.5784,7.5976,7.5976,7.513,7.4088,0.0,0.0,0.0,0.0,0.0,0.0,0.0,0.0,0.0,0.0,0.0,0.0,0.0,0.0,0.0,0.0,0.0,0.0,0.0,0.0,0.0,0.0,0.0,0.0,0.0,0.0,0.0,0.0,0.0,0.0,0.0,0.0,0.0,0.0,0.0,0.0,0.0,0.0,0.0,0.0,0.0,0.0,0.0,0.0,0.0,0.0,0.0,0.0,0.0,0.0,0.0,0.0,0.0,0.0,0.0,0.0,0.0,0.0,0.0,0.0,0.0,0.0,0.0,0.0,0.0,0.0,0.0,0.0,0.0,0.0,0.0,0.0,0.0,0.0,0.0,0.0,0.0,0.0,0.0,0.0,0.0,0.0,0.0,0.0,0.0,0.0,0.0,0.0,0.0,0.0,0.0,0.0,0.0,0.0,0.0,0.0,0.0,0.0,0.0,0.0,0.0,0.0,0.0,0.0,0.0,0.0,0.0,7.4322,7.5165,7.5319,7.5899,7.6245,7.6365,7.613,7.5319,7.393,0.0,0.0,0.0,0.0,0.0,0.0,0.0,0.0,0.0,0.0,0.0,0.0,0.0,0.0,0.0,0.0,0.0,0.0,0.0,0.0,0.0,0.0,0.0,0.0,0.0,0.0,0.0,0.0,0.0,0.0,0.0,0.0,0.0,0.0,0.0,0.0,0.0,0.0,5.9476,5.9015,0.0,0.0,0.0,0.0,0.0,0.0,0.0,0.0,6.0553,0.0,0.0,0.0,0.0,0.0,0.0,0.0,0.0,0.0,0.0,0.0,0.0,0.0,0.0,0.0,0.0,0.0,0.0,0.0,0.0,0.0,0.0,0.0,0.0,0.0,0.0,0.0,0.0,0.0,0.0,0.0,0.0,0.0,0.0,0.0,0.0,0.0,0.0,0.0,0.0,0.0,0.0,0.0,0.0,0.0,0.0,0.0,0.0,0.0,0.0,0.0,0.0,0.0,0.0,0.0,0.0,7.5361,7.6361,7.7211,7.783,7.7365,7.7403,7.8023,7.6746,7.5861,7.5515,0.0,0.0,0.0,0.0,0.0,0.0,0.0,0.0,0.0,0.0,0.0,0.0,0.0,0.0,0.0,0.0,0.0,0.0,0.0,0.0,0.0,0.0,0.0,0.0,0.0,0.0,0.0,0.0,0.0,0.0,0.0,0.0,0.0,0.0,0.0,0.0,0.0,0.0,0.0,6.0035,6.0961,0.0,0.0,0.0,0.0,0.0,0.0,0.0,0.0,6.1633,0.0,0.0,0.0,0.0,0.0,0.0,0.0,0.0,0.0,0.0,0.0,0.0,0.0,0.0,0.0,0.0,0.0,0.0,0.0,0.0,0.0,0.0,0.0,0.0,0.0,0.0,0.0,0.0,0.0,0.0,0.0,0.0,0.0,0.0,0.0,0.0,0.0,0.0,0.0,0.0,0.0,0.0,0.0,0.0,0.0,0.0,0.0,0.0,0.0,0.0,0.0,0.0,0.0,0.0,0.0,7.5938,7.6865,7.7676,7.8446,7.8099,7.8099,7.8484,7.7292,7.6476,0.0,0.0,0.0,0.0,0.0,0.0,0.0,0.0,0.0,0.0,0.0,0.0,0.0,0.0,0.0,0.0,0.0,0.0,0.0,0.0,0.0,0.0,0.0,0.0,0.0,0.0,0.0,0.0,0.0,0.0,0.0,0.0,0.0,0.0,0.0,0.0,0.0,0.0,0.0,0.0,6.1302,6.2713,6.4434,0.0,0.0,0.0,0.0,0.0,0.0,6.3551,6.2704,0.0,0.0,0.0,0.0,0.0,0.0,0.0,0.0,0.0,0.0,0.0,0.0,0.0,0.0,0.0,0.0,0.0,0.0,0.0,0.0,0.0,0.0,0.0,0.0,0.0,0.0,0.0,0.0,0.0,0.0,0.0,0.0,0.0,0.0,0.0,0.0,0.0,0.0,0.0,0.0,0.0,0.0,0.0,0.0,0.0,0.0,0.0,0.0,0.0,0.0,0.0,0.0,0.0,0.0,0.0,7.6476,7.7365,7.8211,7.8984,7.8865,7.8827,7.8981,7.7903,7.7057,0.0,0.0,0.0,0.0,0.0,0.0,0.0,0.0,0.0,0.0,0.0,0.0,0.0,0.0,0.0,0.0,0.0,0.0,0.0,0.0,0.0,0.0,0.0,0.0,0.0,0.0,0.0,0.0,0.0,0.0,0.0,0.0,0.0,0.0,0.0,0.0,0.0,0.0,0.0,0.0,0.0,6.4195,6.5878,6.5708,0.0,0.0,0.0,0.0,6.4772,6.4279,0.0,0.0,0.0,0.0,0.0,0.0,0.0,0.0,0.0,0.0,0.0,0.0,0.0,0.0,0.0,0.0,0.0,0.0,0.0,0.0,0.0,0.0,0.0,0.0,0.0,0.0,0.0,0.0,0.0,0.0,0.0,0.0,0.0,0.0,0.0,0.0,0.0,0.0,0.0,0.0,0.0,0.0,0.0,0.0,0.0,0.0,0.0,0.0,0.0,0.0,0.0,0.0,0.0,0.0,0.0,0.0,7.8138,7.9092,7.9939,8.0708,8.005,8.0015,8.0746,7.8519,7.7596,0.0,0.0,0.0,0.0,0.0,0.0,0.0,0.0,0.0,0.0,0.0,0.0,0.0,0.0,0.0,0.0,0.0,0.0,0.0,0.0,0.0,0.0,0.0,0.0,0.0,0.0,0.0,0.0,0.0,0.0,0.0,0.0,0.0,0.0,0.0,0.0,0.0,0.0,0.0,0.0,0.0,6.5061,6.6729,6.7547,6.7712,0.0,0.0,6.6455,6.5865,6.567,0.0,0.0,0.0,0.0,0.0,0.0,0.0,0.0,0.0,0.0,0.0,0.0,0.0,0.0,0.0,0.0,0.0,0.0,0.0,0.0,0.0,0.0,0.0,0.0,0.0,0.0,0.0,0.0,0.0,0.0,0.0,0.0,0.0,0.0,0.0,0.0,0.0,0.0,0.0,0.0,0.0,0.0,0.0,0.0,0.0,0.0,0.0,0.0,0.0,0.0,0.0,0.0,0.0,0.0,0.0,7.6442,7.8442,7.9361,8.0204,8.1054,8.0746,8.0708,8.1089,7.9058,7.7907,0.0,0.0,0.0,0.0,0.0,0.0,0.0,0.0,0.0,0.0,0.0,0.0,0.0,0.0,0.0,0.0,0.0,0.0,0.0,0.0,0.0,0.0,0.0,0.0,0.0,0.0,0.0,0.0,0.0,0.0,0.0,0.0,0.0,0.0,0.0,0.0,0.0,0.0,0.0,0.0,0.0,0.0,6.7619,6.8139,0.0,0.0,0.0,6.7526,6.6708,0.0,0.0,0.0,0.0,0.0,0.0,0.0,0.0,0.0,0.0,0.0,0.0,0.0,0.0,0.0,0.0,0.0,0.0,0.0,0.0,0.0,0.0,0.0,0.0,0.0,0.0,0.0,0.0,0.0,0.0,0.0,0.0,0.0,0.0,0.0,0.0,0.0,0.0,0.0,0.0,0.0,0.0,0.0,0.0,0.0,0.0,0.0,0.0,0.0,0.0,0.0,0.0,0.0,0.0,0.0,0.0,0.0,7.8484,7.9592,8.0435,8.1054,8.1089,8.1089,8.105,7.9408,0.0,0.0,0.0,0.0,0.0,0.0,0.0,0.0,0.0,0.0,0.0,0.0,0.0,0.0,0.0,0.0,0.0,0.0,0.0,0.0,0.0,0.0,0.0,0.0,0.0,0.0,0.0,6.0322,0.0,0.0,0.0,0.0,0.0,0.0,0.0,0.0,0.0,0.0,0.0,0.0,0.0,0.0,6.7125,6.8804,6.9416,6.9525,0.0,0.0,6.859,6.7285,6.7478,6.717,0.0,0.0,0.0,0.0,0.0,0.0,0.0,0.0,0.0,0.0,0.0,0.0,0.0,0.0,0.0,0.0,0.0,0.0,0.0,0.0,0.0,0.0,0.0,0.0,0.0,0.0,0.0,0.0,0.0,0.0,0.0,0.0,0.0,0.0,0.0,0.0,0.0,0.0,0.0,0.0,0.0,0.0,0.0,0.0,0.0,0.0,0.0,0.0,0.0,0.0,0.0,0.0,0.0,0.0,7.6823,7.8484,8.0135,8.1016,8.1089,8.1089,8.1089,8.1054,7.9404,7.8484,0.0,0.0,0.0,0.0,0.0,0.0,0.0,0.0,0.0,0.0,0.0,0.0,0.0,0.0,0.0,0.0,0.0,0.0,0.0,0.0,0.0,0.0,0.0,0.0,0.0,0.0,0.0,0.0,0.0,0.0,0.0,0.0,0.0,0.0,0.0,0.0,0.0,0.0,0.0,0.0,0.0,6.8812,7.052,7.2106,7.2574,0.0,7.0741,6.9898,6.7478,6.8478,6.8933,6.7209,0.0,0.0,0.0,0.0,0.0,0.0,0.0,0.0,0.0,0.0,0.0,0.0,0.0,0.0,0.0,0.0,0.0,0.0,0.0,0.0,0.0,0.0,0.0,0.0,0.0,0.0,0.0,0.0,0.0,0.0,0.0,0.0,0.0,0.0,0.0,0.0,0.0,0.0,0.0,0.0,0.0,0.0,0.0,0.0,0.0,0.0,0.0,0.0,0.0,0.0,0.0,0.0,0.0,7.7369,7.8523,8.0212,8.1089,8.1089,8.1089,8.1089,8.1089,7.9939,7.8827,0.0,0.0,0.0,0.0,0.0,0.0,0.0,0.0,0.0,0.0,0.0,0.0,0.0,0.0,0.0,0.0,0.0,0.0,0.0,0.0,0.0,0.0,0.0,0.0,0.0,0.0,0.0,0.0,6.0668,6.1015,6.0742,0.0,0.0,0.0,0.0,0.0,0.0,0.0,0.0,0.0,0.0,6.9625,7.0751,7.1946,0.0,0.0,7.1689,7.1185,6.9671,6.9125,6.8664,6.801,6.7407,0.0,0.0,0.0,0.0,0.0,0.0,0.0,0.0,0.0,0.0,0.0,0.0,0.0,0.0,0.0,0.0,0.0,0.0,0.0,0.0,0.0,0.0,0.0,0.0,0.0,0.0,0.0,0.0,0.0,0.0,0.0,0.0,0.0,0.0,0.0,0.0,0.0,0.0,0.0,0.0,0.0,0.0,0.0,0.0,0.0,0.0,0.0,0.0,0.0,0.0,0.0,0.0,7.7946,7.8484,8.0442,8.1439,8.1477,8.1708,8.1712,8.1439,8.0627,7.9512,0.0,0.0,0.0,0.0,0.0,0.0,0.0,0.0,0.0,0.0,0.0,0.0,0.0,0.0,0.0,0.0,0.0,0.0,0.0,0.0,0.0,0.0,0.0,0.0,0.0,0.0,0.0,0.0,6.1647,6.2156,6.1476,0.0,0.0,0.0,0.0,0.0,0.0,0.0,0.0,0.0,0.0,7.085,7.1892,7.278,7.3245,7.297,7.2943,7.2542,7.1437,7.0455,6.9599,6.8819,0.0,0.0,0.0,0.0,0.0,0.0,0.0,0.0,0.0,0.0,0.0,0.0,0.0,0.0,0.0,0.0,0.0,0.0,0.0,0.0,0.0,0.0,0.0,0.0,0.0,0.0,0.0,6.8462,0.0,0.0,7.0685,0.0,0.0,0.0,0.0,0.0,0.0,0.0,0.0,0.0,0.0,0.0,0.0,0.0,0.0,0.0,0.0,0.0,0.0,0.0,0.0,0.0,0.0,7.848,7.8523,8.102,8.2247,8.2285,8.3097,8.3097,8.2285,8.1477,8.0669,7.9704,0.0,0.0,0.0,0.0,0.0,0.0,0.0,0.0,0.0,0.0,0.0,0.0,0.0,0.0,0.0,0.0,0.0,0.0,0.0,0.0,0.0,0.0,0.0,0.0,0.0,0.0,6.2965,6.3074,6.3062,0.0,0.0,0.0,0.0,0.0,0.0,0.0,0.0,0.0,0.0,7.1549,7.2755,7.4343,7.5333,7.5546,7.4786,7.4578,7.3971,7.2381,7.2632,7.2299,0.0,0.0,0.0,0.0,0.0,0.0,0.0,0.0,0.0,0.0,0.0,0.0,0.0,0.0,0.0,0.0,0.0,0.0,0.0,0.0,0.0,0.0,0.0,0.0,0.0,0.0,0.0,6.9368,7.1699,0.0,0.0,0.0,0.0,0.0,0.0,0.0,0.0,0.0,0.0,0.0,7.4913,7.4787,0.0,0.0,0.0,0.0,0.0,0.0,0.0,0.0,0.0,0.0,0.0,0.0,7.8423,8.0208,8.1593,8.2597,8.3135,8.3447,8.3447,8.3178,8.2328,8.1246,7.9819,0.0,0.0,0.0,0.0,0.0,0.0,0.0,0.0,0.0,0.0,0.0,0.0,0.0,0.0,0.0,0.0,0.0,0.0,0.0,0.0,0.0,0.0,0.0,0.0,0.0,6.3774,0.0,0.0,0.0,0.0,0.0,0.0,0.0,0.0,0.0,0.0,0.0,7.0135,7.0784,7.2573,7.4002,7.4571,7.5372,7.6004,0.0,0.0,0.0,0.0,0.0,0.0,0.0,0.0,0.0,0.0,0.0,0.0,0.0,0.0,6.8643,6.7653,6.7402,6.7315,6.7233,0.0,0.0,0.0,0.0,0.0,0.0,0.0,0.0,0.0,0.0,0.0,0.0,0.0,0.0,7.2185,0.0,7.5687,0.0,0.0,0.0,0.0,0.0,0.0,0.0,0.0,7.5467,7.6186,7.625,7.6115,7.6127,0.0,7.5282,7.447,0.0,0.0,0.0,0.0,0.0,0.0,0.0,0.0,7.9587,8.1089,8.2477,8.3478,8.402,8.4328,8.4328,8.402,8.2901,8.1516,7.9858,7.8746,7.7246,0.0,0.0,0.0,0.0,0.0,0.0,0.0,0.0,0.0,0.0,0.0,0.0,0.0,0.0,0.0,0.0,0.0,0.0,0.0,0.0,0.0,0.0,0.0,6.5659,0.0,0.0,0.0,0.0,0.0,0.0,0.0,0.0,0.0,6.8971,7.0641,7.1908,7.1705,7.3378,7.4688,7.4929,0.0,0.0,0.0,0.0,0.0,0.0,0.0,7.3478,7.3365,7.3202,7.3098,7.3132,7.1459,7.0172,7.0263,0.0,0.0,6.9705,6.9685,6.9904,7.0115,6.9688,6.9341,6.9633,6.9792,6.9859,0.0,0.0,0.0,0.0,0.0,0.0,0.0,0.0,7.3887,7.437,0.0,7.6799,0.0,0.0,0.0,0.0,7.46,7.5496,0.0,0.0,7.7758,7.8631,7.807,7.7611,7.7648,7.8009,7.6706,7.6695,7.7797,7.6123,0.0,0.0,0.0,0.0,0.0,0.0,8.1812,8.1319,8.3628,8.4897,8.4935,8.5666,8.5666,8.482,8.3208,8.1554,7.9973,7.9819,7.8627,7.6245,7.528,0.0,0.0,0.0,0.0,0.0,0.0,0.0,0.0,0.0,0.0,0.0,0.0,0.0,0.0,0.0,0.0,0.0,0.0,0.0,0.0,6.813,0.0,0.0,0.0,0.0,0.0,0.0,0.0,0.0,0.0,0.0,7.0695,7.212,7.3261,7.3235,0.0,0.0,0.0,0.0,7.704,7.6896,7.7497,7.7861,7.7625,7.7376,7.6603,7.4843,0.0,0.0,7.5068,7.208,7.0543,7.2615,7.1775,7.0684,7.0882,7.1523,7.2166,7.2717,7.1706,7.0994,7.1555,7.1265,7.089,7.4294,0.0,0.0,0.0,0.0,7.2271,7.3621,7.6356,7.558,7.6083,7.7584,7.8445,0.0,0.0,0.0,0.0,0.0,0.0,7.7114,7.6836,7.7547,7.7976,7.8232,7.8109,7.8123,7.8238,7.7825,7.7997,7.8671,7.8168,7.7705,7.7386,0.0,0.0,0.0,0.0,8.1653,8.2893,8.4209,8.5166,8.5747,8.5974,8.544,8.3982,8.3482,8.2443,8.0785,8.0127,7.9473,7.8704,7.7323,0.0,0.0,0.0,0.0,0.0,0.0,0.0,0.0,0.0,0.0,0.0,0.0,0.0,0.0,0.0,0.0,0.0,0.0,0.0,6.8188,6.9981,7.0823,0.0,0.0,0.0,0.0,0.0,0.0,0.0,0.0,0.0,7.429,7.4216,7.4158,0.0,0.0,7.5408,7.6216,7.6685,7.725,7.8068,7.7824,0.0,7.7921,7.722,7.6492,7.5956,7.6057,7.5851,7.4867,7.3758,7.3001,7.2909,7.3339,7.378,7.372,7.3881,7.4124,7.4235,7.3934,7.369,7.3869,7.3332,7.2674,7.7179,7.6622,7.4795,7.4642,7.5466,7.4699,7.6078,7.8806,7.7817,7.783,7.8549,7.9258,7.8231,7.5958,7.6405,0.0,0.0,0.0,7.7657,7.7753,7.7759,7.7964,7.8297,7.829,7.829,7.8297,7.8471,7.8781,7.9211,7.9473,7.96,7.9543,0.0,0.0,8.0257,8.1379,8.2677,8.4077,8.4939,8.5589,8.6089,8.6089,8.5286,8.3678,8.3597,8.2793,8.117,8.0589,8.0165,7.9819,7.8823,7.7361,0.0,0.0,0.0,0.0,0.0,0.0,0.0,0.0,0.0,0.0,0.0,6.6248,6.6703,0.0,0.0,0.0,6.9099,6.9365,7.0533,7.1659,0.0,0.0,0.0,0.0,0.0,0.0,0.0,7.4682,7.5576,7.6139,7.6101,7.5741,7.5286,7.4852,7.547,7.6154,7.666,0.0,7.768,7.8354,7.8259,7.819,7.8369,7.7735,7.7138,7.6901,7.6668,7.6339,7.5816,7.5339,7.4839,7.4345,7.4859,7.5461,7.538,7.5645,7.5858,7.5821,7.5307,7.5007,7.5309,7.475,7.4044,7.9546,7.8779,7.4508,7.4465,7.7095,7.6393,7.8097,8.1211,8.0076,7.9291,7.883,7.9345,7.8508,7.6723,7.6618,0.0,7.7395,7.7388,7.77,7.829,7.829,7.829,7.829,7.8364,7.8402,7.8408,7.8824,7.9209,7.961,8.0267,8.0787,8.1167,8.1006,8.111,8.1614,8.3145,8.4251,8.4864,8.565,8.6085,8.6089,8.6089,8.5324,8.364,8.3597,8.2828,8.117,8.1089,8.0746,7.9935,7.9896,7.8819,7.6473,0.0,0.0,0.0,0.0,0.0,0.0,0.0,0.0,0.0,0.0,0.0,0.0,0.0,0.0,0.0,7.1937,0.0,7.351,7.3179,0.0,0.0,0.0,7.3458,7.419,7.4972,7.5452,7.5483,0.0,0.0,7.6741,7.6747,7.6561,7.5995,7.6532,7.699,7.7046,7.7812,7.8323,7.838,7.891,7.9278,7.9136,7.8822,7.8453,7.8012,7.7673,7.7577,7.7496,7.6963,7.6471,7.6278,7.6315,7.628,7.6225,7.6738,7.7281,7.7208,7.6151,7.5358,7.5994,7.5548,7.497,8.0393,8.0165,7.8471,7.7858,7.7997,7.781,7.8268,7.9039,7.8754,7.8541,7.8413,7.8572,7.8355,7.7879,7.7852,7.7916,7.8071,7.8078,7.8132,7.829,7.829,7.829,7.8327,7.8922,7.9219,7.9263,7.994,8.0342,8.0415,8.0598,8.1049,8.1749,8.1718,8.1807,8.206,8.3216,8.403,8.4603,8.5531,8.6065,8.6089,8.6089,8.5286,8.3636,8.3597,8.2828,8.117,8.1089,8.1016,8.0785,8.0781,8.0204,7.8935,7.7401,0.0,0.0,0.0,0.0,0.0,0.0,0.0,0.0,0.0,6.9872,7.0419,0.0,7.2042,0.0,7.3752,7.4263,7.3169,7.4362,0.0,0.0,7.5483,7.549,7.5706,7.6343,7.686,7.6977,7.7608,7.8038,7.8069,7.8052,7.7964,7.7696,7.713,7.7103,7.8288,7.8797,7.9386,8.0133,8.0583,8.0716,8.0312,8.0134,7.991,7.9845,7.9631,7.9467,7.9349,7.92,7.886,7.8181,7.8015,7.7739,7.7121,7.7171,7.7289,7.7281,7.6988,7.6767,7.6965,7.6368,7.5796,8.0698,8.0661,8.0215,7.9769,7.9323,7.8625,7.8434,7.8605,7.84,7.8434,7.8581,7.8407,7.829,7.829,7.829,7.829,7.829,7.829,7.8476,7.884,7.8847,7.9033,7.9368,7.9844,8.0029,8.0067,8.0884,8.1293,8.1293,8.1634,8.2036,8.2526,8.2519,8.2613,8.2837,8.3581,8.4285,8.4939,8.5639,8.6044,8.6085,8.6089,8.5308,8.3625,8.3544,8.2755,8.1024,8.0977,8.0981,8.0981,8.0981,8.0554,7.9701,7.8632,7.7428,0.0,0.0,0.0,0.0,0.0,0.0,0.0,0.0,0.0,0.0,0.0,7.354,7.418,7.5047,7.5141,7.4182,7.5186,7.6043,7.6428,7.6532,7.6724,7.7074,7.751,7.7629,7.7358,7.7967,7.8287,7.7916,7.8184,7.838,7.8304,7.8091,7.8206,7.8996,7.9303,7.9781,8.0749,8.103,8.0998,8.0635,8.0555,8.0437,8.0303,8.0199,8.0087,7.9946,8.0227,8.017,7.9335,7.9119,7.8862,7.8071,7.7532,7.7318,7.7318,7.7318,7.7318,7.7318,7.6949,7.6617,8.1056,8.0967,8.0892,8.0825,8.0735,7.9249,7.883,7.9191,7.88,7.883,7.9185,7.877,7.8618,7.8618,7.8625,7.8625,7.8587,7.8625,7.8996,7.9621,7.9658,8.0029,8.0691,8.081,8.0847,8.0921,8.1738,8.2154,8.2154,8.286,8.3187,8.3187,8.3187,8.3334,8.3574,8.3975,8.4618,8.5398,8.5783,8.5958,8.5988,8.6009,8.5267,8.3709,8.3517,8.2672,8.1065,8.0831,8.0797,8.0797,8.0784,8.0439,7.9723,7.9313,7.8413,0.0,7.6238,0.0,0.0,0.0,0.0,0.0,0.0,0.0,0.0,7.371,7.4869,7.5696,7.5895,7.5864,7.575,7.5948,7.6316,7.6859,7.7075,7.7455,7.8137,7.8195,7.7905,7.7324,7.7777,7.7895,7.7442,7.7881,7.829,7.8371,7.8931,7.9405,7.9621,7.9814,8.0213,8.0891,8.0969,8.1156,8.0993,8.0837,8.074,8.0444,8.0407,8.0236,8.0207,8.0715,8.0911,8.015,7.9939,7.9679,7.8905,7.8121,7.77,7.7729,7.7766,7.7656,7.7362,7.7281,7.7318,8.2984,8.2438,8.1778,8.1585,8.1671,8.0661,8.0316,8.037,8.0302,8.0316,8.037,8.0302,8.0259,8.0252,8.0252,8.0252,8.0252,8.0252,8.0327,8.0475,8.0475,8.055,8.0735,8.1448,8.1746,8.1813,8.26,8.2965,8.2965,8.3113,8.3187,8.3187,8.3187,8.3275,8.3456,0.0,0.0,0.0,8.5566,8.5661,8.5324,8.5503,8.5198,8.4263,8.354,0.0,8.1815,8.1133,8.0797,8.0792,8.0719,0.0,0.0,0.0,0.0,0.0,0.0,0.0,0.0,0.0,0.0,0.0,7.2902,7.34,7.4741,7.5199,7.5465,7.5641,7.6241,7.6542,7.643,7.7106,7.7586,7.759,7.7634,7.7773,7.8006,7.7513,7.7309,7.7979,7.7676,7.7541,7.8037,7.8216,7.832,7.8425,7.8991,7.9686,8.0265,8.0941,8.1776,8.2548,8.2475,8.243,8.2438,8.2173,8.1899,8.1942,8.1859,8.1741,8.168,8.1774,8.1689,8.0939,8.0797,8.049,7.9732,7.9415,7.9221,7.9294,7.9294,7.8919,7.7582,7.7318,7.7318,8.4294,8.3937,8.3559,8.3428,0.0,8.269,8.2386,8.2319,8.1182,8.0698,8.0698,8.0698,8.0698,8.0698,8.0698,8.0698,8.0698,8.0698,8.0921,8.133,8.1337,8.1553,8.1961,8.237,8.26,8.2593,8.3002,8.3187,8.3187,8.3187,8.3187,8.3187,8.3187,8.3224,8.3312,8.4003,8.4646,8.525,8.5852,8.6131,8.6092,8.6064,8.5659,8.4809,8.3983,0.0,0.0,0.0,0.0,0.0,0.0,0.0,0.0,7.9318,0.0,7.8018,7.7086,7.5898,7.4515,7.4617,7.4544,7.4026,7.4783,7.5261,7.5383,7.5823,7.6237,7.6572,7.7368,7.7863,7.7828,7.8551,7.9054,7.9017,7.9069,7.9142,7.9192,7.8956,7.8757,7.8847,7.8882,7.8892,7.8802,7.9159,7.9309,7.9303,7.9946,8.0605,8.1044,8.1497,8.2095,8.2831,8.2888,8.2827,8.2775,8.2667,8.2487,8.2423,8.2355,8.2283,8.2219,8.2186,8.206,8.1644,8.1273,8.0841,8.0502,8.0102,7.9816,7.9816,7.9816,7.9588,7.8662,7.8541,7.8404,8.5172,8.5048,8.5048,8.5088,8.5115,8.4538,8.4333,8.4201,8.2074,0.0,0.0,8.1144,8.1144,8.1144,8.1144,8.1144,8.1144,8.1144,8.1553,8.2192,8.2229,8.2549,8.3151,8.3143,8.3136,8.3106,8.3136,8.3151,8.3151,8.3173,8.3187,8.3187,8.3187,8.3299,8.3484,8.4424,8.5231,8.581,8.6291,8.6645,8.6888,8.6761,8.623,8.5263,8.4554,8.3727,8.2865,8.3042,8.2631,8.1534,8.1288,8.0829,8.0001,7.9117,7.8296,7.7605,7.7253,7.6312,7.4699,7.5197,7.5426,7.5139,7.661,7.7031,7.5809,7.6523,7.7275,7.7952,7.8735,7.9164,7.9142,7.9718,8.0168,8.0153,8.0288,8.0356,8.0363,8.0345,7.9999,7.978,7.9961,8.0103,7.9341,7.9763,8.0178,8.0001,8.0479,8.1512,8.1748,8.1916,8.2162,8.2616,8.2699,8.2649,8.2641,8.2594,8.2547,8.2367,8.2365,8.2329,8.2231,8.2186,8.2186,8.2141,8.1607,8.1318,8.1171,8.0751,8.0249,8.022,8.0212,8.022,8.0228,8.022,7.9929,8.5364,8.4817,8.4854,8.5032,8.5347,8.5251,8.523,8.5097,8.3522,8.2853,8.2853,8.2853,8.2853,8.2853,8.286,8.286,8.286,8.286,8.2927,8.3039,8.3009,8.301,8.2957,8.2949,8.2866,8.2781,8.2874,8.2949,8.2964,8.3121,8.3187,8.3217,8.3187,8.3559,8.4183,8.4235,8.5045,8.6587,8.6716,8.6559,8.6177,8.641,8.6183,8.5399,8.5009,8.4394,8.3681,8.3064,8.2532,8.2168,8.0993,8.0315,8.0188,7.8302,7.7412,7.8058,7.7613,7.6815,7.594,7.6571,7.6688,7.6056,7.6798,7.7601,7.8231,7.8416,7.8814,7.9557,7.9764,7.9791,7.9727,7.9931,8.0109,7.9955,7.9911,7.9965,8.0142,7.9644,7.9557,8.0141,7.9553,7.9361,7.935,7.9424,7.9364,7.8846,8.0193,8.1141,8.2112,8.2527,8.2687,8.2681,8.2551,8.2468,8.2431,8.2356,8.2292,8.2235,8.2259,8.2284,8.2211,8.2268,8.2268,8.2194,8.2023,8.1978,8.1978,8.1958,8.1717,8.168,8.168,8.168,8.168,8.1668,8.126,8.6267,8.5995,8.6004,8.6096,8.6254,8.591,8.562,8.5341,8.4685,8.4076,8.3608,8.3782,8.3552,8.3069,8.3151,8.3143,8.3024,8.3024,8.2972,8.2926,8.2918,8.2934,8.2904,8.282,8.2812,8.279,8.2775,8.3026,8.3411,8.351,8.3807,8.4222,8.4222,8.44,8.477,8.5136,8.5691,8.6497,8.6922,8.7122,8.7131,8.7127,8.6947,8.6587,8.5937,8.5405,8.5053,8.4428,8.3738,8.2937,8.1862,8.1048,8.0509,7.9262,7.8515,7.8455,7.8172,7.7627,7.6812,7.7517,7.8038,7.812,7.8442,7.9016,7.9939,7.9588,7.9516,7.9946,8.0396,8.0669,8.0729,8.1082,8.13,8.1192,8.1192,8.1224,8.1287,8.1109,8.1091,8.1402,8.0826,8.049,8.0807,8.0182,7.9961,8.0195,8.1426,8.2381,8.288,8.351,8.3527,8.2675,8.2349,8.23,8.23,8.2251,8.2194,8.2186,8.2566,8.2602,8.2394,8.2521,8.2647,8.2276,8.2186,8.2186,8.2223,8.2186,8.2186,8.2186,8.2186,8.2186,8.215,8.1852,8.1236,8.717,8.7014,8.7014,8.7003,8.7027,8.6617,8.6176,8.5852,8.5863,8.5287,8.4421,8.4381,8.4079,8.3543,8.3507,8.3492,8.3506,8.3528,8.3429,8.3312,8.3304,8.3298,8.3329,8.3205,8.3197,8.3283,8.3189,8.3482,8.4036,8.4149,8.4461,8.5023,8.5096,8.517,8.5392,8.5942,8.6357,8.6577,8.7122,8.7556,8.7939,8.769,8.7512,8.7259,8.6696,8.6254,8.6043,8.5676,8.4916,8.3688,8.2733,8.1779,8.0842,8.0065,7.9448,7.8943,7.889,7.8662,7.8243,7.8581,7.9221,8.0,8.0065,8.0396,8.1085,8.0681,8.037,8.0546,8.1077,8.1508,8.166,8.201,8.2343,8.2351,8.2343,8.2254,8.2359,8.25,8.2579,8.2526,8.2207,8.2067,8.2078,8.1463,8.1318,8.2284,8.3164,8.3566,8.3725,8.4355,8.4069,8.3255,8.2757,8.2835,8.2745,8.2774,8.281,8.2737,8.3243,8.3362,8.3117,8.3341,8.3435,8.2974,8.2835,8.2892,8.2774,8.2818,8.2737,8.2663,8.2545,8.2369,8.1875,8.1386,8.0959,8.7692,8.706,8.706,8.7126,8.7251,8.7316,8.7214,8.7102,8.7235,8.6676,8.5593,8.4762,8.4763,8.5171,8.4569,8.4599,8.5215,8.5312,8.5205,8.508,8.5133,8.4975,8.4563,8.4596,8.4551,8.444,8.4494,8.4551,8.4707,8.4926,8.5052,8.5096,8.5096,8.5495,8.6106,8.6152,8.6529,8.7349,8.7349,8.7366,8.7555,8.7538,8.7163,8.646,8.6817,8.6643,8.5935,8.5783,8.5307,8.4315,8.3095,8.1968,8.1,7.9598,7.9045,7.9669,7.9706,7.9955,8.0526,8.0065,8.0065,8.0783,8.0901,8.1187,8.1966,8.1966,8.1974,8.1925,8.2035,8.2051,8.2125,8.219,8.2227,8.2235,8.2272,8.2219,8.2272,8.2235,8.2235,8.2243,8.283,8.2993,8.2549,8.2773,8.3203,8.3238,8.3653,8.4027,8.4426,8.4719,8.486,8.4491,8.4386,8.4312,8.4258,8.4352,8.4168,8.425,8.4402,8.4337,8.4255,8.4256,8.4379,8.4039,8.4162,8.4143,8.418,8.4352,8.4013,8.3209,8.2959,8.2747,8.1505,8.0842,8.072,8.8702,8.8372,8.7904,8.747,8.7152,8.7183,8.7242,8.7321,8.7352,8.7139,8.6733,8.5894,8.5395,8.5115,8.4922,8.4951,8.5115,8.5144,8.5056,8.494,8.4923,8.4862,8.4813,8.4714,8.4672,8.4706,8.4689,8.493,8.5424,8.5961,8.6215,8.6215,8.6223,8.6399,8.6693,8.6663,8.681,8.7172,8.7141,8.7141,8.7226,8.7398,8.7358,8.707,8.715,8.7074,8.6688,8.6127,8.5604,8.5199,8.424,8.3325,8.2472,8.1811,8.1371,8.1277,8.1203,8.135,8.1672,8.1387,8.135,8.1709,8.1717,8.1856,8.215,8.2186,8.2186,8.2186,8.2186,8.2186,8.2223,8.2186,8.2186,8.226,8.2627,8.2912,8.292,8.3313,8.3639,8.3598,8.3461,8.3509,8.3601,8.3925,8.3954,8.3772,8.4216,8.5001,8.5291,8.5715,8.6015,8.6028,8.6015,8.5535,8.4903,8.4609,8.4609,8.4682,8.501,8.5238,8.4818,8.5069,8.5168,8.4722,8.4736,8.4722,8.4504,8.4541,8.4344,8.3557,8.2338,8.1642,8.0985,8.0133,7.9624,8.9583,8.9326,8.8748,8.8051,8.7353,8.7316,8.7284,8.722,8.7228,8.7268,8.7311,8.6767,8.6094,8.5496,8.5435,8.5459,8.5538,8.5529,8.5476,8.5362,8.5345,8.5387,8.5392,8.532,8.5329,8.5376,8.5357,8.56,8.6151,8.6693,8.7014,8.7014,8.7014,8.7014,8.7014,8.7014,8.7014,8.7023,8.7014,8.7014,8.7021,8.7251,8.7357,8.734,8.7268,8.7192,8.7192,8.6513,8.6004,8.5792,8.5241,8.4564,8.3793,8.3711,8.3463,8.292,8.2847,8.2847,8.2855,8.2855,8.2847,8.2847,8.2855,8.2847,8.2884,8.2847,8.2855,8.292,8.2855,8.2847,8.2553,8.2737,8.2847,8.2884,8.3426,8.3711,8.3756,8.4293,8.453,8.4544,8.4296,8.4352,8.5061,8.527,8.5128,8.4811,8.5439,8.6133,8.6175,8.6613,8.6941,8.7014,8.6986,8.6546,8.549,8.5371,8.5261,8.5343,8.5837,8.5911,8.5343,8.5853,8.6075,8.5769,8.5392,8.5295,8.5495,8.5306,8.4299,8.3161,8.1889,8.0705,8.0099,7.9193,7.8564,9.0106,8.9436,8.9363,8.8886,8.8169,8.8169,8.7692,8.7131,8.7085,8.7049,8.7075,8.6993,8.6939,8.6772,8.6365,8.6631,8.7259,8.7198,8.7127,8.7013,8.705,8.7047,8.6893,8.6876,8.6839,8.6718,8.6664,8.6766,8.6913,8.6986,8.7014,8.7014,8.7014,8.7014,8.7014,8.7014,8.7014,8.7014,8.7014,8.7014,8.7023,8.7003,8.7038,8.7038,8.7003,8.7049,8.7003,8.6958,8.6591,8.5874,8.5792,8.538,8.4646,8.4535,8.4462,8.4425,8.4425,8.4425,8.4389,8.4352,8.4352,8.4425,8.4315,8.4425,8.4242,8.4242,8.4242,8.4425,8.4352,8.4132,8.3609,8.3911,8.4278,8.4315,8.4454,8.4527,8.4527,8.4699,8.4626,8.4812,8.5258,8.5799,8.6675,8.6876,8.6693,8.6591,8.6839,8.6867,8.6822,8.6941,8.6978,8.7014,8.7014,8.6949,8.6876,8.6509,8.6619,8.6619,8.6472,8.6803,8.6904,8.6932,8.685,8.6805,8.6604,8.6524,8.6638,8.5872,8.4379,8.3007,8.1447,8.0327,7.9386,7.8806,7.8246,9.0913,9.0179,9.0179,8.9702,8.9005,8.8968,8.8491,8.7802,8.7757,8.7463,8.706,8.7014,8.7014,8.6995,8.6829,8.6889,8.7155,8.7183,8.7149,8.7126,8.7089,8.7083,8.7031,8.7014,8.7014,8.7014,8.7014,8.7014,8.7014,8.7014,8.7014,8.7014,8.7014,8.7014,8.7014,8.7014,8.7014,8.7014,8.7014,8.7014,8.7014,8.7014,8.7014,8.7014,8.7014,8.7014,8.7014,8.7014,8.6876,8.6582,8.6591,8.6187,8.5462,8.4866,8.4609,8.4609,8.4609,8.4609,8.4609,8.4609,8.4609,8.4609,8.4609,8.4646,8.4609,8.4609,8.4609,8.4682,8.5123,8.5168,8.4976,8.4792,8.4609,8.4646,8.5049,8.538,8.5462,8.5783,8.6142,8.617,8.6401,8.6695,8.6895,8.7014,8.7014,8.7014,8.7014,8.7014,8.7014,8.7014,8.7014,8.7014,8.7014,8.7014,8.7014,8.6986,8.6986,8.6986,8.6986,8.6949,8.6978,8.6978,8.6895,8.6725,8.6852,8.6681,8.6356,8.5126,8.3805,8.2835,8.1246,7.9839,7.8612,7.8376,7.7886,9.1473,9.1023,9.0987,9.0546,8.9812,8.9803,8.9335,8.8601,8.8316,8.7876,8.7427,8.7133,8.7014,8.7014,8.7014,8.7014,8.7014,8.7023,8.7023,8.7014,8.7014,8.7014,8.7014,8.7014,8.7014,8.7014,8.7014,8.7014,8.7014,8.7014,8.7014,8.7014,8.7014,8.7014,8.7014,8.7014,8.7014,8.7014,8.7014,8.7014,8.7014,8.7014,8.7014,8.7014,8.7014,8.7014,8.7014,8.7014,8.7014,8.7014,8.7014,8.6729,8.6196,8.5673,8.5371,8.5371,8.5371,8.5371,8.5371,8.538,8.5371,8.5371,8.5408,8.5371,8.5371,8.5371,8.538,8.5527,8.582,8.6187,8.6077,8.571,8.5371,8.5408,8.5857,8.6187,8.6187,8.6656,8.6913,8.6904,8.6904,8.6978,8.7014,8.7014,8.7014,8.7014,8.7014,8.7014,8.7014,8.7014,8.7152,8.7318,8.7152,8.7234,8.728,8.7316,8.7096,8.706,8.7023,8.7014,8.6978,8.6978,8.6833,8.6699,8.6472,8.6247,8.5503,8.428,8.3295,8.2437,8.1222,7.9729,7.887,7.8204,7.7985,9.1812,9.1739,9.1776,9.1289,9.0656,9.062,9.0179,8.9363,8.8647,8.8353,8.8133,8.7427,8.7124,8.706,8.706,8.7014,8.7133,8.706,8.7014,8.7014,8.7014,8.7014,8.7014,8.7014,8.7014,8.7014,8.7014,8.7014,8.7014,8.7014,8.7014,8.7014,8.7014,8.7014,8.7014,8.7014,8.7014,8.7014,8.7014,8.7014,8.7014,8.7014,8.7014,8.7014,8.7014,8.7014,8.7014,8.7014,8.7014,8.7014,8.7014,8.7014,8.6913,8.6794,8.6913,8.6803,8.6913,8.6904,8.6913,8.6839,8.6729,8.6729,8.6876,8.6766,8.6693,8.6766,8.6766,8.6729,8.6913,8.7023,8.7023,8.7023,8.6904,8.6949,8.6839,8.6839,8.6995,8.706,8.706,8.7206,8.7271,8.7088,8.7051,8.717,8.7206,8.7178,8.706,8.7014,8.7014,8.7014,8.7346,8.7762,8.768,8.7514,8.7603,8.761,8.7353,8.7133,8.706,8.7014,8.6895,8.6859,8.644,8.6201,8.5771,8.5504,8.4761,8.356,8.2397,8.1469,8.0438,7.9775,7.9037,7.8506,7.8677,9.1812,9.1812,9.1812,9.1666,9.1436,9.1436,9.0959,9.0216,8.9931,8.9555,8.8968,8.8197,8.7839,8.7684,8.728,8.7316,8.7766,8.7316,8.7014,8.706,8.7023,8.7023,8.7023,8.7023,8.7014,8.7014,8.7014,8.7014,8.7014,8.7014,8.7014,8.7014,8.7014,8.7014,8.7014,8.7014,8.7014,8.7014,8.7014,8.7014,8.7014,8.7014,8.7014,8.7014,8.7014,8.7014,8.7014,8.7014,8.7014,8.7014,8.7014,8.7014,8.7014,8.7014,8.7014,8.7014,8.7014,8.7014,8.7014,8.7014,8.7014,8.7014,8.7014,8.7014,8.7014,8.7014,8.7023,8.7096,8.7463,8.7839,8.7912,8.8344,8.8152,8.7133,8.7014,8.7306,8.7781,8.825,8.8636,8.8674,8.8666,8.8666,8.8519,8.8271,8.782,8.7781,8.7425,8.7133,8.706,8.7187,8.731,8.7964,8.7819,8.8112,8.8503,8.8564,8.8271,8.7848,8.7608,8.7306,8.7142,8.6705,8.625,8.546,8.5029,8.4504,8.3757,8.2955,8.1872,8.1139,8.0567,7.9889,7.912,7.9085,7.9429,9.1812,9.1812,9.1812,9.1812,9.1812,9.1812,9.151,9.1023,9.0693,9.028,8.973,8.9005,8.8638,8.8528,8.8087,8.8189,8.8564,8.8087,8.7895,8.7748,8.717,8.7133,8.7316,8.7096,8.7014,8.7014,8.7014,8.7014,8.7014,8.7014,8.7014,8.7014,8.7014,8.7014,8.7014,8.7014,8.7014,8.7014,8.7014,8.7014,8.7014,8.7014,8.7014,8.7014,8.7014,8.7014,8.7014,8.7014,8.7014,8.7014,8.7014,8.7014,8.7014,8.7014,8.7014,8.7014,8.7014,8.7014,8.7014,8.7014,8.7014,8.7014,8.7014,8.7014,8.7014,8.7014,8.706,8.7509,8.7867,8.8316,8.8638,8.9042,8.8886,8.8042,8.7977,8.8113,8.8663,8.9078,8.931,8.931,8.931,8.9391,8.9253,8.9069,8.8655,8.8552,8.8232,8.7874,8.79,8.7935,8.8325,8.8623,8.8744,8.9156,8.9666,8.9546,8.9216,8.8746,8.8313,8.7945,8.7643,8.6925,8.629,8.4624,8.379,8.3297,8.2633,8.2401,8.1678,8.1204,8.0742,8.0328,7.9868,8.0236,8.049,9.1812,9.1812,9.1812,9.1812,9.1812,9.1812,9.1767,9.1657,9.1033,9.0693,9.051,8.9812,8.9473,8.9427,8.9216,8.9253,8.9436,8.9253,8.9326,8.9033,8.8197,8.7684,8.8133,8.7684,8.7455,8.7353,8.7308,8.728,8.7427,8.728,8.7096,8.717,8.7096,8.7014,8.7014,8.7014,8.7014,8.7014,8.7014,8.7014,8.7014,8.7014,8.7014,8.7014,8.7014,8.7051,8.7206,8.7308,8.7206,8.706,8.7014,8.7014,8.7014,8.7014,8.7014,8.7023,8.7023,8.706,8.706,8.717,8.717,8.7206,8.7096,8.7088,8.7308,8.7353,8.7537,8.8169,8.8418,8.8757,8.9326,8.9693,8.9593,8.9466,8.9337,8.9372,8.9436,8.9577,8.9825,8.9742,8.9558,8.9583,8.973,8.962,8.9473,8.9409,8.9298,8.9058,8.9063,8.9063,8.9634,8.9651,8.9341,8.9394,8.9652,8.9507,8.9179,8.8949,8.8408,8.7834,8.7221,8.6393,8.5424,8.3787,8.2824,8.2244,8.1918,8.1851,8.1655,8.1262,8.0962,8.0787,8.0856,8.1122,8.1145,9.1812,9.1812,9.1812,9.1812,9.1812,9.1812,9.1812,9.1776,9.1583,9.1436,9.1289,9.0656,9.0289,9.0207,8.9693,8.9693,9.006,8.9693,9.0143,9.0776,8.9519,8.8886,8.9042,8.8886,8.8702,8.8702,8.8629,8.8776,8.8739,8.8124,8.7876,8.7876,8.7353,8.7096,8.7014,8.7096,8.7014,8.7014,8.7023,8.706,8.7088,8.7088,8.7014,8.7014,8.706,8.7353,8.7867,8.8445,8.8152,8.7096,8.7014,8.7014,8.706,8.706,8.7096,8.7133,8.7537,8.7619,8.728,8.7573,8.7876,8.7839,8.7463,8.7537,8.8666,8.8197,8.8344,8.9005,8.9555,8.9996,9.0326,9.0739,9.0786,9.0309,9.0135,9.0162,9.0297,9.0812,9.1152,9.1152,9.1052,9.096,9.0841,9.0511,9.0217,9.0107,8.9805,8.9373,8.939,8.9517,8.9804,8.9547,8.929,8.9332,8.9353,8.9281,8.9117,8.8953,8.8244,8.7202,8.6207,8.4937,8.3782,8.237,8.2336,8.1893,8.1846,8.1802,8.1512,8.1316,8.135,8.1316,8.1431,8.1593,8.157,9.1812,9.1812,9.1812,9.1812,9.1812,9.1812,9.1812,9.1812,9.1812,9.1812,9.1693,9.1326,9.1106,9.1033,9.062,9.0656,9.0987,9.062,9.0959,9.1473,9.0812,9.0069,8.9583,8.94,8.94,8.94,8.94,8.9363,8.929,8.8895,8.8711,8.8638,8.8225,8.8005,8.8078,8.8014,8.8005,8.8042,8.8005,8.8005,8.8005,8.8005,8.8005,8.8005,8.8014,8.8271,8.8748,8.9143,8.8923,8.8189,8.8005,8.7858,8.7537,8.75,8.75,8.7545,8.7986,8.8096,8.8161,8.8454,8.8674,8.8638,8.8197,8.8519,8.9106,8.8931,8.9042,8.9812,9.0363,9.073,9.1042,9.1243,9.102,9.0532,9.0196,9.0163,9.0484,9.1253,9.1517,9.1396,9.1266,9.1247,9.1247,9.0809,9.0617,9.0479,9.0195,8.9706,8.9413,8.9587,8.9572,8.9274,8.9276,8.9418,8.9094,8.8878,8.8007,8.7868,8.682,8.5962,8.5187,8.3805,8.2995,8.2136,8.1927,8.1776,8.1776,8.1776,8.1707,8.1638,8.1776,8.1776,8.1776,8.1776,8.1776,9.1812,9.1812,9.1812,9.1812,9.1812,9.1812,9.1812,9.1812,9.1812,9.1812,9.1776,9.1776,9.1666,9.1812,9.1546,9.1739,9.1767,9.1592,9.1666,9.1776,9.151,9.0987,9.0024,8.995,8.9922,8.9886,8.9702,8.9767,8.984,8.9657,8.951,8.9436,8.9363,8.9326,8.9106,8.9216,8.9363,8.9216,8.9106,8.9106,8.9106,8.9106,8.9069,8.9097,8.9326,8.9409,8.9546,8.9693,8.9693,8.9657,8.951,8.8959,8.839,8.8307,8.8316,8.839,8.8528,8.8895,8.9216,8.9326,8.951,8.9473,8.94,8.9546,8.9693,8.9693,8.9849,9.0656,9.0693,9.1033,9.1178,9.0847,9.0262,8.9878,8.9339,8.9415,9.0148,9.1069,9.1358,9.064,9.0512,9.0495,9.0493,9.0493,9.0522,9.088,9.0555,9.0044,8.9667,8.9622,8.9349,8.8797,8.906,8.9478,8.9012,8.846,8.7263,8.6325,8.4928,8.4021,8.3994,8.3079,8.2545,8.2077,8.1869,8.1776,8.1776,8.1776,8.1776,8.1776,8.1776,8.1776,8.1776,8.1776,8.1776,9.1812,9.1812,9.1812,9.1812,9.1812,9.1812,9.1812,9.1812,9.1812,9.1812,9.1812,9.1812,9.1812,9.1812,9.1812,9.1812,9.1812,9.1812,9.1812,9.1812,9.1812,9.1657,9.1216,9.1179,9.1216,9.1179,9.1253,9.1253,9.1106,9.0583,9.0326,9.0289,8.984,8.9436,8.951,8.962,8.94,8.94,8.9436,8.9546,8.9546,8.9546,8.9546,8.9583,9.0032,9.0326,9.0473,9.095,9.1253,9.0996,9.017,8.9473,8.9225,8.9152,8.9152,8.9262,8.9702,8.9849,8.962,9.0032,9.0363,9.0289,8.995,8.9913,9.1179,9.062,9.0767,9.1317,9.1537,9.1308,9.0839,8.9971,8.9236,8.8646,8.8219,8.811,8.853,8.9791,9.0532,9.0447,9.0346,9.0463,9.0423,9.0302,9.0503,9.1064,9.0773,9.0326,8.9862,8.9416,8.8888,8.817,8.8389,8.8628,8.7866,8.7258,8.63,8.5295,8.3933,8.2773,8.2731,8.2575,8.2135,8.1949,8.1822,8.1776,8.1776,8.1776,8.1776,8.1776,8.1776,8.1776,8.1776,8.1776,8.1776,9.1812,9.1812,9.1812,9.1812,9.1812,9.1812,9.1812,9.1812,9.1812,9.1812,9.1812,9.1812,9.1812,9.1812,9.1812,9.1812,9.1812,9.1812,9.1812,9.1812,9.1812,9.1812,9.1812,9.1812,9.1812,9.1812,9.1776,9.1812,9.1657,9.14,9.1143,9.1143,9.0702,9.0656,9.051,9.0473,9.0583,9.0583,9.051,9.051,9.051,9.051,9.051,9.0546,9.0913,9.1134,9.1216,9.151,9.1739,9.1583,9.0987,9.0326,9.0032,8.9959,8.995,9.006,9.0289,9.0693,9.062,9.0886,9.1179,9.1143,9.073,9.1033,9.1546,9.1363,9.1143,9.1306,9.1453,9.1453,9.0542,8.9149,8.8231,8.7796,8.7289,8.7216,8.78,8.8962,8.9609,8.9357,8.906,8.9092,8.9157,8.9449,8.9361,8.9422,8.9286,8.8854,8.8298,8.7901,8.7842,8.7471,8.7659,8.747,8.6664,8.5945,8.5246,8.4418,8.3599,8.2673,8.2218,8.2077,8.1857,8.1776,8.1776,8.1776,8.1776,8.1776,8.1776,8.1776,8.1776,8.1776,8.1776,8.1776,8.1776,9.1812,9.1812,9.1812,9.1812,9.1812,9.1812,9.1812,9.1812,9.1812,9.1812,9.1849,9.1923,9.2134,9.2069,9.2244,9.2207,9.2253,9.229,9.2473,9.2437,9.2464,9.2473,9.2437,9.2437,9.2437,9.217,9.1923,9.1849,9.1812,9.1776,9.1629,9.173,9.173,9.1546,9.1693,9.1776,9.1592,9.1555,9.151,9.1546,9.1583,9.162,9.1583,9.1583,9.162,9.1657,9.1666,9.1776,9.1812,9.1812,9.1812,9.1436,9.0996,9.0776,9.0803,9.0767,9.0886,9.1069,9.1436,9.1666,9.1739,9.1812,9.1739,9.1629,9.1556,9.1361,9.0974,9.0713,9.0671,9.0778,9.0063,8.8801,8.7819,8.7361,8.6718,8.6767,8.7355,8.8229,8.8204,8.8117,8.817,8.8287,8.8129,8.8174,8.797,8.7784,8.7679,8.7502,8.7045,8.6705,8.683,8.6867,8.7047,8.678,8.5987,8.5282,8.4511,8.389,8.3204,8.2664,8.2007,8.1857,8.1776,8.1776,8.1776,8.1776,8.1776,8.1776,8.1776,8.1776,8.1776,8.1776,8.1776,8.1776,8.1776,9.1812,9.1812,9.1812,9.1812,9.1812,9.1812,9.1812,9.1812,9.1849,9.1803,9.1913,9.2537,9.2868,9.3015,9.3648,9.3832,9.3648,9.3611,9.3685,9.3685,9.3675,9.3685,9.3611,9.3575,9.3685,9.3464,9.273,9.2024,9.1959,9.1812,9.2106,9.1923,9.1959,9.1959,9.1996,9.1849,9.2069,9.2143,9.2106,9.2069,9.2069,9.1959,9.1923,9.1923,9.1886,9.1812,9.1812,9.1812,9.1812,9.1812,9.1812,9.1702,9.1546,9.151,9.151,9.1482,9.1482,9.1592,9.1776,9.1812,9.1812,9.1812,9.173,9.1304,9.0905,9.0671,9.0312,8.9743,8.9406,8.9192,8.8254,8.7819,8.7325,8.6792,8.6494,8.6376,8.6604,8.6881,8.7248,8.7438,8.7536,8.7609,8.7467,8.7431,8.7513,8.75,8.7442,8.7341,8.7052,8.6664,8.646,8.646,8.6435,8.6009,8.5432,8.4764,8.4097,8.3543,8.2971,8.2675,8.2168,8.1891,8.181,8.1996,8.1903,8.1776,8.1776,8.1776,8.1776,8.1776,8.1776,8.1776,8.1776,8.1776,8.1776,9.1812,9.1812,9.1812,9.1812,9.1812,9.1812,9.1812,9.1877,9.2244,9.2464,9.2721,9.3308,9.3721,9.3832,9.4088,9.4309,9.4345,9.4309,9.4309,9.4309,9.4309,9.4309,9.4345,9.4345,9.4309,9.4088,9.3455,9.3051,9.3097,9.3134,9.3015,9.3134,9.3097,9.3097,9.3097,9.3171,9.3061,9.3061,9.3061,9.3061,9.2978,9.2721,9.2464,9.2391,9.206,9.1812,9.1812,9.1812,9.1812,9.1812,9.1812,9.1812,9.1849,9.1849,9.1812,9.1849,9.1812,9.1812,9.1812,9.1794,9.1611,9.1152,9.1124,9.0681,9.0053,8.9712,8.9491,8.9041,8.7957,8.7702,8.7726,8.7289,8.6792,8.6456,8.6294,8.6294,8.6294,8.6294,8.6633,8.6997,8.6936,8.6903,8.6879,8.6924,8.7136,8.7172,8.7174,8.7077,8.6906,8.6674,8.6294,8.6294,8.6294,8.5984,8.5501,8.4902,8.4304,8.3647,8.3095,8.28,8.2734,8.2687,8.255,8.2517,8.2297,8.1949,8.1776,8.1776,8.1776,8.1776,8.1776,8.1776,8.1776,8.1776,8.1776,9.2216,9.206,9.2244,9.2326,9.2281,9.2281,9.2363,9.2437,9.3051,9.3345,9.3455,9.4162,9.4556,9.4602,9.4749,9.485,9.4786,9.485,9.4933,9.4933,9.497,9.4859,9.4813,9.4786,9.4933,9.507,9.4887,9.4593,9.4125,9.4088,9.4235,9.4088,9.4235,9.4309,9.4162,9.4015,9.4309,9.4309,9.4309,9.4309,9.4116,9.3712,9.3345,9.3308,9.2648,9.24,9.251,9.2547,9.2501,9.251,9.2437,9.2354,9.2317,9.2326,9.2253,9.2069,9.1923,9.1812,9.1776,9.15,9.1152,9.069,9.0353,8.9722,8.9009,8.8601,8.84,8.8231,8.7456,8.6706,8.7109,8.6767,8.6406,8.6307,8.6294,8.6294,8.6294,8.6294,8.6294,8.6457,8.6294,8.6369,8.6518,8.6543,8.6758,8.6758,8.6726,8.6689,8.657,8.6536,8.6294,8.6294,8.6225,8.6053,8.5708,8.5363,8.4821,8.437,8.3878,8.349,8.3609,8.375,8.3507,8.3157,8.2563,8.225,8.203,8.181,8.1776,8.1776,8.1776,8.1776,8.1776,8.1776,8.1776,9.3602,9.3005,9.3675,9.4015,9.3942,9.3905,9.3978,9.3942,9.4079,9.4162,9.4226,9.496,9.5354,9.5465,9.6025,9.6318,9.6318,9.6208,9.6135,9.6098,9.6135,9.6135,9.6318,9.6428,9.6144,9.6061,9.6208,9.5547,9.4896,9.4566,9.4456,9.4492,9.4602,9.4382,9.4639,9.4676,9.4309,9.4345,9.4382,9.4419,9.4382,9.4272,9.4199,9.4125,9.3942,9.3749,9.3685,9.3685,9.3758,9.3832,9.3905,9.3969,9.4006,9.4015,9.3602,9.2978,9.2317,9.1803,9.1684,9.119,9.0661,9.0252,8.9712,8.8856,8.8049,8.7289,8.6939,8.662,8.6357,8.6382,8.657,8.6419,8.6294,8.6294,8.6294,8.6294,8.6294,8.6294,8.6294,8.6294,8.6294,8.6294,8.6369,8.6332,8.6354,8.6329,8.6294,8.6294,8.6294,8.6294,8.6294,8.6294,8.6247,8.6053,8.5708,8.5363,8.5213,8.49,8.4582,8.4227,8.4493,8.4562,8.4201,8.3773,8.3176,8.2562,8.2216,8.1996,8.1857,8.1776,8.1776,8.1776,8.1776,8.1776,8.1776,9.4923,9.3822,9.4162,9.4309,9.4309,9.4309,9.4309,9.4382,9.4777,9.4987,9.5144,9.5832,9.6171,9.6235,9.6575,9.6685,9.6722,9.6722,9.6722,9.6722,9.6722,9.6722,9.6649,9.6685,9.6722,9.6722,9.6685,9.6392,9.5731,9.5584,9.5658,9.5594,9.5621,9.5731,9.5483,9.5621,9.5694,9.5694,9.5694,9.5658,9.5557,9.5227,9.497,9.4951,9.4556,9.4419,9.4382,9.4309,9.4309,9.4309,9.4309,9.4309,9.4131,9.3754,9.3068,9.232,9.1362,9.1202,9.1564,9.0902,9.0292,8.9586,8.8845,8.7923,8.7085,8.6595,8.6294,8.6319,8.6307,8.6294,8.6294,8.6294,8.6294,8.6294,8.6294,8.6294,8.6294,8.6294,8.6294,8.6294,8.6294,8.6294,8.6294,8.6294,8.6294,8.6294,8.6294,8.6294,8.6294,8.6294,8.6294,8.6294,8.6213,8.6075,8.5673,8.5294,8.5294,8.5121,8.5129,8.4944,8.5363,8.5355,8.4986,8.4536,8.3977,8.3318,8.2618,8.2077,8.1822,8.1776,8.1776,8.1845,8.1845,8.1776,8.1776,9.5988,9.4923,9.4887,9.4896,9.4896,9.4887,9.4923,9.4997,9.5538,9.5795,9.5942,9.6428,9.6685,9.6722,9.6685,9.6722,9.6722,9.6722,9.6722,9.6722,9.6722,9.6722,9.6722,9.6722,9.6722,9.6722,9.6722,9.6612,9.6649,9.6612,9.6539,9.6722,9.6465,9.6539,9.6649,9.6575,9.6502,9.6502,9.6502,9.6539,9.6475,9.6071,9.5887,9.5621,9.529,9.4887,9.4896,9.497,9.5006,9.4997,9.507,9.5144,9.4985,9.4631,9.3548,9.2621,9.1609,9.1001,9.0779,9.0084,8.9502,8.8734,8.7946,8.7097,8.6558,8.6294,8.6294,8.6294,8.6294,8.6294,8.6294,8.6294,8.6294,8.6294,8.6294,8.6294,8.6294,8.6294,8.6294,8.6294,8.6294,8.6294,8.6294,8.6294,8.6294,8.6294,8.6294,8.6294,8.6294,8.6294,8.6294,8.6294,8.626,8.6178,8.5902,8.557,8.5466,8.5422,8.543,8.5533,8.5824,8.5993,8.5815,8.5298,8.4712,8.4326,8.3768,8.2731,8.181,8.1845,8.1914,8.1936,8.1936,8.1879,8.1822,9.6649,9.6539,9.6502,9.6465,9.6465,9.6539,9.6502,9.6318,9.6502,9.6539,9.6502,9.6685,9.6722,9.6722,9.6722,9.6722,9.6722,9.6722,9.6722,9.6722,9.6722,9.6722,9.6722,9.6722,9.6722,9.6722,9.6722,9.6722,9.6722,9.6722,9.6722,9.6722,9.6722,9.6722,9.6722,9.6722,9.6722,9.6722,9.6722,9.6722,9.6722,9.6575,9.6539,9.6539,9.6539,9.6539,9.6502,9.6318,9.6245,9.6208,9.6171,9.6208,9.605,9.5576,9.435,9.2755,9.1817,9.0832,8.9575,8.8768,8.8071,8.7574,8.7062,8.6521,8.6332,8.6294,8.6294,8.6294,8.6294,8.6294,8.6294,8.6294,8.6294,8.6294,8.6294,8.6294,8.6294,8.6294,8.6294,8.6294,8.6294,8.6294,8.6294,8.6294,8.6294,8.6294,8.6294,8.6294,8.6294,8.6294,8.6294,8.6294,8.6294,8.6294,8.6294,8.6087,8.5915,8.588,8.5896,8.6011,8.6156,8.6247,8.62,8.5921,8.5345,8.5166,8.4754,8.35,8.2557,8.2178,8.2121,8.2455,8.2387,8.225,8.2123,9.6722,9.6722,9.6722,9.6722,9.6722,9.6722,9.6722,9.6722,9.6722,9.6722,9.6722,9.6722,9.6722,9.6722,9.6722,9.6722,9.6722,9.6722,9.6722,9.6722,9.6722,9.6722,9.6722,9.6722,9.6722,9.6722,9.6722,9.6722,9.6722,9.6722,9.6722,9.6722,9.6722,9.6722,9.6722,9.6722,9.6722,9.6722,9.6722,9.6722,9.6722,9.6722,9.6722,9.6722,9.6722,9.6722,9.6685,9.6685,9.6722,9.6722,9.6722,9.6657,9.6397,9.5704,9.4143,9.2202,9.1272,8.96,8.817,8.7526,8.7456,8.6842,8.6484,8.6294,8.6294,8.6294,8.6294,8.6294,8.6294,8.6294,8.6294,8.6294,8.6294,8.6294,8.6294,8.6294,8.6294,8.6294,8.6294,8.6294,8.6294,8.6294,8.6294,8.6294,8.6294,8.6294,8.6294,8.6294,8.6294,8.6294,8.6294,8.6294,8.6294,8.6294,8.6294,8.6294,8.6294,8.6294,8.6294,8.6294,8.6294,8.6294,8.6235,8.6059,8.5849,8.547,8.4841,8.3947,8.3338,8.304,8.3123,8.3412,8.315,8.2689,8.233,9.6722,9.6722,9.6722,9.6722,9.6722,9.6722,9.6722,9.6722,9.6722,9.6722,9.6722,9.6722,9.6722,9.6722,9.6722,9.6722,9.6722,9.6722,9.6722,9.6722,9.6722,9.6722,9.6722,9.6722,9.6722,9.6722,9.6722,9.6722,9.6722,9.6722,9.6722,9.6722,9.6722,9.6722,9.6722,9.6722,9.6722,9.6722,9.6722,9.6722,9.6722,9.6722,9.6722,9.6722,9.6722,9.6722,9.6722,9.6722,9.6722,9.6722,9.6657,9.6494,9.5897,9.4853,9.3191,9.1407,8.9772,8.8181,8.7055,8.673,8.6988,8.6484,8.6369,8.6294,8.6329,8.6329,8.6294,8.6294,8.6294,8.6329,8.6329,8.6294,8.6294,8.6294,8.6294,8.6294,8.6294,8.6294,8.6294,8.6294,8.6294,8.6294,8.6294,8.6294,8.6294,8.6294,8.6294,8.6294,8.6294,8.6294,8.6294,8.6294,8.6294,8.6294,8.6294,8.6294,8.6294,8.6294,8.6294,8.6294,8.6294,8.6294,8.6294,8.62,8.5965,8.5627,8.5308,8.4912,8.4454,8.3971,8.402,8.401,8.3571,8.3053,8.2463,9.6722,9.6722,9.6722,9.6722,9.6722,9.6722,9.6722,9.6722,9.6722,9.6722,9.6722,9.6722,9.6722,9.6722,9.6722,9.6722,9.6722,9.6722,9.6722,9.6722,9.6722,9.6722,9.6637,9.6608,9.6485,9.6657,9.655,9.6446,9.6722,9.6722,9.6722,9.6436,9.6289,9.6446,9.6637,9.6722,9.6722,9.6657,9.6599,9.655,9.6521,9.6502,9.6502,9.6722,9.6722,9.6722,9.6407,9.6397,9.6328,9.6123,9.6153,9.5917,9.5384,9.483,9.3135,9.0611,8.9986,8.8562,8.6676,8.6463,8.646,8.6504,8.657,8.657,8.6454,8.6454,8.6605,8.688,8.6674,8.6501,8.6398,8.6363,8.6432,8.6467,8.6501,8.6523,8.6557,8.6551,8.6598,8.6376,8.6294,8.6294,8.6294,8.6294,8.6294,8.6294,8.6294,8.6329,8.6329,8.6294,8.6294,8.6294,8.6294,8.6294,8.6294,8.6294,8.6294,8.6294,8.6294,8.6294,8.6294,8.6294,8.6282,8.6282,8.6153,8.5931,8.6072,8.6191,8.5488,8.4833,8.4488,8.4301,8.388,8.3416,8.2834,9.6722,9.6722,9.6722,9.6722,9.6722,9.6722,9.6722,9.6722,9.6722,9.6722,9.6722,9.6722,9.6722,9.6722,9.6722,9.6722,9.6722,9.6722,9.6722,9.6722,9.6722,9.6722,9.656,9.6143,9.6047,9.6338,9.6203,9.6123,9.6722,9.6599,9.6163,9.5836,9.542,9.5545,9.6348,9.6637,9.6455,9.5836,9.5668,9.5678,9.5688,9.5785,9.6064,9.6628,9.6722,9.6426,9.5877,9.5846,9.5586,9.5112,9.5038,9.4963,9.4525,9.4029,9.2204,9.0482,8.9799,8.8011,8.7138,8.7066,8.7053,8.704,8.7053,8.726,8.7674,8.7812,8.7812,8.7743,8.7605,8.7432,8.7191,8.7075,8.7109,8.7075,8.7109,8.7109,8.7135,8.7097,8.7031,8.6551,8.6294,8.6467,8.6501,8.6755,8.6802,8.6699,8.6711,8.6432,8.6363,8.6329,8.6294,8.6294,8.6294,8.6294,8.6294,8.6294,8.6294,8.6294,8.6294,8.6294,8.6294,8.6294,8.6294,8.6282,8.6294,8.6294,8.6294,8.6294,8.6122,8.5708,8.5279,8.5023,8.4883,8.4183,8.3241,9.6722,9.6722,9.6722,9.6722,9.6722,9.6722,9.6722,9.6722,9.6722,9.6722,9.6722,9.6722,9.6722,9.6722,9.6722,9.6722,9.6722,9.6722,9.6722,9.6722,9.6722,9.6436,9.6024,9.5545,9.5343,9.5545,9.527,9.5186,9.6054,9.6153,9.5846,9.5186,9.4286,9.4651,9.5337,9.5431,9.5524,9.5091,9.5101,9.4953,9.5133,9.5374,9.5755,9.6407,9.6589,9.6252,9.5524,9.5059,9.4745,9.4063,9.3838,9.3836,9.3508,9.2586,9.1149,9.0287,8.9254,8.7941,8.7846,8.7799,8.7937,8.826,8.7984,8.8088,8.8467,8.8398,8.8433,8.8467,8.8639,8.8364,8.795,8.7812,8.7812,8.7812,8.7812,8.7799,8.7803,8.7813,8.7713,8.7163,8.6984,8.6984,8.6984,8.7194,8.7414,8.7289,8.7163,8.6837,8.6536,8.6492,8.6457,8.6423,8.6376,8.6329,8.6329,8.6294,8.6294,8.6294,8.6294,8.6294,8.6294,8.6294,8.6294,8.6316,8.6304,8.6304,8.6316,8.6247,8.6081,8.6065,8.5946,8.5805,8.5849,8.4639,8.3203,9.6722,9.6722,9.6722,9.6722,9.6722,9.6722,9.6722,9.6722,9.6722,9.6722,9.6722,9.6722,9.6722,9.6722,9.6722,9.6722,9.6722,9.6722,9.6722,9.6608,9.6511,9.5987,9.5472,9.4949,9.4572,9.4097,9.3906,9.4231,9.507,9.4899,9.4856,9.4731,9.3691,9.3808,9.3946,9.3921,9.4144,9.415,9.4108,9.4097,9.4364,9.4724,9.528,9.5973,9.6318,9.5826,9.5238,9.4863,9.433,9.3815,9.3506,9.305,9.2409,9.1589,9.0663,8.9749,8.8855,8.8631,8.8605,8.8605,8.8984,8.9329,8.9053,8.8812,8.8846,8.9088,8.9157,8.9122,8.9157,8.8915,8.8652,8.8652,8.8618,8.8605,8.8605,8.8618,8.8622,8.8604,8.8517,8.834,8.8251,8.8191,8.8088,8.8182,8.807,8.797,8.7806,8.7576,8.7265,8.6994,8.6877,8.6633,8.6551,8.641,8.6376,8.6363,8.6294,8.6294,8.6294,8.6294,8.6294,8.6329,8.6294,8.6316,8.6278,8.6253,8.6169,8.6118,8.6033,8.5954,8.5454,8.5352,8.501,8.3756,8.2314,9.6722,9.6722,9.6722,9.6722,9.6722,9.6722,9.6722,9.6722,9.6722,9.6722,9.6722,9.6722,9.6722,9.6722,9.6722,9.6722,9.6722,9.6722,9.6722,9.6531,9.6084,9.5575,9.4831,9.3994,9.3574,9.3401,9.3309,9.3368,9.3909,9.3761,9.3699,9.3603,9.2823,9.2783,9.2806,9.2357,9.277,9.2978,9.2966,9.3097,9.3214,9.3377,9.4297,9.5186,9.5616,9.5091,9.4452,9.422,9.3459,9.2117,9.179,9.1588,9.2342,9.0992,8.9739,8.9031,8.8721,8.8777,8.926,8.9398,8.9674,9.0226,9.0144,9.0213,9.0178,9.0019,8.9985,8.9868,8.9799,8.9709,8.9467,8.9398,8.9398,8.9398,8.9398,8.9377,8.939,8.9364,8.9277,8.9027,8.8984,8.8984,8.895,8.8812,8.8712,8.8647,8.8553,8.8343,8.8054,8.7772,8.7461,8.7204,8.7059,8.7034,8.6617,8.6501,8.6398,8.6294,8.6514,8.6561,8.6457,8.6423,8.6329,8.6228,8.6099,8.6026,8.5992,8.5792,8.5373,8.4619,8.413,8.4208,8.3964,8.262,8.1462,9.6722,9.6722,9.6722,9.6722,9.6722,9.6722,9.6722,9.6722,9.6722,9.6722,9.6722,9.6722,9.6722,9.6722,9.6722,9.6722,9.6722,9.6722,9.6722,9.6446,9.5606,9.5048,9.4197,9.3215,9.2817,9.2741,9.2816,9.2987,9.3517,9.3693,9.3628,9.3789,9.2318,9.2452,9.2748,9.2574,9.234,9.2341,9.2231,9.207,9.2152,9.2289,9.3319,9.4275,9.4615,9.4119,9.3413,9.3285,9.2339,9.1066,9.0825,9.1014,9.1638,9.062,8.9838,8.9364,8.9502,8.973,9.0075,9.0144,9.0385,9.0627,9.0799,9.073,9.0696,9.0558,9.0592,9.0592,9.0627,9.0605,9.0364,9.0157,9.0144,9.0144,9.0144,9.0144,9.0139,9.0134,8.9919,8.964,8.9571,8.9605,8.9536,8.9433,8.9467,8.9666,8.9735,8.9635,8.9161,8.8631,8.8265,8.793,8.7877,8.7784,8.7332,8.7018,8.7156,8.7285,8.7474,8.7405,8.6956,8.6592,8.6516,8.6185,8.5827,8.56,8.531,8.4851,8.4358,8.3503,8.2586,8.2334,8.1982,8.1163,8.0138,9.6722,9.6722,9.6722,9.6722,9.6722,9.6722,9.6722,9.6722,9.6722,9.6722,9.6722,9.6722,9.6722,9.6722,9.6722,9.6722,9.6722,9.6722,9.6722,9.6589,9.5379,9.4583,9.3826,9.281,9.2399,9.2113,9.2314,9.2956,9.3993,9.4067,9.3872,9.4461,9.3428,9.3125,9.3229,9.2968,9.2788,9.2708,9.2196,9.1823,9.2075,9.2346,9.262,9.3471,9.3586,9.3297,9.2608,9.2179,9.1853,9.1183,9.0812,9.0852,9.083,9.0788,9.0308,9.0144,9.0247,9.042,9.0558,9.0592,9.0661,9.0765,9.0799,9.0799,9.0799,9.0799,9.0799,9.0799,9.0765,9.0765,9.0558,9.0489,9.0489,9.0489,9.0489,9.0489,9.051,9.0505,9.0428,9.0178,9.0178,9.0213,9.0213,9.0144,9.0075,9.0489,9.0558,9.0497,9.02,8.9528,8.9122,8.872,8.8678,8.857,8.8229,8.8019,8.8226,8.8402,8.8419,8.8073,8.747,8.708,8.6712,8.6357,8.5943,8.4939,8.4372,8.3781,8.2914,8.1795,8.0956,8.0381,7.9866,7.9462,7.9019,9.6722,9.6722,9.6722,9.6722,9.6722,9.6722,9.6722,9.6722,9.6722,9.6722,9.6722,9.6722,9.6759,9.6795,9.6722,9.6722,9.6795,9.6759,9.6722,9.6127,9.5089,9.4381,9.365,9.2803,9.2248,9.2222,9.2535,9.3181,9.3722,9.3796,9.3856,9.4258,9.3654,9.3516,9.393,9.362,9.333,9.3365,9.2901,9.2277,9.224,9.1723,9.16,9.2374,9.263,9.2617,9.2214,9.2191,9.1651,9.1014,9.0852,9.0799,9.0799,9.0799,9.073,9.0605,9.0661,9.0765,9.0799,9.0799,9.0799,9.0799,9.0799,9.0799,9.0799,9.0799,9.0799,9.0799,9.0799,9.0799,9.0799,9.0799,9.0799,9.0799,9.0799,9.0799,9.0799,9.0799,9.0799,9.0799,9.0799,9.0799,9.0799,9.0799,9.0799,9.0765,9.0765,9.0717,9.0683,9.026,8.9919,8.9568,8.946,8.9324,8.9036,8.8915,8.9088,8.8941,8.8855,8.8449,8.8015,8.7499,8.7041,8.6609,8.6077,8.4848,8.3546,8.2322,8.1343,8.0188,7.956,7.9095,7.8487,7.8019,7.7716,9.7419,9.774,9.7777,9.753,9.7273,9.7246,9.7236,9.7163,9.6869,9.6722,9.6722,9.6722,9.6869,9.7016,9.6906,9.6969,9.7043,9.6832,9.6684,9.6058,9.518,9.4534,9.37,9.305,9.3104,9.3102,9.3758,9.4185,9.402,9.4185,9.4537,9.4654,9.4275,9.424,9.4689,9.4309,9.4054,9.4158,9.3778,9.3365,9.2895,9.2346,9.1783,9.2281,9.2161,9.2069,9.166,9.1626,9.1329,9.097,9.0825,9.0799,9.0799,9.0799,9.0799,9.0765,9.0765,9.0799,9.0799,9.0799,9.0799,9.0799,9.0799,9.0799,9.0799,9.0799,9.0799,9.0799,9.0799,9.0799,9.0799,9.0799,9.0799,9.0799,9.0799,9.0799,9.0799,9.0799,9.0799,9.0799,9.0799,9.0799,9.0799,9.0799,9.0799,9.0799,9.0799,9.0738,9.0751,9.0691,9.0431,9.0249,9.0019,9.0063,8.998,8.9881,8.9834,8.9666,8.9321,8.889,8.8457,8.7844,8.7313,8.6799,8.5886,8.4378,8.3055,8.1568,7.9878,7.8581,7.8152,7.788,7.7312,7.6983,7.7067,9.8447,9.9061,9.9061,9.8704,9.8117,9.8053,9.8053,9.7933,9.7346,9.6979,9.6857,9.676,9.7156,9.7263,9.6944,9.7342,9.7251,9.6474,9.6307,9.6327,9.5329,9.4728,9.421,9.3763,9.3843,9.424,9.4861,9.5068,9.5103,9.5137,9.5103,9.5344,9.5413,9.5379,9.5413,9.5344,9.5172,9.4965,9.4723,9.4482,9.4068,9.3585,9.2811,9.2314,9.2054,9.1722,9.1239,9.0998,9.0985,9.0812,9.0799,9.0799,9.0799,9.0799,9.0799,9.0799,9.0799,9.0799,9.0799,9.0799,9.0799,9.0799,9.0799,9.0799,9.0799,9.0786,9.0786,9.0799,9.0799,9.0799,9.0799,9.0786,9.0786,9.0786,9.0786,9.0765,9.0765,9.076,9.0754,9.0754,9.0733,9.0733,9.0786,9.0786,9.0733,9.0746,9.0733,9.0712,9.063,9.0508,9.0318,9.0267,9.0182,9.0349,9.0609,9.0431,9.0219,9.0177,8.9796,8.9409,8.8959,8.844,8.7756,8.6839,8.5746,8.4176,8.2385,8.0774,7.9016,7.759,7.7375,7.7393,7.7246,7.6983,7.6983,9.8951,9.9098,9.9098,9.9025,9.8878,9.8878,9.8888,9.8851,9.8648,9.83,9.7525,9.6761,9.6678,9.6875,9.5905,9.6187,9.7254,9.6242,9.6599,9.699,9.5534,9.4877,9.4547,9.4319,9.4612,9.4965,9.5275,9.5344,9.5413,9.5413,9.5413,9.5413,9.5413,9.5413,9.5413,9.5413,9.5379,9.5275,9.5275,9.5068,9.471,9.4089,9.3192,9.2916,9.2882,9.2412,9.1998,9.1791,9.1399,9.1006,9.0799,9.0834,9.0868,9.0868,9.0799,9.0799,9.0799,9.0799,9.0799,9.0799,9.0799,9.0799,9.0799,9.0765,9.0751,9.076,9.0738,9.0751,9.0751,9.0773,9.0773,9.076,9.0746,9.0699,9.0699,9.0691,9.0704,9.0622,9.0544,9.055,9.0555,9.0635,9.0733,9.0675,9.0496,9.0456,9.0349,9.0307,9.0304,9.024,9.0198,9.0231,9.0275,9.0502,9.0659,9.046,9.0269,9.0357,9.0195,8.9635,8.9258,8.913,8.8385,8.7186,8.5573,8.3909,8.2095,8.0455,7.9047,7.7839,7.7297,7.7096,7.703,7.6983,7.6983]},{"header":{"parameterUnit":"m.s-1","parameterCategory":1,"la1":31.0,"la2":29.5877,"lo1":-88.7671,"lo2":-86.6584,"dy":0.0162,"dx":0.0185,"nx":115,"ny":88,"refTime":"2024-02-12T18:00:00:Z","depth":0,"parameterNumber":3,"parameterNumberName":"V-component_of_WINDS"},"data":[0.0,0.0,0.0,0.0,0.0,0.0,0.0,0.0,0.0,0.0,0.0,0.0,0.0,0.0,0.0,0.0,0.0,0.0,0.0,0.0,0.0,0.0,0.0,0.0,0.0,0.0,0.0,0.0,0.0,0.0,0.0,0.0,0.0,0.0,0.0,0.0,0.0,0.0,0.0,0.0,0.0,0.0,0.0,0.0,0.0,0.0,0.0,0.0,0.0,0.0,0.0,0.0,0.0,0.0,0.0,0.0,0.0,0.0,0.0,0.0,0.0,0.0,0.0,0.0,0.0,0.0,0.0,0.0,0.0,0.0,0.0,0.0,0.0,0.0,0.0,0.0,0.0,0.0,0.0,0.0,0.0,0.0,0.0,0.0,0.0,0.0,0.0,0.0,0.0,0.0,0.0,0.0,0.0,0.0,0.0,0.0,0.0,0.0,0.0,0.0,0.0,0.0,0.0,0.0,0.0,0.0,0.0,0.0,0.0,0.0,0.0,0.0,0.0,0.0,0.0,0.0,0.0,0.0,0.0,0.0,0.0,0.0,0.0,0.0,0.0,0.0,0.0,0.0,0.0,0.0,0.0,0.0,0.0,0.0,0.0,0.0,0.0,0.0,0.0,0.0,0.0,0.0,0.0,0.0,0.0,0.0,0.0,0.0,0.0,0.0,0.0,0.0,0.0,0.0,0.0,0.0,0.0,0.0,0.0,0.0,0.0,0.0,0.0,0.0,0.0,0.0,0.0,0.0,0.0,0.0,0.0,0.0,0.0,0.0,0.0,0.0,0.0,0.0,0.0,0.0,0.0,0.0,0.0,0.0,0.0,0.0,0.0,0.0,0.0,0.0,0.0,0.0,0.0,0.0,0.0,0.0,0.0,0.0,0.0,0.0,0.0,0.0,0.0,0.0,0.0,0.0,0.0,0.0,0.0,0.0,0.0,0.0,0.0,0.0,0.0,0.0,0.0,0.0,0.0,0.0,0.0,0.0,0.0,0.0,0.0,0.0,0.0,0.0,0.0,0.0,0.0,0.0,0.0,0.0,0.0,0.0,0.0,0.0,0.0,0.0,0.0,0.0,0.0,0.0,0.0,0.0,0.0,0.0,0.0,0.0,0.0,0.0,0.0,0.0,0.0,0.0,0.0,0.0,0.0,0.0,0.0,0.0,0.0,0.0,0.0,0.0,0.0,0.0,0.0,0.0,0.0,0.0,0.0,0.0,0.0,0.0,0.0,0.0,0.0,0.0,0.0,0.0,0.0,0.0,0.0,0.0,0.0,0.0,0.0,0.0,0.0,0.0,0.0,0.0,0.0,0.0,0.0,0.0,0.0,0.0,0.0,0.0,0.0,0.0,0.0,0.0,0.0,0.0,0.0,0.0,0.0,0.0,0.0,0.0,0.0,0.0,0.0,0.0,0.0,0.0,0.0,0.0,0.0,0.0,0.0,0.0,0.0,0.0,0.0,0.0,0.0,0.0,0.0,0.0,0.0,0.0,0.0,0.0,0.0,0.0,0.0,0.0,0.0,0.0,0.0,0.0,0.0,0.0,0.0,0.0,0.0,0.0,0.0,0.0,0.0,0.0,0.0,0.0,0.0,0.0,0.0,0.0,0.0,0.0,0.0,0.0,0.0,0.0,0.0,0.0,0.0,0.0,0.0,0.0,0.0,0.0,0.0,0.0,0.0,0.0,0.0,0.0,0.0,0.0,0.0,0.0,0.0,0.0,0.0,0.0,0.0,0.0,0.0,0.0,0.0,0.0,0.0,0.0,0.0,0.0,0.0,0.0,0.0,0.0,0.0,0.0,0.0,0.0,0.0,0.0,0.0,0.0,0.0,0.0,0.0,0.0,0.0,0.0,0.0,0.0,0.0,0.0,0.0,0.0,0.0,0.0,0.0,0.0,0.0,0.0,0.0,0.0,0.0,0.0,0.0,0.0,0.0,0.0,0.0,0.0,0.0,0.0,0.0,0.0,0.0,0.0,0.0,0.0,0.0,0.0,0.0,0.0,0.0,0.0,0.0,0.0,0.0,0.0,0.0,0.0,0.0,0.0,0.0,0.0,0.0,0.0,0.0,0.0,0.0,0.0,0.0,0.0,0.0,0.0,0.0,0.0,0.0,0.0,0.0,0.0,0.0,0.0,0.0,0.0,0.0,0.0,0.0,0.0,0.0,0.0,0.0,0.0,0.0,0.0,0.0,0.0,0.0,0.0,0.0,0.0,0.0,0.0,0.0,0.0,0.0,0.0,0.0,0.0,0.0,0.0,0.0,0.0,0.0,0.0,0.0,0.0,0.0,0.0,0.0,0.0,0.0,0.0,0.0,0.0,0.0,0.0,0.0,0.0,0.0,0.0,0.0,0.0,0.0,0.0,0.0,0.0,0.0,0.0,0.0,0.0,0.0,0.0,0.0,0.0,0.0,0.0,0.0,0.0,0.0,0.0,0.0,0.0,0.0,0.0,0.0,0.0,0.0,0.0,0.0,0.0,0.0,0.0,0.0,0.0,0.0,0.0,0.0,0.0,0.0,0.0,0.0,0.0,0.0,0.0,0.0,0.0,0.0,0.0,0.0,0.0,0.0,0.0,0.0,0.0,0.0,0.0,0.0,0.0,0.0,0.0,0.0,0.0,0.0,0.0,0.0,0.0,0.0,0.0,0.0,0.0,0.0,0.0,0.0,0.0,0.0,0.0,0.0,0.0,0.0,0.0,0.0,0.0,0.0,0.0,0.0,0.0,0.0,0.0,0.0,0.0,0.0,0.0,0.0,0.0,0.0,0.0,0.0,0.0,0.0,0.0,0.0,0.0,0.0,0.0,0.0,0.0,0.0,0.0,0.0,0.0,0.0,0.0,0.0,0.0,0.0,0.0,0.0,0.0,0.0,0.0,0.0,0.0,0.0,0.0,0.0,0.0,0.0,0.0,0.0,0.0,0.0,0.0,0.0,0.0,0.0,0.0,0.0,0.0,0.0,0.0,0.0,0.0,0.0,0.0,0.0,0.0,0.0,0.0,0.0,0.0,0.0,0.0,0.0,0.0,0.0,0.0,0.0,0.0,0.0,0.0,0.0,0.0,0.0,0.0,0.0,0.0,0.0,0.0,0.0,0.0,0.0,0.0,0.0,0.0,0.0,0.0,0.0,0.0,0.0,0.0,0.0,0.0,0.0,0.0,0.0,0.0,0.0,0.0,0.0,0.0,0.0,0.0,0.0,0.0,0.0,0.0,0.0,0.0,0.0,0.0,0.0,0.0,0.0,0.0,0.0,0.0,0.0,0.0,0.0,0.0,0.0,0.0,0.0,0.0,0.0,0.0,0.0,0.0,0.0,0.0,0.0,0.0,0.0,0.0,0.0,0.0,0.0,0.0,0.0,0.0,0.0,0.0,0.0,0.0,0.0,0.0,0.0,0.0,0.0,0.0,0.0,0.0,0.0,0.0,0.0,0.0,0.0,0.0,0.0,0.0,0.0,0.0,0.0,0.0,0.0,0.0,0.0,0.0,0.0,0.0,0.0,0.0,0.0,0.0,0.0,0.0,0.0,0.0,0.0,0.0,0.0,0.0,0.0,0.0,0.0,0.0,0.0,0.0,0.0,0.0,0.0,0.0,0.0,0.0,0.0,0.0,0.0,0.0,0.0,0.0,0.0,0.0,0.0,0.0,0.0,0.0,0.0,0.0,0.0,0.0,0.0,0.0,0.0,0.0,0.0,0.0,0.0,0.0,0.0,0.0,0.0,0.0,0.0,0.0,0.0,0.0,0.0,0.0,0.0,0.0,0.0,0.0,0.0,0.0,0.0,0.0,0.0,0.0,0.0,0.0,0.0,0.0,0.0,0.0,0.0,0.0,0.0,0.0,0.0,0.0,0.0,0.0,0.0,0.0,0.0,0.0,0.0,0.0,0.0,0.0,0.0,0.0,0.0,0.0,0.0,0.0,0.0,0.0,0.0,0.0,0.0,0.0,0.0,0.0,0.0,0.0,0.0,0.0,0.0,0.0,0.0,0.0,0.0,0.0,0.0,0.0,0.0,0.0,0.0,0.0,0.0,0.0,0.0,0.0,0.0,0.0,0.0,0.0,0.0,0.0,0.0,0.0,0.0,0.0,0.0,0.0,0.0,0.0,0.0,0.0,0.0,0.0,0.0,0.0,0.0,0.0,0.0,0.0,0.0,0.0,0.0,0.0,0.0,0.0,0.0,0.0,0.0,0.0,0.0,0.0,0.0,0.0,0.0,0.0,0.0,0.0,0.0,0.0,0.0,0.0,0.0,0.0,0.0,0.0,0.0,0.0,1.0402,0.0,0.0,0.0,0.0,0.0,0.0,0.0,0.0,0.0,0.0,0.0,0.0,0.0,0.0,0.0,0.0,0.0,0.0,0.0,0.0,0.0,0.0,0.0,0.0,0.0,0.0,0.0,0.0,0.0,0.0,0.0,0.0,0.0,0.0,0.0,0.0,0.0,0.0,0.0,0.0,0.0,0.0,0.0,0.0,0.0,0.0,0.0,0.0,0.0,0.0,0.0,0.0,0.0,0.0,0.0,0.0,0.0,0.0,0.0,0.0,0.0,0.0,0.0,0.0,0.0,0.0,0.0,0.0,0.0,0.0,0.0,0.0,0.0,0.0,0.0,0.0,0.0,0.0,0.0,0.0,0.0,0.0,0.0,0.0,0.0,0.0,0.0,0.0,0.0,0.0,0.0,0.0,0.0,0.0,0.0,0.0,0.0,0.0,0.0,0.0,0.0,0.0,0.0,0.0,0.0,0.0,0.0,0.0,0.0,0.0,1.0633,1.0701,1.0535,1.0535,1.0668,0.0,0.0,0.0,0.0,0.0,0.0,0.0,0.0,0.0,0.0,0.0,0.0,0.0,0.0,0.0,0.0,0.0,0.0,0.0,0.0,0.0,0.0,0.0,0.0,0.0,0.0,0.0,0.0,0.0,0.0,0.0,0.0,0.0,0.0,0.0,0.0,0.0,0.0,0.0,0.0,0.0,0.0,0.0,0.0,0.0,0.0,0.0,0.0,0.0,0.0,0.0,0.0,0.0,0.0,0.0,0.0,0.0,0.0,0.0,0.0,0.0,0.0,0.0,0.0,0.0,0.0,0.0,0.0,0.0,0.0,0.0,0.0,0.0,0.0,0.0,0.0,0.0,0.0,0.0,0.0,0.0,0.0,0.0,0.0,0.0,0.0,0.0,0.0,0.0,0.0,0.0,0.0,0.0,0.0,0.0,0.0,0.0,0.0,0.0,0.0,0.0,0.0,0.0,0.0,0.0,0.0,0.0,0.0,0.0,0.0,0.0,0.0,1.0717,1.0717,1.0668,0.0,0.0,0.0,0.0,0.0,0.0,0.0,0.0,0.0,0.0,0.0,0.0,0.0,0.0,0.0,0.0,0.0,0.0,0.0,0.0,0.0,0.0,0.0,0.0,0.0,0.0,0.0,0.0,0.0,0.0,0.0,0.0,0.0,0.0,0.0,0.0,0.0,0.0,0.0,0.0,0.0,0.0,0.0,0.0,0.0,0.0,0.0,0.0,0.0,0.0,0.0,0.0,0.0,0.0,0.0,0.0,0.0,0.0,0.0,0.0,0.0,0.0,0.0,0.0,0.0,0.0,0.0,0.0,0.0,0.0,0.0,0.0,0.0,0.0,0.0,0.0,0.0,0.0,0.0,0.0,0.0,0.0,0.0,0.0,0.0,0.0,0.0,0.0,0.0,0.0,0.0,0.0,0.0,0.0,0.0,0.0,0.0,0.0,0.0,0.0,0.0,0.0,0.0,0.0,0.0,0.0,0.0,0.0,0.0,0.0,1.0717,1.0717,1.0717,0.0,1.0694,0.0,0.0,0.0,0.0,0.0,0.0,0.0,0.0,0.0,0.0,0.0,0.0,0.0,0.0,0.0,0.0,0.0,0.0,0.0,0.0,0.0,0.0,0.0,0.0,0.0,0.0,0.0,0.0,0.0,0.0,0.0,0.0,0.0,0.0,0.0,0.0,0.0,0.0,0.0,0.0,0.0,0.0,0.0,0.0,0.0,0.0,0.0,0.0,0.0,0.0,0.0,0.0,0.0,0.0,0.0,0.0,0.0,0.0,0.0,0.0,0.0,0.0,0.0,0.0,0.0,0.0,0.0,0.0,0.0,0.0,0.0,0.0,0.0,0.0,0.0,0.0,0.0,0.0,0.0,0.0,0.0,0.0,0.0,0.0,0.0,0.0,0.0,0.0,0.0,0.0,0.0,0.0,0.0,0.0,0.0,0.0,0.0,0.0,0.0,0.0,0.0,0.0,0.0,0.0,0.0,0.0,0.0,0.0,0.0,0.0,1.0717,1.0717,1.0717,1.0717,0.0,0.0,0.0,0.0,0.0,0.0,0.0,0.0,0.0,0.0,0.0,0.0,0.0,0.0,0.0,0.0,0.0,0.0,0.0,0.0,0.0,0.0,0.0,0.0,0.0,0.0,0.0,0.0,0.0,0.0,0.0,0.0,0.0,0.0,0.0,0.0,0.0,0.0,0.0,0.0,0.0,0.0,0.0,0.0,0.0,0.0,0.0,0.0,0.0,0.0,0.0,0.0,0.0,0.0,0.0,0.0,0.0,0.0,0.0,0.0,0.0,0.0,0.0,0.0,0.0,0.0,0.0,0.0,0.0,0.0,0.0,0.0,0.0,0.0,0.0,0.0,0.0,0.0,0.0,0.0,0.0,0.0,0.0,0.0,0.0,0.0,0.0,0.0,0.0,0.0,0.0,0.0,0.0,0.0,0.0,0.0,0.0,0.0,0.0,0.0,0.0,0.0,0.0,0.0,0.0,0.0,0.0,0.0,0.0,0.0,1.0748,1.0768,1.0745,1.0711,1.0717,1.0717,0.0,0.0,0.0,0.0,0.0,0.0,0.0,0.0,0.0,0.0,0.0,0.0,0.0,0.0,0.0,0.0,0.0,0.0,0.0,0.0,0.0,0.0,0.0,0.0,0.0,0.0,0.0,0.0,0.0,0.0,0.0,0.0,0.0,0.0,0.0,0.0,0.0,0.0,0.0,0.0,0.0,0.0,0.0,0.0,0.0,0.0,0.0,0.0,0.0,0.0,0.0,0.0,0.0,0.0,0.0,0.0,0.0,0.0,0.0,0.0,0.0,0.0,0.0,0.0,0.0,0.0,0.0,0.0,0.0,0.0,0.0,0.0,0.0,0.0,0.0,0.0,0.0,0.0,0.0,0.0,0.0,0.0,0.0,0.0,0.0,0.0,0.0,0.0,0.0,0.0,0.0,0.0,0.0,0.0,0.0,0.0,0.0,0.0,0.0,0.0,0.0,0.0,0.0,0.0,0.0,0.0,0.0,0.0,1.0714,1.0833,1.0884,1.0901,1.0782,1.0701,0.0,0.0,0.0,0.0,0.0,0.0,0.0,0.0,0.0,0.0,0.0,0.0,0.0,0.0,0.0,0.0,0.0,0.0,0.0,0.0,0.0,0.0,0.0,0.0,0.0,0.0,0.0,0.0,0.0,0.0,0.0,0.0,0.0,0.0,0.0,0.0,0.0,0.0,0.0,0.0,0.0,0.0,0.0,0.0,0.0,0.0,0.0,0.0,0.0,0.0,0.0,0.0,0.0,0.0,0.0,0.0,0.0,0.0,0.0,0.0,0.0,0.0,0.0,0.0,0.0,0.0,0.0,0.0,0.0,0.0,0.0,0.0,0.0,0.0,0.0,0.0,0.0,0.0,0.0,0.0,0.0,0.0,0.0,0.0,0.0,0.0,0.0,0.0,0.0,0.0,0.0,0.0,0.0,0.0,0.0,0.0,0.0,0.0,0.0,0.0,0.0,0.0,0.0,0.0,0.0,0.0,0.0,0.0,0.0,1.1019,1.1074,1.1084,1.1101,1.0924,1.0833,0.0,0.0,0.0,0.0,0.0,0.0,0.0,0.0,0.0,0.0,0.0,0.0,0.0,0.0,0.0,0.0,0.0,0.0,0.0,0.0,0.0,0.0,0.0,0.0,0.0,0.0,0.0,0.0,0.0,0.0,0.0,0.0,0.0,0.0,0.0,0.0,0.0,0.0,0.0,0.0,0.0,0.0,0.0,0.0,0.0,0.0,0.0,0.0,0.0,0.0,0.0,0.0,0.0,0.0,0.0,0.0,0.0,0.0,0.0,0.0,0.0,0.0,0.0,0.0,0.0,0.0,0.0,0.0,0.0,0.0,0.0,0.0,0.0,0.0,0.0,0.0,0.0,0.0,0.0,0.0,0.0,0.0,0.0,0.0,0.0,0.0,0.0,0.0,0.0,0.0,0.0,0.0,0.0,0.0,0.0,0.0,0.0,0.0,0.0,0.0,0.0,0.0,0.0,0.0,0.0,0.0,0.0,0.0,0.0,1.1261,0.0,1.1237,1.1243,1.1097,1.0982,0.0,0.0,0.0,0.0,0.0,0.0,0.0,0.0,0.0,0.0,0.0,0.0,0.0,0.0,0.0,0.0,0.0,0.0,0.0,0.0,0.0,0.0,0.0,0.0,0.0,0.0,0.0,0.0,0.0,0.0,0.0,0.0,0.0,0.0,0.0,0.0,0.0,0.0,0.0,0.0,0.0,0.0,0.0,0.0,0.0,0.0,0.0,0.0,0.0,0.0,0.0,0.0,0.0,0.0,0.0,0.0,0.0,0.0,0.0,0.0,0.0,0.0,0.0,0.0,0.0,0.0,0.0,0.0,0.0,0.0,0.0,0.0,0.0,0.0,0.0,0.0,0.0,0.0,0.0,0.0,0.0,0.0,0.0,0.0,0.0,0.0,0.0,0.0,0.0,0.0,0.0,0.0,0.0,0.0,0.0,0.0,0.0,0.0,0.0,0.0,0.0,0.0,0.0,0.0,0.0,0.0,0.0,0.0,1.1264,1.14,1.1277,1.1291,1.1382,1.1271,1.12,0.0,0.0,0.0,0.0,0.0,0.0,0.0,0.0,0.0,0.0,0.0,0.0,0.0,0.0,0.0,0.0,0.0,0.0,0.0,0.0,0.0,0.0,0.0,0.0,0.0,0.0,0.0,0.0,0.0,0.0,0.0,0.0,0.0,0.0,0.0,0.0,0.0,0.0,0.0,0.0,0.0,0.0,0.0,0.0,0.0,0.0,0.0,0.0,0.0,0.0,0.0,0.0,0.0,0.0,0.0,0.0,0.0,0.0,0.0,0.0,0.0,0.0,0.0,0.0,0.0,0.0,0.0,0.0,0.0,0.0,0.0,0.0,0.0,0.0,0.0,0.0,0.0,0.0,0.0,0.0,0.0,0.0,0.0,0.0,0.0,0.0,0.0,0.0,0.0,0.0,0.0,0.0,0.0,0.0,0.0,0.0,0.0,0.0,0.0,0.0,0.0,0.0,0.0,0.0,0.0,0.0,0.0,0.0,0.0,1.1676,1.1767,1.1773,1.1676,1.1552,1.143,0.0,0.0,0.0,0.0,0.0,0.0,0.0,0.0,0.0,0.0,0.0,0.0,0.0,0.0,0.0,0.0,0.0,0.0,0.0,0.0,0.0,0.0,0.0,0.0,0.0,0.0,0.0,0.0,0.0,0.0,0.0,0.0,0.0,0.0,0.0,0.0,0.0,0.0,0.0,0.0,0.0,0.0,0.0,0.0,0.0,0.0,0.0,0.0,0.0,0.0,0.0,0.0,0.0,0.0,0.0,0.0,0.0,0.0,0.0,0.0,0.0,0.0,0.0,0.0,0.0,0.0,0.0,0.0,0.0,0.0,0.0,0.0,0.0,0.0,0.0,0.0,0.0,0.0,0.0,0.0,0.0,0.0,0.0,0.0,0.0,0.0,0.0,0.0,0.0,0.0,0.0,0.0,0.0,0.0,0.0,0.0,0.0,0.0,0.0,0.0,0.0,0.0,0.0,0.0,0.0,0.0,0.0,0.0,0.0,1.2062,1.2086,1.2065,1.1988,1.1857,1.1696,1.1541,0.0,0.0,0.0,0.0,0.0,0.0,0.0,0.0,0.0,0.0,0.0,0.0,0.0,0.0,0.0,0.0,0.0,0.0,0.0,0.0,0.0,0.0,0.0,0.0,0.0,0.0,0.0,0.0,0.0,0.0,0.0,0.0,0.0,0.0,0.0,0.0,0.0,0.0,0.0,0.0,0.0,0.0,0.0,0.0,0.0,0.0,0.0,0.0,0.0,0.0,0.0,0.0,0.0,0.0,0.0,0.0,0.0,0.0,0.0,0.0,0.0,0.0,0.0,0.0,0.0,0.0,0.0,0.0,0.0,0.0,0.0,0.0,0.0,0.0,0.0,0.0,0.0,0.0,0.0,0.0,0.0,0.0,0.0,0.0,0.0,0.0,0.0,0.0,0.0,0.0,0.0,0.0,0.0,0.0,0.0,0.0,0.0,0.0,0.0,0.0,0.0,0.0,0.0,0.0,0.0,0.0,0.0,0.0,1.2535,1.2276,1.222,1.2305,1.2174,1.2018,0.0,0.0,0.0,0.0,0.0,0.0,0.0,0.0,0.0,0.0,0.0,0.0,0.0,0.0,0.0,0.0,0.0,0.0,0.0,0.0,0.0,0.0,0.0,0.0,0.0,0.0,0.0,0.0,0.0,0.0,0.0,0.0,0.0,0.0,0.0,0.0,0.0,0.0,0.0,0.0,0.0,0.0,0.0,0.0,0.0,0.0,0.0,0.0,0.0,0.0,0.0,0.0,0.0,0.0,0.0,0.0,0.0,0.0,0.0,0.0,0.0,0.0,0.0,0.0,0.0,0.0,0.0,0.0,0.0,0.0,0.0,0.0,0.0,0.0,0.0,0.0,0.0,0.0,0.0,0.0,0.0,0.0,0.0,0.0,0.0,0.0,0.0,0.0,0.0,0.0,0.0,0.0,0.0,0.0,0.0,0.0,0.0,0.0,0.0,0.0,0.0,0.0,0.0,0.0,0.0,0.0,0.0,0.0,0.0,1.2996,1.286,1.2711,1.2597,1.2366,1.2181,0.0,0.0,0.0,0.0,0.0,0.0,0.0,0.0,0.0,0.0,0.0,0.0,0.0,0.0,0.0,0.0,0.0,0.0,0.0,0.0,0.0,0.0,0.0,0.0,0.0,0.0,0.0,0.0,0.0,0.0,0.0,0.0,0.0,0.0,0.0,0.0,0.0,0.0,0.0,0.0,0.0,0.0,0.0,0.0,0.0,0.0,0.0,0.0,0.0,0.0,0.0,0.0,0.0,0.0,0.0,0.0,0.0,0.0,0.0,0.0,0.0,0.0,0.0,0.0,0.0,0.0,0.0,0.0,0.0,0.0,0.0,0.0,0.0,0.0,0.0,0.0,0.0,0.0,0.0,0.0,0.0,0.0,0.0,0.0,0.0,0.0,0.0,0.0,0.0,0.0,0.0,0.0,0.0,0.0,0.0,0.0,0.0,0.0,0.0,0.0,0.0,0.0,0.0,0.0,0.0,0.0,0.0,0.0,1.284,1.3098,1.3105,1.3057,1.299,1.2664,1.24,0.0,0.0,0.0,0.0,0.0,0.0,0.0,0.0,0.0,0.0,0.0,0.0,0.0,0.0,0.0,0.0,0.0,0.0,0.0,0.0,0.0,0.0,0.0,0.0,0.0,0.0,0.0,0.0,0.0,0.0,0.0,0.0,0.0,0.0,0.0,0.0,0.0,0.0,0.0,0.0,0.0,0.0,0.0,0.0,0.0,0.0,0.0,0.0,0.0,0.0,0.0,0.0,0.0,0.0,0.0,0.0,0.0,0.0,0.0,0.0,0.0,0.0,0.0,0.0,0.0,0.0,0.0,0.0,0.0,0.0,0.0,0.0,0.0,0.0,0.0,0.0,0.0,0.0,0.0,0.0,0.0,0.0,0.0,0.0,0.0,0.0,0.0,0.0,0.0,0.0,0.0,0.0,0.0,0.0,0.0,0.0,0.0,0.0,0.0,0.0,0.0,0.0,0.0,0.0,0.0,0.0,0.0,0.0,1.303,1.305,1.3173,1.3282,1.3383,1.2963,1.2665,0.0,0.0,0.0,0.0,0.0,0.0,0.0,0.0,0.0,0.0,0.0,0.0,0.0,0.0,0.0,0.0,0.0,0.0,0.0,0.0,0.0,0.0,0.0,0.0,0.0,0.0,0.0,0.0,0.0,0.0,0.0,0.0,0.0,0.0,0.0,0.0,0.0,0.0,0.0,0.0,0.0,0.0,0.0,0.0,0.0,0.0,0.0,0.0,0.0,0.0,0.0,0.0,0.0,0.0,0.0,0.0,0.0,0.0,0.0,0.0,0.0,0.0,0.0,0.0,0.0,0.0,0.0,0.0,0.0,0.0,0.0,0.0,0.0,0.0,0.0,0.0,0.0,0.0,0.0,0.0,0.0,0.0,0.0,0.0,0.0,0.0,0.0,0.0,0.0,0.0,0.0,0.0,0.0,0.0,0.0,0.0,0.0,0.0,0.0,0.0,0.0,0.0,0.0,0.0,0.0,0.0,0.0,0.0,1.3207,1.3329,1.3336,1.337,1.3397,1.3105,1.284,0.0,0.0,0.0,0.0,0.0,0.0,0.0,0.0,0.0,0.0,0.0,0.0,0.0,0.0,0.0,0.0,0.0,0.0,0.0,0.0,0.0,0.0,0.0,0.0,0.0,0.0,0.0,0.0,0.0,0.0,0.0,0.0,0.0,0.0,0.0,0.0,0.0,0.0,0.0,0.0,0.0,0.0,0.0,0.0,0.0,0.0,0.0,0.0,1.0473,0.0,0.0,0.0,0.0,0.0,0.0,0.0,0.0,0.0,0.0,0.0,0.0,0.0,0.0,0.0,0.0,0.0,0.0,0.0,0.0,0.0,0.0,0.0,0.0,0.0,0.0,0.0,0.0,0.0,0.0,0.0,0.0,0.0,0.0,0.0,0.0,0.0,0.0,0.0,0.0,0.0,0.0,0.0,0.0,0.0,0.0,0.0,0.0,0.0,0.0,0.0,0.0,0.0,0.0,0.0,0.0,0.0,0.0,0.0,1.3254,1.3309,1.3363,1.3397,1.3397,1.3247,1.3084,0.0,0.0,0.0,0.0,0.0,0.0,0.0,0.0,0.0,0.0,0.0,0.0,0.0,0.0,0.0,0.0,0.0,0.0,0.0,0.0,0.0,0.0,0.0,0.0,0.0,0.0,0.0,0.0,0.0,0.0,0.0,0.0,0.0,0.0,0.0,0.0,0.0,0.0,0.0,0.0,0.0,0.0,0.0,0.0,0.0,0.0,0.0,0.0,0.0,0.0,0.0,0.0,0.0,0.0,0.0,0.0,0.0,0.0,0.0,0.0,0.0,0.0,0.0,0.0,0.0,0.0,0.0,0.0,0.0,0.0,0.0,0.0,0.0,0.0,0.0,0.0,0.0,0.0,0.0,0.0,0.0,0.0,0.0,0.0,0.0,0.0,0.0,0.0,0.0,0.0,0.0,0.0,0.0,0.0,0.0,0.0,0.0,0.0,0.0,0.0,0.0,0.0,0.0,0.0,0.0,0.0,0.0,1.3105,1.3275,1.3302,1.3383,1.3444,1.3444,1.3424,1.3302,1.3077,0.0,0.0,0.0,0.0,0.0,0.0,0.0,0.0,0.0,0.0,0.0,0.0,0.0,0.0,0.0,0.0,0.0,0.0,0.0,0.0,0.0,0.0,0.0,0.0,0.0,0.0,0.0,0.0,0.0,0.0,0.0,0.0,0.0,0.0,0.0,0.0,0.0,0.0,1.047,1.0157,0.0,0.0,0.0,0.0,0.0,0.0,0.0,0.0,1.066,0.0,0.0,0.0,0.0,0.0,0.0,0.0,0.0,0.0,0.0,0.0,0.0,0.0,0.0,0.0,0.0,0.0,0.0,0.0,0.0,0.0,0.0,0.0,0.0,0.0,0.0,0.0,0.0,0.0,0.0,0.0,0.0,0.0,0.0,0.0,0.0,0.0,0.0,0.0,0.0,0.0,0.0,0.0,0.0,0.0,0.0,0.0,0.0,0.0,0.0,0.0,0.0,0.0,0.0,0.0,0.0,1.3288,1.3464,1.3593,1.368,1.362,1.3627,1.3714,1.3532,1.3376,1.3315,0.0,0.0,0.0,0.0,0.0,0.0,0.0,0.0,0.0,0.0,0.0,0.0,0.0,0.0,0.0,0.0,0.0,0.0,0.0,0.0,0.0,0.0,0.0,0.0,0.0,0.0,0.0,0.0,0.0,0.0,0.0,0.0,0.0,0.0,0.0,0.0,0.0,0.0,0.0,1.0451,1.0595,0.0,0.0,0.0,0.0,0.0,0.0,0.0,0.0,1.0833,0.0,0.0,0.0,0.0,0.0,0.0,0.0,0.0,0.0,0.0,0.0,0.0,0.0,0.0,0.0,0.0,0.0,0.0,0.0,0.0,0.0,0.0,0.0,0.0,0.0,0.0,0.0,0.0,0.0,0.0,0.0,0.0,0.0,0.0,0.0,0.0,0.0,0.0,0.0,0.0,0.0,0.0,0.0,0.0,0.0,0.0,0.0,0.0,0.0,0.0,0.0,0.0,0.0,0.0,0.0,1.339,1.3532,1.3653,1.3788,1.3727,1.3727,1.3795,1.3585,1.3485,0.0,0.0,0.0,0.0,0.0,0.0,0.0,0.0,0.0,0.0,0.0,0.0,0.0,0.0,0.0,0.0,0.0,0.0,0.0,0.0,0.0,0.0,0.0,0.0,0.0,0.0,0.0,0.0,0.0,0.0,0.0,0.0,0.0,0.0,0.0,0.0,0.0,0.0,0.0,0.0,1.0689,1.1005,1.1144,0.0,0.0,0.0,0.0,0.0,0.0,1.1206,1.1056,0.0,0.0,0.0,0.0,0.0,0.0,0.0,0.0,0.0,0.0,0.0,0.0,0.0,0.0,0.0,0.0,0.0,0.0,0.0,0.0,0.0,0.0,0.0,0.0,0.0,0.0,0.0,0.0,0.0,0.0,0.0,0.0,0.0,0.0,0.0,0.0,0.0,0.0,0.0,0.0,0.0,0.0,0.0,0.0,0.0,0.0,0.0,0.0,0.0,0.0,0.0,0.0,0.0,0.0,0.0,1.3485,1.362,1.3769,1.3883,1.3884,1.3877,1.3904,1.3715,1.3566,0.0,0.0,0.0,0.0,0.0,0.0,0.0,0.0,0.0,0.0,0.0,0.0,0.0,0.0,0.0,0.0,0.0,0.0,0.0,0.0,0.0,0.0,0.0,0.0,0.0,0.0,0.0,0.0,0.0,0.0,0.0,0.0,0.0,0.0,0.0,0.0,0.0,0.0,0.0,0.0,0.0,1.1374,1.1727,1.1568,0.0,0.0,0.0,0.0,1.1476,1.1352,0.0,0.0,0.0,0.0,0.0,0.0,0.0,0.0,0.0,0.0,0.0,0.0,0.0,0.0,0.0,0.0,0.0,0.0,0.0,0.0,0.0,0.0,0.0,0.0,0.0,0.0,0.0,0.0,0.0,0.0,0.0,0.0,0.0,0.0,0.0,0.0,0.0,0.0,0.0,0.0,0.0,0.0,0.0,0.0,0.0,0.0,0.0,0.0,0.0,0.0,0.0,0.0,0.0,0.0,0.0,0.0,1.3734,1.3946,1.4095,1.4231,1.4137,1.4109,1.4238,1.3823,1.366,0.0,0.0,0.0,0.0,0.0,0.0,0.0,0.0,0.0,0.0,0.0,0.0,0.0,0.0,0.0,0.0,0.0,0.0,0.0,0.0,0.0,0.0,0.0,0.0,0.0,0.0,0.0,0.0,0.0,0.0,0.0,0.0,0.0,0.0,0.0,0.0,0.0,0.0,0.0,0.0,0.0,1.1637,1.2292,1.2157,1.1901,0.0,0.0,1.1606,1.1577,1.1561,0.0,0.0,0.0,0.0,0.0,0.0,0.0,0.0,0.0,0.0,0.0,0.0,0.0,0.0,0.0,0.0,0.0,0.0,0.0,0.0,0.0,0.0,0.0,0.0,0.0,0.0,0.0,0.0,0.0,0.0,0.0,0.0,0.0,0.0,0.0,0.0,0.0,0.0,0.0,0.0,0.0,0.0,0.0,0.0,0.0,0.0,0.0,0.0,0.0,0.0,0.0,0.0,0.0,0.0,0.0,1.3457,1.3809,1.3994,1.4165,1.4292,1.4238,1.4231,1.4321,1.3918,1.3693,0.0,0.0,0.0,0.0,0.0,0.0,0.0,0.0,0.0,0.0,0.0,0.0,0.0,0.0,0.0,0.0,0.0,0.0,0.0,0.0,0.0,0.0,0.0,0.0,0.0,0.0,0.0,0.0,0.0,0.0,0.0,0.0,0.0,0.0,0.0,0.0,0.0,0.0,0.0,0.0,0.0,0.0,1.2418,1.2398,0.0,0.0,0.0,1.1831,1.1744,0.0,0.0,0.0,0.0,0.0,0.0,0.0,0.0,0.0,0.0,0.0,0.0,0.0,0.0,0.0,0.0,0.0,0.0,0.0,0.0,0.0,0.0,0.0,0.0,0.0,0.0,0.0,0.0,0.0,0.0,0.0,0.0,0.0,0.0,0.0,0.0,0.0,0.0,0.0,0.0,0.0,0.0,0.0,0.0,0.0,0.0,0.0,0.0,0.0,0.0,0.0,0.0,0.0,0.0,0.0,0.0,0.0,1.3795,1.4034,1.4205,1.4292,1.4321,1.4321,1.4314,1.3957,0.0,0.0,0.0,0.0,0.0,0.0,0.0,0.0,0.0,0.0,0.0,0.0,0.0,0.0,0.0,0.0,0.0,0.0,0.0,0.0,0.0,0.0,0.0,0.0,0.0,0.0,0.0,1.0619,0.0,0.0,0.0,0.0,0.0,0.0,0.0,0.0,0.0,0.0,0.0,0.0,0.0,0.0,1.1855,1.2229,1.2357,1.2416,0.0,0.0,1.2094,1.1845,1.1879,1.1825,0.0,0.0,0.0,0.0,0.0,0.0,0.0,0.0,0.0,0.0,0.0,0.0,0.0,0.0,0.0,0.0,0.0,0.0,0.0,0.0,0.0,0.0,0.0,0.0,0.0,0.0,0.0,0.0,0.0,0.0,0.0,0.0,0.0,0.0,0.0,0.0,0.0,0.0,0.0,0.0,0.0,0.0,0.0,0.0,0.0,0.0,0.0,0.0,0.0,0.0,0.0,0.0,0.0,0.0,1.3546,1.3795,1.4107,1.4285,1.4321,1.4321,1.4321,1.4292,1.3979,1.3795,0.0,0.0,0.0,0.0,0.0,0.0,0.0,0.0,0.0,0.0,0.0,0.0,0.0,0.0,0.0,0.0,0.0,0.0,0.0,0.0,0.0,0.0,0.0,0.0,0.0,0.0,0.0,0.0,0.0,0.0,0.0,0.0,0.0,0.0,0.0,0.0,0.0,0.0,0.0,0.0,0.0,1.1959,1.1702,1.1925,1.2206,0.0,1.2493,1.2325,1.1879,1.2055,1.2174,1.1832,0.0,0.0,0.0,0.0,0.0,0.0,0.0,0.0,0.0,0.0,0.0,0.0,0.0,0.0,0.0,0.0,0.0,0.0,0.0,0.0,0.0,0.0,0.0,0.0,0.0,0.0,0.0,0.0,0.0,0.0,0.0,0.0,0.0,0.0,0.0,0.0,0.0,0.0,0.0,0.0,0.0,0.0,0.0,0.0,0.0,0.0,0.0,0.0,0.0,0.0,0.0,0.0,0.0,1.3599,1.3802,1.4121,1.4321,1.4321,1.4321,1.4321,1.4321,1.4095,1.3877,0.0,0.0,0.0,0.0,0.0,0.0,0.0,0.0,0.0,0.0,0.0,0.0,0.0,0.0,0.0,0.0,0.0,0.0,0.0,0.0,0.0,0.0,0.0,0.0,0.0,0.0,0.0,0.0,1.068,1.0741,1.0711,0.0,0.0,0.0,0.0,0.0,0.0,0.0,0.0,0.0,0.0,1.2296,1.2436,1.2403,0.0,0.0,1.2741,1.2452,1.2265,1.2208,1.2127,1.2011,1.1829,0.0,0.0,0.0,0.0,0.0,0.0,0.0,0.0,0.0,0.0,0.0,0.0,0.0,0.0,0.0,0.0,0.0,0.0,0.0,0.0,0.0,0.0,0.0,0.0,0.0,0.0,0.0,0.0,0.0,0.0,0.0,0.0,0.0,0.0,0.0,0.0,0.0,0.0,0.0,0.0,0.0,0.0,0.0,0.0,0.0,0.0,0.0,0.0,0.0,0.0,0.0,0.0,1.37,1.3795,1.4162,1.436,1.4367,1.4407,1.4385,1.436,1.4239,1.4042,0.0,0.0,0.0,0.0,0.0,0.0,0.0,0.0,0.0,0.0,0.0,0.0,0.0,0.0,0.0,0.0,0.0,0.0,0.0,0.0,0.0,0.0,0.0,0.0,0.0,0.0,0.0,0.0,1.12,1.124,1.1047,0.0,0.0,0.0,0.0,0.0,0.0,0.0,0.0,0.0,0.0,1.2552,1.2939,1.2854,1.2915,1.3339,1.3272,1.3077,1.2817,1.276,1.2664,1.2367,0.0,0.0,0.0,0.0,0.0,0.0,0.0,0.0,0.0,0.0,0.0,0.0,0.0,0.0,0.0,0.0,0.0,0.0,0.0,0.0,0.0,0.0,0.0,0.0,0.0,0.0,0.0,1.2149,0.0,0.0,1.324,0.0,0.0,0.0,0.0,0.0,0.0,0.0,0.0,0.0,0.0,0.0,0.0,0.0,0.0,0.0,0.0,0.0,0.0,0.0,0.0,0.0,0.0,1.3816,1.3802,1.4263,1.4502,1.4509,1.4629,1.4629,1.4509,1.4367,1.4224,1.4076,0.0,0.0,0.0,0.0,0.0,0.0,0.0,0.0,0.0,0.0,0.0,0.0,0.0,0.0,0.0,0.0,0.0,0.0,0.0,0.0,0.0,0.0,0.0,0.0,0.0,0.0,1.2221,1.2278,1.2133,0.0,0.0,0.0,0.0,0.0,0.0,0.0,0.0,0.0,0.0,1.2858,1.2767,1.2983,1.322,1.3363,1.3397,1.4096,1.4358,1.3517,1.3872,1.3951,0.0,0.0,0.0,0.0,0.0,0.0,0.0,0.0,0.0,0.0,0.0,0.0,0.0,0.0,0.0,0.0,0.0,0.0,0.0,0.0,0.0,0.0,0.0,0.0,0.0,0.0,0.0,1.2407,1.3127,0.0,0.0,0.0,0.0,0.0,0.0,0.0,0.0,0.0,0.0,0.0,1.9701,2.0324,0.0,0.0,0.0,0.0,0.0,0.0,0.0,0.0,0.0,0.0,0.0,0.0,1.4137,1.4143,1.4387,1.4541,1.4636,1.4667,1.4667,1.462,1.4493,1.4326,1.4097,0.0,0.0,0.0,0.0,0.0,0.0,0.0,0.0,0.0,0.0,0.0,0.0,0.0,0.0,0.0,0.0,0.0,0.0,0.0,0.0,0.0,0.0,0.0,0.0,0.0,1.3156,0.0,0.0,0.0,0.0,0.0,0.0,0.0,0.0,0.0,0.0,0.0,1.4608,1.2919,1.3123,1.334,1.3044,1.3226,1.3466,0.0,0.0,0.0,0.0,0.0,0.0,0.0,0.0,0.0,0.0,0.0,0.0,0.0,0.0,2.2469,1.9859,1.9606,1.99,2.0175,0.0,0.0,0.0,0.0,0.0,0.0,0.0,0.0,0.0,0.0,0.0,0.0,0.0,0.0,1.3073,0.0,1.4113,0.0,0.0,0.0,0.0,0.0,0.0,0.0,0.0,2.0354,2.0838,2.1482,2.2096,2.2054,0.0,2.059,1.9389,0.0,0.0,0.0,0.0,0.0,0.0,0.0,0.0,1.4504,1.4321,1.4543,1.4719,1.4791,1.4846,1.4846,1.4791,1.4618,1.4373,1.4104,1.3885,1.362,0.0,0.0,0.0,0.0,0.0,0.0,0.0,0.0,0.0,0.0,0.0,0.0,0.0,0.0,0.0,0.0,0.0,0.0,0.0,0.0,0.0,0.0,0.0,1.497,0.0,0.0,0.0,0.0,0.0,0.0,0.0,0.0,0.0,1.4641,1.5237,1.51,1.331,1.3496,1.3716,1.3486,0.0,0.0,0.0,0.0,0.0,0.0,0.0,1.7217,1.736,1.6145,1.5704,1.7326,1.9315,2.1119,2.228,0.0,0.0,2.2229,2.2034,2.2377,2.2613,2.2664,2.2468,2.1809,2.1692,2.1608,0.0,0.0,0.0,0.0,0.0,0.0,0.0,0.0,1.3319,1.3931,0.0,1.4754,0.0,0.0,0.0,0.0,1.9967,1.9788,0.0,0.0,2.232,2.2107,2.1353,2.2966,2.2839,2.1131,1.9949,2.0147,2.1461,1.8913,0.0,0.0,0.0,0.0,0.0,0.0,1.4932,1.4362,1.4769,1.4993,1.5,1.5129,1.5129,1.498,1.4672,1.438,1.4124,1.4097,1.3886,1.3444,1.3295,0.0,0.0,0.0,0.0,0.0,0.0,0.0,0.0,0.0,0.0,0.0,0.0,0.0,0.0,0.0,0.0,0.0,0.0,0.0,0.0,1.7224,0.0,0.0,0.0,0.0,0.0,0.0,0.0,0.0,0.0,0.0,1.6078,1.5042,1.4323,1.4256,0.0,0.0,0.0,0.0,1.515,1.6433,1.6981,1.7506,1.801,1.8889,1.9566,1.9661,0.0,0.0,2.3669,2.3138,2.2942,2.4143,2.5505,2.588,2.4148,2.4083,2.4497,2.5061,2.4756,2.4424,2.4355,2.4235,2.4604,1.6449,0.0,0.0,0.0,0.0,1.6893,1.7124,1.7606,1.7492,1.7915,1.8693,1.8788,0.0,0.0,0.0,0.0,0.0,0.0,2.2158,2.3102,2.3316,2.3654,2.4151,2.4675,2.4632,2.413,2.3747,2.3173,2.2396,2.1586,2.0141,1.8177,0.0,0.0,0.0,0.0,1.5572,1.4663,1.4848,1.5041,1.512,1.5184,1.5065,1.4785,1.4697,1.4514,1.4245,1.4151,1.4036,1.39,1.3634,0.0,0.0,0.0,0.0,0.0,0.0,0.0,0.0,0.0,0.0,0.0,0.0,0.0,0.0,0.0,0.0,0.0,0.0,0.0,1.6666,1.7712,1.8357,0.0,0.0,0.0,0.0,0.0,0.0,0.0,0.0,0.0,1.8673,1.8161,1.7227,0.0,0.0,1.5728,1.529,1.4928,1.5695,1.8517,2.0149,0.0,2.0243,2.1053,2.1776,2.1802,2.2981,2.4554,2.6604,2.6686,2.6367,2.593,2.6467,2.6854,2.6446,2.6344,2.6476,2.663,2.6545,2.6299,2.5909,2.5788,2.5891,1.9198,1.8683,1.759,1.7898,1.9122,1.8971,1.877,1.8624,1.9222,1.9495,1.9516,2.006,2.0756,2.1512,2.1796,0.0,0.0,0.0,2.3626,2.4376,2.4354,2.4746,2.5369,2.5391,2.5391,2.5369,2.4695,2.4227,2.3887,2.2859,2.2122,2.1593,0.0,0.0,1.6968,1.7135,1.6445,1.492,1.4977,1.5116,1.5204,1.5204,1.5038,1.4708,1.4717,1.4552,1.4312,1.4233,1.4158,1.4097,1.3899,1.3641,0.0,0.0,0.0,0.0,0.0,0.0,0.0,0.0,0.0,0.0,0.0,1.7635,1.8049,0.0,0.0,0.0,1.785,1.8222,1.9147,1.9621,0.0,0.0,0.0,0.0,0.0,0.0,0.0,2.1569,2.1137,2.0713,2.0703,2.0538,1.9667,1.769,1.7793,1.7954,1.7676,0.0,1.6689,2.0127,2.2417,2.3347,2.2172,2.2819,2.3722,2.4478,2.5073,2.5937,2.7314,2.7934,2.7935,2.7358,2.7431,2.7605,2.7483,2.7556,2.7657,2.7643,2.7456,2.7254,2.7108,2.693,2.6699,2.1431,2.2729,2.016,1.941,1.9848,1.9757,1.9065,1.8097,1.9687,1.977,1.8857,1.9875,2.1082,2.2385,2.2741,0.0,2.4472,2.4493,2.4802,2.5391,2.5391,2.5391,2.5391,2.5415,2.5427,2.5406,2.3817,2.4028,2.5627,2.3348,2.3094,2.4839,2.2608,2.0387,1.8444,1.8576,1.7524,1.5179,1.5223,1.5228,1.5204,1.5204,1.5045,1.4701,1.4717,1.4581,1.4312,1.4321,1.4238,1.4117,1.411,1.392,1.3506,0.0,0.0,0.0,0.0,0.0,0.0,0.0,0.0,0.0,0.0,0.0,0.0,0.0,0.0,0.0,2.1351,0.0,2.2891,2.2242,0.0,0.0,0.0,2.1302,2.1581,2.1122,2.1435,2.3122,0.0,0.0,2.2323,2.2302,2.1818,2.0496,2.0305,2.0405,2.0802,1.8748,1.8285,2.1553,2.3937,2.4996,2.3864,2.4357,2.5396,2.6838,2.7101,2.6783,2.6897,2.7585,2.8141,2.8211,2.8225,2.8094,2.7791,2.7978,2.82,2.8173,2.7764,2.7544,2.7965,2.7707,2.7241,2.4963,2.53,2.4436,2.4036,2.3986,2.3928,2.3766,2.3506,2.3913,2.3942,2.3693,2.3975,2.4283,2.4625,2.471,2.4894,2.5179,2.5157,2.5245,2.5391,2.5391,2.5391,2.5403,2.5596,2.5692,2.5682,2.5493,2.5645,2.6056,2.5485,2.5482,2.6119,2.557,2.3506,2.0127,1.9834,1.8557,1.6158,1.5876,1.5563,1.5204,1.5204,1.5038,1.4724,1.4717,1.4581,1.4312,1.4321,1.4285,1.4245,1.4267,1.4165,1.394,1.4084,0.0,0.0,0.0,0.0,0.0,0.0,0.0,0.0,0.0,2.0759,2.1382,0.0,2.1682,0.0,2.1126,2.147,2.1175,2.2513,0.0,0.0,2.2988,2.2967,2.3326,2.3249,2.343,2.4109,2.4446,2.4512,2.4148,2.4072,2.4092,2.4032,2.2664,2.1768,2.2172,2.1506,2.1573,2.3665,2.5142,2.5886,2.5611,2.6037,2.6592,2.7031,2.6934,2.6807,2.6791,2.7585,2.8314,2.8697,2.8467,2.8199,2.807,2.816,2.8179,2.82,2.8093,2.8012,2.8156,2.8079,2.7939,2.6196,2.6184,2.6039,2.5895,2.575,2.5499,2.4942,2.4267,2.5049,2.4942,2.4212,2.5028,2.5391,2.5391,2.5391,2.5391,2.5391,2.5391,2.5451,2.5593,2.5572,2.5632,2.574,2.5919,2.5979,2.5991,2.6256,2.6389,2.6389,2.6475,2.663,2.6765,2.6787,2.5454,2.2875,2.1761,1.9895,1.7281,1.6356,1.568,1.5228,1.5204,1.5138,1.5004,1.5013,1.4988,1.4903,1.494,1.4918,1.4918,1.4918,1.4862,1.4749,1.5151,1.5599,0.0,0.0,0.0,0.0,0.0,0.0,0.0,0.0,0.0,0.0,0.0,2.3319,2.2304,2.2676,2.2906,2.2702,2.3684,2.4341,2.4419,2.4222,2.426,2.4579,2.4625,2.4639,2.4716,2.5121,2.5272,2.4894,2.4956,2.5113,2.5348,2.4341,2.37,2.4057,2.3986,2.4296,2.5266,2.606,2.6538,2.6516,2.6758,2.7109,2.7504,2.7688,2.7772,2.7821,2.8435,2.9056,2.9293,2.8748,2.8193,2.8199,2.8195,2.8213,2.8213,2.8213,2.8213,2.8213,2.8197,2.8194,2.6484,2.6381,2.6357,2.631,2.6208,2.5726,2.4595,2.327,2.4822,2.4595,2.3151,2.4789,2.5521,2.5521,2.5499,2.5499,2.5487,2.5499,2.562,2.5846,2.5858,2.5979,2.6218,2.6232,2.6244,2.6268,2.6534,2.6644,2.6644,2.6873,2.7004,2.7004,2.7004,2.655,2.5651,2.3881,2.149,1.8517,1.6845,1.5931,1.5767,1.565,1.5587,1.5633,1.5597,1.5649,1.5735,1.5712,1.5682,1.5682,1.5749,1.5681,1.5474,1.652,1.7182,0.0,1.9097,0.0,0.0,0.0,0.0,0.0,0.0,0.0,0.0,2.4686,2.4915,2.4778,2.4797,2.5016,2.5484,2.5136,2.5142,2.574,2.5462,2.5307,2.5483,2.5431,2.5313,2.5077,2.5201,2.5216,2.5093,2.5258,2.5391,2.5394,2.5313,2.537,2.5846,2.5885,2.5918,2.6234,2.6749,2.7056,2.7051,2.7146,2.7555,2.8289,2.8745,2.9104,2.9069,2.9502,2.9875,2.9792,2.912,2.8461,2.8305,2.8289,2.8305,2.8339,2.8353,2.8312,2.8205,2.82,2.8213,2.7993,2.7408,2.7164,2.6878,2.6487,2.6184,2.5854,2.5558,2.5898,2.5854,2.5558,2.5898,2.6029,2.6051,2.6051,2.6051,2.6051,2.6051,2.6075,2.6124,2.6124,2.6148,2.6208,2.6415,2.6512,2.6558,2.6789,2.6932,2.6932,2.698,2.7004,2.7004,2.7004,2.6732,2.6163,0.0,0.0,0.0,1.7725,1.7258,1.8672,1.8028,1.7382,1.688,1.6712,0.0,1.5973,1.5794,1.5682,1.5704,1.6079,0.0,0.0,0.0,0.0,0.0,0.0,0.0,0.0,0.0,0.0,0.0,2.488,2.4871,2.5053,2.5161,2.5227,2.5194,2.5371,2.5703,2.6154,2.5986,2.603,2.6504,2.6495,2.633,2.6006,2.563,2.5376,2.5337,2.5004,2.4914,2.5285,2.5367,2.5424,2.5482,2.538,2.5771,2.6638,2.608,2.5906,2.6697,2.7296,2.7556,2.7533,2.8194,2.8626,2.9093,2.9441,2.9651,2.9704,2.9789,2.9909,2.991,2.9732,2.9321,2.8774,2.8733,2.881,2.8836,2.8836,2.8724,2.8286,2.8213,2.8213,2.8871,2.8467,2.8364,2.8142,0.0,2.7392,2.7192,2.7145,2.6476,2.6196,2.6196,2.6196,2.6196,2.6196,2.6196,2.6196,2.6196,2.6196,2.6268,2.6401,2.6379,2.6473,2.6606,2.6739,2.6789,2.6811,2.6944,2.7004,2.7004,2.7004,2.7004,2.7004,2.7004,2.6891,2.6618,2.5582,2.3947,2.17,1.918,1.8824,2.057,1.9129,1.8232,1.8099,1.7851,0.0,0.0,0.0,0.0,0.0,0.0,0.0,0.0,1.9661,0.0,2.1247,2.3086,2.4409,2.4865,2.542,2.5872,2.6169,2.6253,2.619,2.5956,2.5877,2.5995,2.6342,2.6428,2.655,2.6774,2.6832,2.6931,2.716,2.7009,2.6793,2.6521,2.5869,2.5471,2.5572,2.5464,2.5562,2.5961,2.6127,2.6296,2.6438,2.5856,2.585,2.6773,2.6136,2.5934,2.7464,2.791,2.8091,2.8123,2.8439,2.8957,2.9137,2.9214,2.9416,2.9824,2.9913,2.9918,2.9918,2.9908,2.9724,2.94,2.913,2.9001,2.9001,2.9001,2.8943,2.8631,2.8393,2.8198,2.9561,2.944,2.944,2.9324,2.9126,2.8517,2.8269,2.8173,2.689,0.0,0.0,2.6341,2.6341,2.6341,2.6341,2.6341,2.6341,2.6341,2.6473,2.6656,2.6668,2.6822,2.7118,2.714,2.7163,2.7254,2.7163,2.7118,2.7118,2.705,2.7004,2.7004,2.7004,2.704,2.6975,2.5811,2.4742,2.3848,2.124,2.0777,2.2547,2.0629,1.9635,1.9831,1.9254,1.9017,1.9107,1.758,1.7446,1.8964,1.9328,1.9569,1.9831,2.1964,2.3402,2.3796,2.4915,2.565,2.5903,2.649,2.7011,2.7348,2.7529,2.7396,2.6869,2.6723,2.6938,2.7604,2.7496,2.7452,2.7517,2.7644,2.7775,2.7819,2.7548,2.735,2.7206,2.6397,2.5945,2.6115,2.644,2.6632,2.6692,2.6785,2.7022,2.7181,2.6489,2.6092,2.6882,2.6493,2.6622,2.8346,2.8703,2.861,2.8632,2.8767,2.8903,2.9294,2.9066,2.9053,2.9676,2.9913,2.9913,2.9922,2.9904,2.9899,2.9845,2.9516,2.9183,2.9148,2.917,2.9148,2.9126,2.8802,2.8574,3.0544,2.9983,2.9996,2.9487,2.8686,2.8602,2.8543,2.8447,2.7365,2.6896,2.6896,2.6896,2.6896,2.6896,2.6873,2.6873,2.6873,2.6873,2.692,2.6956,2.6921,2.7172,2.7581,2.7604,2.7852,2.8226,2.783,2.7604,2.7558,2.7208,2.7004,2.7039,2.7004,2.7125,2.7353,2.7573,2.7607,2.7405,2.438,2.3776,2.568,2.4599,2.3673,2.2982,2.122,1.9945,1.9391,1.8938,1.8983,1.9679,2.1465,2.2321,2.205,2.4056,2.5059,2.4705,2.6559,2.7651,2.7429,2.7751,2.7888,2.7682,2.7928,2.8005,2.7751,2.7697,2.7861,2.8221,2.8221,2.8378,2.8674,2.8452,2.8417,2.8731,2.874,2.8587,2.8208,2.7618,2.7272,2.7375,2.7879,2.7836,2.7274,2.6937,2.6747,2.6573,2.71,2.7346,2.7275,2.7263,2.8018,2.9228,2.936,2.9128,2.9115,2.9442,2.9622,2.9779,2.9712,2.9644,2.9846,2.9918,2.9918,2.9891,2.9905,2.9914,2.9914,2.9856,2.9717,2.9704,2.9704,2.9704,2.9704,2.9624,2.9601,3.1265,3.0981,3.0958,3.07,3.0253,2.9817,2.922,2.8581,2.8079,2.7928,2.7975,2.745,2.7274,2.7367,2.7118,2.714,2.7377,2.7377,2.7536,2.7797,2.782,2.7774,2.7739,2.7988,2.8136,2.8078,2.8123,2.8234,2.8314,2.8145,2.8118,2.8231,2.8231,2.8317,2.8441,2.8822,2.901,2.8942,2.6186,2.5652,2.7498,2.5912,2.4855,2.4548,2.3681,2.3109,2.2765,2.1761,2.1778,2.2952,2.3739,2.4152,2.4183,2.6065,2.7059,2.6871,2.7802,2.8278,2.8005,2.8238,2.8404,2.8409,2.8551,2.8686,2.8775,2.8599,2.8451,2.8409,2.8544,2.8591,2.8538,2.8713,2.8915,2.9101,2.9101,2.9012,2.8835,2.8399,2.8095,2.8153,2.8498,2.8627,2.8318,2.7854,2.7777,2.8055,2.856,2.8668,2.8538,2.8628,2.8939,2.9709,2.9693,2.9599,2.9599,2.9734,2.9891,2.9913,2.9899,2.9912,2.9913,2.9908,2.9903,2.9895,2.9913,2.9913,2.9927,2.9913,2.9913,2.9913,2.9913,2.9913,2.99,2.9918,2.9894,3.1754,3.1724,3.1724,3.164,3.146,3.0752,2.9883,2.9143,2.899,2.9107,2.9223,2.8003,2.7547,2.7675,2.7284,2.733,2.7662,2.772,2.8016,2.8484,2.8506,2.8403,2.8312,2.8675,2.8698,2.8448,2.8721,2.8949,2.9141,2.9052,2.9108,2.9276,2.9301,2.9327,2.9403,2.9723,2.984,2.9679,2.7914,2.758,2.8812,2.715,2.626,2.6288,2.5989,2.5831,2.5717,2.4466,2.4425,2.5811,2.5987,2.6153,2.6511,2.7715,2.8525,2.866,2.8689,2.8631,2.8526,2.8625,2.881,2.9068,2.9117,2.9237,2.9513,2.9366,2.9079,2.882,2.896,2.8913,2.8717,2.9016,2.9362,2.9339,2.9362,2.938,2.9317,2.9038,2.8812,2.8845,2.9162,2.944,2.9292,2.8923,2.8746,2.9062,2.9501,2.9772,3.0138,3.0001,2.9873,3.0174,3.0172,3.0073,3.0091,3.0127,3.014,3.0114,3.0093,3.011,3.0098,3.0051,2.9905,2.9918,3.0073,3.0145,3.0127,3.0118,3.0114,3.0087,3.0069,3.0209,3.0866,3.0277,2.9968,3.1917,3.1714,3.1714,3.1416,3.0951,3.0412,3.035,3.0551,3.017,3.0348,3.0599,2.8464,2.7592,2.7725,2.7555,2.759,2.7842,2.7797,2.8122,2.8622,2.8588,2.9052,2.9764,2.9905,3.0149,3.0343,3.0077,2.9915,2.9944,2.9554,2.9312,2.9301,2.9301,2.9464,2.9728,3.0191,3.0297,3.0077,3.0317,3.0269,2.9961,2.9768,2.9535,2.9297,2.7582,2.6567,2.6478,2.6175,2.6259,2.6686,2.803,2.8901,2.9057,2.88,2.8721,2.8948,2.8961,2.9077,2.9334,2.9117,2.9117,2.9428,2.9446,2.9575,2.9833,2.9833,2.9811,2.9717,2.9757,2.9712,2.9739,2.9788,2.9801,2.9779,2.9792,2.9824,2.9792,2.9779,2.9779,2.9756,3.0199,3.0438,2.9944,2.9668,2.9158,2.8458,2.929,3.0221,3.1068,3.0835,3.0677,3.1118,3.0949,3.0583,3.0616,3.0702,3.0635,3.0639,3.0564,3.0514,3.051,3.0277,2.9932,3.0303,3.0425,3.0704,3.0717,3.0702,3.0604,3.0414,3.0528,3.0989,3.2363,3.2023,3.0935,3.234,3.2219,3.2021,3.1728,3.1344,3.1141,3.0975,3.0869,3.0665,3.0564,3.0421,2.9262,2.891,2.9126,2.8724,2.876,2.9126,2.9162,2.9417,2.987,2.9917,2.9973,3.0112,3.0389,3.0505,3.0412,3.0459,3.0597,3.0723,3.0731,3.0716,3.0716,3.0692,3.0781,3.0886,3.1088,3.1141,3.1057,3.126,3.126,3.1022,3.0414,3.0053,2.9928,2.9451,2.9187,2.9111,2.9184,2.9267,2.9362,2.9857,3.0096,3.0043,2.9802,2.9642,2.9557,2.953,2.9584,2.9726,2.9597,2.9584,2.974,2.9717,2.9793,2.99,2.9913,2.9913,2.9913,2.9913,2.9913,2.9927,2.9913,2.9913,2.994,3.0074,3.0203,3.0181,3.0015,3.003,3.0375,3.0635,3.0731,3.048,3.0391,2.9962,2.9306,2.9926,3.0859,3.1545,3.141,3.1387,3.1578,3.1387,3.1106,3.0902,3.0795,3.0795,3.0822,3.0836,3.0893,3.0793,3.1015,3.0972,3.0941,3.113,3.1282,3.1306,3.098,3.0725,3.0826,3.1735,3.2546,3.3029,3.4947,3.5425,3.2661,3.2567,3.2329,3.2075,3.1821,3.1808,3.1553,3.1154,3.113,3.0903,3.0544,3.0327,3.0355,3.0407,2.9757,2.9687,3.0054,3.0078,3.0347,3.078,3.0826,3.071,3.058,3.0896,3.0873,3.0627,3.0909,3.1156,3.1356,3.158,3.1724,3.1724,3.1724,3.1724,3.1724,3.1724,3.1724,3.1701,3.1724,3.1724,3.1592,3.0951,3.0533,3.0581,3.0903,3.1117,3.1117,3.1274,3.1303,3.1199,3.0999,3.0805,3.0524,3.052,3.0404,3.0181,3.0154,3.0154,3.0131,3.0131,3.0154,3.0154,3.0131,3.0154,3.0167,3.0154,3.0131,3.0181,3.0131,3.0154,3.0047,3.0114,3.0154,3.0167,3.039,3.052,3.0511,3.029,3.0323,3.0745,3.0968,3.1041,3.1038,3.1036,3.0853,3.0581,3.0913,3.1403,3.1631,3.1685,3.1698,3.1724,3.1687,3.1527,3.1116,3.1099,3.1059,3.1062,3.1189,3.1216,3.1062,3.1487,3.1675,3.1376,3.1609,3.1758,3.178,3.1392,3.1964,3.2314,3.3189,3.4309,3.4828,3.7667,3.8345,3.2824,3.2607,3.2581,3.2407,3.2091,3.2091,3.1917,3.1632,3.1643,3.1629,3.1558,3.1555,3.1589,3.1475,3.0292,2.9882,3.0099,3.0158,3.0479,3.092,3.0933,3.1173,3.16,3.1647,3.1634,3.1509,3.1543,3.1607,3.166,3.1687,3.1724,3.1724,3.1724,3.1724,3.1724,3.1724,3.1724,3.1724,3.1724,3.1724,3.1701,3.164,3.1545,3.1545,3.164,3.1629,3.164,3.165,3.1517,3.1203,3.1199,3.1076,3.0808,3.0768,3.0742,3.0728,3.0728,3.0728,3.0715,3.0702,3.0702,3.0728,3.0688,3.0728,3.0662,3.0662,3.0662,3.0728,3.0702,3.0621,3.0457,3.0541,3.0675,3.0688,3.0765,3.0791,3.0791,3.0776,3.0749,3.0922,3.1295,3.152,3.1628,3.1647,3.158,3.1517,3.1634,3.1671,3.1681,3.1698,3.1711,3.1724,3.1724,3.1674,3.1647,3.1513,3.1554,3.1554,3.15,3.162,3.1684,3.1721,3.1718,3.1728,3.1709,3.1813,3.207,3.2883,3.4118,3.4781,3.5256,3.6053,3.6519,3.6096,3.7112,3.3118,3.285,3.285,3.2677,3.2423,3.2409,3.2235,3.1957,3.1968,3.1861,3.1714,3.1724,3.1724,3.1664,3.1202,3.1036,3.1104,3.1141,3.1236,3.1416,3.1402,3.1534,3.1677,3.1724,3.1724,3.1724,3.1724,3.1724,3.1724,3.1724,3.1724,3.1724,3.1724,3.1724,3.1724,3.1724,3.1724,3.1724,3.1724,3.1724,3.1724,3.1724,3.1724,3.1724,3.1724,3.1724,3.1724,3.1724,3.1647,3.154,3.1517,3.137,3.1079,3.0889,3.0795,3.0795,3.0795,3.0795,3.0795,3.0795,3.0795,3.0795,3.0795,3.0808,3.0795,3.0795,3.0795,3.0822,3.0982,3.0972,3.0929,3.0862,3.0795,3.0808,3.0955,3.1076,3.1079,3.1223,3.138,3.1417,3.1581,3.1688,3.1708,3.1724,3.1724,3.1724,3.1724,3.1724,3.1724,3.1724,3.1724,3.1724,3.1724,3.1724,3.1724,3.1687,3.1687,3.1687,3.1687,3.1674,3.1711,3.1711,3.1708,3.1833,3.1826,3.2624,3.3149,3.3935,3.5304,3.5589,3.6199,3.7948,3.8156,3.8015,3.9098,3.3293,3.3158,3.3145,3.2984,3.2717,3.2741,3.2543,3.2276,3.2144,3.1984,3.1848,3.1741,3.1724,3.1724,3.1724,3.1724,3.1724,3.1701,3.1701,3.1724,3.1724,3.1724,3.1724,3.1724,3.1724,3.1724,3.1724,3.1724,3.1724,3.1724,3.1724,3.1724,3.1724,3.1724,3.1724,3.1724,3.1724,3.1724,3.1724,3.1724,3.1724,3.1724,3.1724,3.1724,3.1724,3.1724,3.1724,3.1724,3.1724,3.1724,3.1724,3.1594,3.1346,3.1183,3.1099,3.1099,3.1099,3.1099,3.1099,3.1076,3.1099,3.1099,3.1112,3.1099,3.1099,3.1099,3.1076,3.1129,3.1236,3.137,3.133,3.1196,3.1099,3.1112,3.1249,3.137,3.137,3.1567,3.166,3.1684,3.1684,3.1711,3.1724,3.1724,3.1724,3.1724,3.1724,3.1724,3.1724,3.1724,3.1802,3.1916,3.1802,3.1805,3.1794,3.1808,3.1727,3.1714,3.1701,3.1724,3.1711,3.1711,3.1766,3.1904,3.2734,3.3648,3.4464,3.518,3.5705,3.6112,3.8036,4.0214,4.0267,4.0197,4.0704,3.3389,3.3362,3.3375,3.3227,3.3024,3.3011,3.285,3.2581,3.2265,3.2158,3.2078,3.1848,3.1764,3.1714,3.1714,3.1724,3.1741,3.1714,3.1724,3.1724,3.1724,3.1724,3.1724,3.1724,3.1724,3.1724,3.1724,3.1724,3.1724,3.1724,3.1724,3.1724,3.1724,3.1724,3.1724,3.1724,3.1724,3.1724,3.1724,3.1724,3.1724,3.1724,3.1724,3.1724,3.1724,3.1724,3.1724,3.1724,3.1724,3.1724,3.1724,3.1724,3.166,3.1644,3.166,3.162,3.166,3.1684,3.166,3.1634,3.1594,3.1594,3.1647,3.1607,3.158,3.1607,3.1607,3.1594,3.166,3.1701,3.1701,3.1701,3.1684,3.1674,3.1634,3.1634,3.1664,3.1714,3.1714,3.1767,3.1818,3.1751,3.1738,3.1754,3.1767,3.173,3.1714,3.1724,3.1724,3.1724,3.1953,3.2295,3.2292,3.2177,3.2047,3.1915,3.1821,3.1741,3.1714,3.1724,3.1708,3.1695,3.1702,3.2122,3.627,3.7289,3.6745,3.7531,3.8751,3.9515,4.1318,4.1749,4.1473,4.114,4.1066,3.3389,3.3389,3.3389,3.3335,3.328,3.328,3.3106,3.2864,3.2732,3.2623,3.2409,3.2128,3.1971,3.1941,3.1794,3.1808,3.1944,3.1808,3.1724,3.1714,3.1701,3.1701,3.1701,3.1701,3.1724,3.1724,3.1724,3.1724,3.1724,3.1724,3.1724,3.1724,3.1724,3.1724,3.1724,3.1724,3.1724,3.1724,3.1724,3.1724,3.1724,3.1724,3.1724,3.1724,3.1724,3.1724,3.1724,3.1724,3.1724,3.1724,3.1724,3.1724,3.1724,3.1724,3.1724,3.1724,3.1724,3.1724,3.1724,3.1724,3.1724,3.1724,3.1724,3.1724,3.1724,3.1724,3.1701,3.1727,3.1861,3.1971,3.1998,3.2182,3.2139,3.1741,3.1724,3.1723,3.1787,3.1984,3.2179,3.2302,3.2326,3.2326,3.2273,3.2155,3.191,3.1787,3.1739,3.1741,3.1714,3.1707,3.194,3.2424,3.248,3.2588,3.2431,3.2262,3.2155,3.1947,3.1806,3.1723,3.1717,3.1773,3.1766,3.4257,3.8359,4.0052,3.953,3.9762,4.082,4.1148,4.1495,4.1699,4.182,4.1802,4.1735,3.3389,3.3389,3.3389,3.3389,3.3389,3.3389,3.3307,3.3158,3.3038,3.2915,3.2714,3.2423,3.2289,3.2249,3.2088,3.2152,3.2262,3.2088,3.2045,3.1992,3.1754,3.1741,3.1808,3.1727,3.1724,3.1724,3.1724,3.1724,3.1724,3.1724,3.1724,3.1724,3.1724,3.1724,3.1724,3.1724,3.1724,3.1724,3.1724,3.1724,3.1724,3.1724,3.1724,3.1724,3.1724,3.1724,3.1724,3.1724,3.1724,3.1724,3.1724,3.1724,3.1724,3.1724,3.1724,3.1724,3.1724,3.1724,3.1724,3.1724,3.1724,3.1724,3.1724,3.1724,3.1724,3.1724,3.1714,3.1851,3.2008,3.2144,3.2289,3.2436,3.2407,3.2099,3.2048,3.2016,3.2106,3.2449,3.2727,3.2838,3.2727,3.2618,3.2541,3.2474,3.2241,3.2066,3.2032,3.1875,3.1803,3.1707,3.212,3.2557,3.2905,3.2919,3.2774,3.2648,3.2527,3.2219,3.1925,3.1792,3.171,3.1853,3.1995,3.696,4.1349,4.1814,4.1481,4.1421,4.1982,4.1879,4.1836,4.2123,4.2411,4.2466,4.2404,3.3389,3.3389,3.3389,3.3389,3.3389,3.3389,3.34,3.336,3.3133,3.3038,3.2971,3.2717,3.2621,3.2632,3.2527,3.2541,3.2607,3.2541,3.2567,3.246,3.2128,3.1941,3.2078,3.1941,3.1885,3.1821,3.1831,3.1794,3.1848,3.1794,3.1727,3.1754,3.1727,3.1724,3.1724,3.1724,3.1724,3.1724,3.1724,3.1724,3.1724,3.1724,3.1724,3.1724,3.1724,3.1738,3.1767,3.1831,3.1767,3.1714,3.1724,3.1724,3.1724,3.1724,3.1724,3.1701,3.1701,3.1714,3.1714,3.1754,3.1754,3.1767,3.1727,3.1751,3.1831,3.1821,3.1888,3.2091,3.2209,3.2305,3.2567,3.2701,3.2748,3.2867,3.2765,3.2556,3.2607,3.3019,3.3249,3.3247,3.2957,3.2661,3.2714,3.2674,3.2621,3.257,3.253,3.2277,3.2032,3.2032,3.2292,3.3269,3.4743,3.4932,3.5343,3.5286,3.5157,3.4674,3.3578,3.2213,3.3072,3.3596,3.4866,3.974,4.2486,4.3013,4.3213,4.2836,4.2705,4.2698,4.2765,4.2927,4.2964,4.2963,4.2919,3.3389,3.3389,3.3389,3.3389,3.3389,3.3389,3.3389,3.3375,3.3334,3.328,3.3227,3.3024,3.2891,3.2888,3.2701,3.2701,3.2835,3.2701,3.2837,3.304,3.261,3.2407,3.2436,3.2407,3.234,3.234,3.2313,3.2367,3.2353,3.2102,3.1984,3.1984,3.1821,3.1727,3.1724,3.1727,3.1724,3.1724,3.1701,3.1714,3.1751,3.1751,3.1724,3.1724,3.1714,3.1821,3.2008,3.2246,3.2139,3.1727,3.1724,3.1724,3.1714,3.1714,3.1727,3.1741,3.1888,3.1891,3.1794,3.1901,3.1984,3.1971,3.1861,3.1888,3.2326,3.2128,3.2182,3.2423,3.2623,3.2784,3.2904,3.3139,3.3803,3.4949,3.4093,3.3011,3.2754,3.3053,3.3374,3.3374,3.3422,3.3332,3.3316,3.3195,3.3087,3.3047,3.2964,3.2667,3.2508,3.2499,3.2853,3.6549,3.8276,3.8178,3.8129,3.8099,3.7885,3.7472,3.5709,3.2902,3.4912,3.7318,3.957,4.3108,4.3004,4.3343,4.3432,4.3266,4.3312,4.3265,4.3283,4.3265,4.3298,4.3327,4.3286,3.3389,3.3389,3.3389,3.3389,3.3389,3.3389,3.3389,3.3389,3.3389,3.3389,3.3374,3.324,3.316,3.3133,3.3011,3.3024,3.3145,3.3011,3.3106,3.3293,3.3053,3.281,3.2661,3.2594,3.2594,3.2594,3.2594,3.2581,3.2554,3.2382,3.2316,3.2289,3.2166,3.2086,3.2112,3.2062,3.2086,3.2099,3.2086,3.2086,3.2086,3.2086,3.2086,3.2086,3.2062,3.2155,3.2329,3.25,3.242,3.2152,3.2086,3.2032,3.1888,3.1874,3.1874,3.1864,3.2024,3.2064,3.2115,3.2222,3.2302,3.2289,3.2128,3.2273,3.2487,3.2396,3.2436,3.2717,3.2917,3.3051,3.3334,3.4029,3.5167,3.609,3.5985,3.4893,3.3269,3.3213,3.4302,3.517,3.5291,3.4684,3.4684,3.4518,3.4473,3.4506,3.4594,3.3903,3.3236,3.3328,3.458,3.8413,4.1098,4.1163,3.9988,3.9513,3.9356,3.9093,3.8371,3.5305,3.7234,4.0338,4.1719,4.3386,4.3447,4.3481,4.3481,4.3481,4.3444,4.3408,4.3481,4.3481,4.3481,4.3481,4.3481,3.3389,3.3389,3.3389,3.3389,3.3389,3.3389,3.3389,3.3389,3.3389,3.3389,3.3375,3.3375,3.3335,3.3389,3.332,3.3362,3.34,3.3309,3.3335,3.3375,3.3307,3.3145,3.2822,3.2795,3.2757,3.2743,3.2677,3.2728,3.2755,3.2688,3.2634,3.2607,3.2581,3.2567,3.2487,3.2527,3.2581,3.2527,3.2487,3.2487,3.2487,3.2487,3.2474,3.2511,3.2567,3.257,3.2648,3.2701,3.2701,3.2688,3.2634,3.2433,3.2171,3.2169,3.2144,3.2171,3.2249,3.2382,3.2527,3.2567,3.2634,3.2621,3.2594,3.2648,3.2701,3.2701,3.273,3.3024,3.3038,3.3359,3.4204,3.5614,3.7071,3.7891,3.9049,3.7983,3.5681,3.4162,3.5269,3.8796,3.7694,3.6706,3.6504,3.6504,3.643,3.5741,3.5928,3.5838,3.5518,3.5841,3.7639,4.0643,4.2659,4.4035,4.2397,4.0722,4.0518,4.0311,4.0253,3.9152,4.0486,4.2502,4.2942,4.3498,4.3473,4.3481,4.3481,4.3481,4.3481,4.3481,4.3481,4.3481,4.3481,4.3481,4.3481,3.3389,3.3389,3.3389,3.3389,3.3389,3.3389,3.3389,3.3389,3.3389,3.3389,3.3389,3.3389,3.3389,3.3389,3.3389,3.3389,3.3389,3.3389,3.3389,3.3389,3.3389,3.336,3.32,3.3187,3.32,3.3187,3.3213,3.3213,3.316,3.2998,3.2904,3.2891,3.2755,3.2607,3.2634,3.2674,3.2594,3.2594,3.2607,3.2648,3.2648,3.2648,3.2648,3.2661,3.2797,3.2904,3.2957,3.3131,3.3213,3.312,3.2875,3.2621,3.2503,3.2476,3.2476,3.2516,3.2677,3.273,3.2674,3.2797,3.2917,3.2891,3.2795,3.2781,3.3187,3.3011,3.3064,3.3265,3.3345,3.3968,3.5525,3.767,3.9381,4.0691,4.1607,4.2381,4.2138,3.8693,3.7442,3.8451,3.8088,3.6578,3.6677,3.6972,3.6997,3.6966,3.7368,3.7732,3.8231,3.8676,4.0538,4.3063,4.3858,4.5036,4.4378,4.2795,4.2354,4.1918,4.1676,4.1551,4.2924,4.3474,4.3471,4.3487,4.3477,4.3481,4.3481,4.3481,4.3481,4.3481,4.3481,4.3481,4.3481,4.3481,4.3481,3.3389,3.3389,3.3389,3.3389,3.3389,3.3389,3.3389,3.3389,3.3389,3.3389,3.3389,3.3389,3.3389,3.3389,3.3389,3.3389,3.3389,3.3389,3.3389,3.3389,3.3389,3.3389,3.3389,3.3389,3.3389,3.3389,3.3375,3.3389,3.336,3.3267,3.3173,3.3173,3.3013,3.3024,3.2971,3.2957,3.2998,3.2998,3.2971,3.2971,3.2971,3.2971,3.2971,3.2984,3.3118,3.3198,3.32,3.3307,3.3362,3.3334,3.3145,3.2904,3.2797,3.277,3.2795,3.2835,3.2891,3.3038,3.3011,3.308,3.3187,3.3173,3.3051,3.3133,3.332,3.3253,3.3851,3.4308,3.425,3.425,3.6381,3.9575,4.1583,4.2584,4.3699,4.4709,4.4767,4.1218,3.8325,3.9493,3.9681,3.9608,3.9462,3.8894,3.9291,4.0018,4.0132,4.061,4.2352,4.2813,4.3289,4.481,4.5299,4.5747,4.5686,4.5038,4.4436,4.3828,4.3201,4.2951,4.3314,4.3498,4.3495,4.3481,4.3481,4.3481,4.3481,4.3481,4.3481,4.3481,4.3481,4.3481,4.3481,4.3481,4.3481,3.3389,3.3389,3.3389,3.3389,3.3389,3.3389,3.3389,3.3389,3.3389,3.3389,3.3402,3.3429,3.3534,3.3482,3.3574,3.3561,3.3549,3.3562,3.3629,3.3616,3.3654,3.3629,3.3616,3.3616,3.3616,3.3547,3.3429,3.3402,3.3389,3.3375,3.3322,3.3387,3.3387,3.332,3.3374,3.3375,3.3309,3.3295,3.3307,3.332,3.3334,3.3347,3.3334,3.3334,3.3347,3.336,3.3335,3.3375,3.3389,3.3389,3.3389,3.328,3.312,3.304,3.3078,3.3064,3.308,3.3146,3.328,3.3335,3.3362,3.3389,3.3362,3.3662,3.3862,3.4272,3.5178,3.5847,3.6059,3.5787,3.7449,4.0352,4.2536,4.3556,4.4992,4.5741,4.5292,4.2675,4.1365,4.109,4.1437,4.1463,4.1799,4.1703,4.2402,4.2875,4.2912,4.3448,4.5041,4.5859,4.5623,4.5552,4.5797,4.5717,4.563,4.5375,4.4994,4.4664,4.4124,4.3808,4.3546,4.3495,4.3481,4.3481,4.3481,4.3481,4.3481,4.3481,4.3481,4.3481,4.3481,4.3481,4.3481,4.3481,4.3481,3.3389,3.3389,3.3389,3.3389,3.3389,3.3389,3.3389,3.3389,3.3402,3.3414,3.3454,3.3681,3.3801,3.3855,3.4056,3.4123,3.4056,3.4043,3.407,3.407,3.4095,3.407,3.4043,3.4029,3.407,3.3989,3.3722,3.3494,3.3442,3.3389,3.3495,3.3429,3.3442,3.3442,3.3455,3.3402,3.3482,3.3509,3.3495,3.3482,3.3482,3.3442,3.3429,3.3429,3.3415,3.3389,3.3389,3.3389,3.3389,3.3389,3.3389,3.3349,3.332,3.3307,3.3307,3.3269,3.3269,3.3309,3.3375,3.3389,3.3389,3.3389,3.3614,3.4535,3.5465,3.6059,3.6948,3.8209,3.8991,3.9478,4.1535,4.2536,4.3628,4.485,4.5506,4.5897,4.5716,4.5017,4.4216,4.4013,4.3555,4.3055,4.3342,4.3502,4.3602,4.3715,4.3656,4.4292,4.5619,4.602,4.5821,4.5821,4.5868,4.5671,4.5425,4.51,4.4774,4.4567,4.4146,4.3786,4.3575,4.3514,4.3499,4.3483,4.3491,4.3481,4.3481,4.3481,4.3481,4.3481,4.3481,4.3481,4.3481,4.3481,4.3481,3.3389,3.3389,3.3389,3.3389,3.3389,3.3389,3.3389,3.344,3.3574,3.3654,3.3748,3.3961,3.4083,3.4123,3.4216,3.4296,3.431,3.4296,3.4296,3.4296,3.4296,3.4296,3.431,3.431,3.4296,3.4216,3.4015,3.3868,3.3856,3.3869,3.3855,3.3869,3.3856,3.3856,3.3856,3.3883,3.3843,3.3843,3.3843,3.3843,3.3841,3.3748,3.3654,3.3627,3.3507,3.3389,3.3389,3.3389,3.3389,3.3389,3.3389,3.3389,3.3402,3.3402,3.3389,3.3402,3.3389,3.3389,3.3389,3.3439,3.3825,3.4933,3.5008,3.6035,3.7474,3.8283,3.8796,3.9818,4.2248,4.2775,4.2727,4.3699,4.485,4.5577,4.5883,4.5883,4.5883,4.5883,4.5912,4.5892,4.5166,4.4548,4.4596,4.4679,4.4608,4.4536,4.4447,4.5149,4.6148,4.6085,4.5883,4.5883,4.5883,4.5718,4.5462,4.5173,4.4884,4.4622,4.4328,4.3968,4.3759,4.3763,4.3605,4.3501,4.3499,4.3487,4.3481,4.3481,4.3481,4.3481,4.3481,4.3481,4.3481,4.3481,4.3481,3.3536,3.3507,3.3574,3.3576,3.3587,3.3587,3.3589,3.3616,3.3868,3.3975,3.4015,3.4243,3.4416,3.4403,3.4457,3.4523,3.447,3.4523,3.4523,3.4523,3.4537,3.4497,3.4509,3.447,3.4523,3.4603,3.4536,3.4429,3.423,3.4216,3.427,3.4216,3.427,3.4296,3.4243,3.419,3.4296,3.4296,3.4296,3.4296,3.4255,3.4108,3.3975,3.3961,3.3721,3.3602,3.3642,3.3656,3.3668,3.3642,3.3616,3.3614,3.3601,3.3576,3.3549,3.3482,3.3429,3.3389,3.3489,3.4125,3.4933,3.601,3.6849,3.8258,3.9891,4.0787,4.1222,4.1583,4.3366,4.5016,4.4145,4.4898,4.5671,4.586,4.5883,4.5883,4.5883,4.5883,4.5883,4.591,4.5883,4.5742,4.5459,4.5412,4.5254,4.5254,4.5147,4.5218,4.603,4.6012,4.5883,4.5883,4.5847,4.5755,4.5572,4.5388,4.5159,4.5008,4.4687,4.4334,4.4193,4.4092,4.4052,4.4128,4.3496,4.3503,4.3502,4.3499,4.3481,4.3481,4.3481,4.3481,4.3481,4.3481,4.3481,3.4068,3.388,3.4095,3.419,3.4163,3.415,3.4176,3.4163,3.4242,3.4243,3.4295,3.4563,3.4736,3.4776,3.495,3.5057,3.5057,3.5017,3.499,3.4977,3.499,3.499,3.5057,3.5097,3.4964,3.4963,3.5017,3.4776,3.451,3.439,3.435,3.4363,3.4403,3.4323,3.4417,3.443,3.4296,3.431,3.4323,3.4337,3.4323,3.4283,3.4256,3.423,3.4163,3.4122,3.407,3.407,3.4096,3.4123,3.415,3.4202,3.4215,3.419,3.4068,3.3841,3.3601,3.3414,3.3739,3.4834,3.6084,3.7095,3.8283,4.0231,4.2056,4.3699,4.4477,4.5181,4.5766,4.5719,4.5276,4.5648,4.5883,4.5883,4.5883,4.5883,4.5883,4.5883,4.5883,4.5883,4.5883,4.5883,4.5742,4.5813,4.5855,4.5902,4.5883,4.5883,4.5883,4.5883,4.5883,4.5883,4.5889,4.5755,4.5572,4.5388,4.5338,4.5261,4.4943,4.4696,4.4778,4.4815,4.5243,4.5131,4.4342,4.3582,4.3485,4.3483,4.3495,4.3481,4.3481,4.3481,4.3481,4.3481,4.3481,3.4549,3.4148,3.4243,3.4296,3.4296,3.4296,3.4296,3.4323,3.4496,3.4602,3.4629,3.4909,3.5004,3.5057,3.5151,3.5191,3.5204,3.5204,3.5204,3.5204,3.5204,3.5204,3.5177,3.5191,3.5204,3.5204,3.5191,3.5084,3.4843,3.479,3.4817,3.4764,3.4803,3.4843,3.4724,3.4803,3.483,3.483,3.483,3.4817,3.475,3.463,3.4537,3.4589,3.4416,3.4337,3.4323,3.4296,3.4296,3.4296,3.4296,3.4296,3.4668,3.5345,3.6046,3.5814,3.6855,3.6098,3.4177,3.5579,3.6997,3.8576,4.0255,4.232,4.4192,4.5229,4.5883,4.5836,4.586,4.5883,4.5883,4.5883,4.5883,4.5883,4.5883,4.5883,4.5883,4.5883,4.5883,4.5883,4.5883,4.5883,4.5883,4.5883,4.5883,4.5883,4.5883,4.5883,4.5883,4.5883,4.5883,4.5883,4.587,4.5797,4.5553,4.5352,4.5352,4.526,4.4996,4.4928,4.5388,4.5653,4.5844,4.5691,4.4916,4.4242,4.3727,4.3498,4.3477,4.3481,4.3481,4.3518,4.3518,4.3481,4.3481,3.4937,3.4549,3.4536,3.451,3.451,3.4536,3.4549,3.4576,3.4802,3.4896,3.495,3.5097,3.5191,3.5204,3.5191,3.5204,3.5204,3.5204,3.5204,3.5204,3.5204,3.5204,3.5204,3.5204,3.5204,3.5204,3.5204,3.5164,3.5177,3.5164,3.5137,3.5204,3.511,3.5137,3.5177,3.5151,3.5124,3.5124,3.5124,3.5137,3.5084,3.4937,3.4871,3.4803,3.4683,3.4536,3.451,3.4537,3.455,3.4576,3.4603,3.4629,3.4836,3.5676,3.6643,3.6864,3.8004,3.7839,3.6735,3.74,3.8772,4.0497,4.2272,4.4169,4.53,4.5883,4.5883,4.5883,4.5883,4.5883,4.5883,4.5883,4.5883,4.5883,4.5883,4.5883,4.5883,4.5883,4.5883,4.5883,4.5883,4.5883,4.5883,4.5883,4.5883,4.5883,4.5883,4.5883,4.5883,4.5883,4.5883,4.5883,4.5865,4.5852,4.5705,4.5498,4.5443,4.536,4.5096,4.515,4.5603,4.5784,4.5869,4.5593,4.528,4.4925,4.4394,4.3931,4.3499,4.3518,4.3554,4.3595,4.3595,4.3536,4.3477,3.5177,3.5137,3.5124,3.511,3.511,3.5137,3.5124,3.5057,3.5124,3.5137,3.5124,3.5191,3.5204,3.5204,3.5204,3.5204,3.5204,3.5204,3.5204,3.5204,3.5204,3.5204,3.5204,3.5204,3.5204,3.5204,3.5204,3.5204,3.5204,3.5204,3.5204,3.5204,3.5204,3.5204,3.5204,3.5204,3.5204,3.5204,3.5204,3.5204,3.5204,3.5151,3.5137,3.5137,3.5137,3.5137,3.5124,3.5057,3.503,3.5017,3.5004,3.5017,3.5108,3.627,3.7165,3.7888,3.9122,3.9436,3.9676,4.0424,4.192,4.3038,4.4151,4.537,4.5813,4.5883,4.5883,4.5883,4.5883,4.5883,4.5883,4.5883,4.5883,4.5883,4.5883,4.5883,4.5883,4.5883,4.5883,4.5883,4.5883,4.5883,4.5883,4.5883,4.5883,4.5883,4.5883,4.5883,4.5883,4.5883,4.5883,4.5883,4.5883,4.5883,4.5883,4.5773,4.5682,4.5663,4.5551,4.5583,4.581,4.5889,4.5894,4.5836,4.5588,4.5343,4.5035,4.4398,4.3925,4.3724,4.3664,4.3785,4.3662,4.3503,4.3493,3.5204,3.5204,3.5204,3.5204,3.5204,3.5204,3.5204,3.5204,3.5204,3.5204,3.5204,3.5204,3.5204,3.5204,3.5204,3.5204,3.5204,3.5204,3.5204,3.5204,3.5204,3.5204,3.5204,3.5204,3.5204,3.5204,3.5204,3.5204,3.5204,3.5204,3.5204,3.5204,3.5204,3.5204,3.5204,3.5204,3.5204,3.5204,3.5204,3.5204,3.5204,3.5204,3.5204,3.5204,3.5204,3.5204,3.5191,3.5191,3.5204,3.5204,3.5204,3.527,3.5862,3.7458,3.8725,3.9613,4.1145,4.2617,4.2706,4.3223,4.3277,4.4667,4.5441,4.5883,4.5883,4.5883,4.5883,4.5883,4.5883,4.5883,4.5883,4.5883,4.5883,4.5883,4.5883,4.5883,4.5883,4.5883,4.5883,4.5883,4.5883,4.5883,4.5883,4.5883,4.5883,4.5883,4.5883,4.5883,4.5883,4.5883,4.5883,4.5883,4.5883,4.5883,4.5883,4.5883,4.5883,4.5883,4.5883,4.5883,4.5883,4.5883,4.5912,4.5909,4.5887,4.5685,4.5289,4.4723,4.437,4.4182,4.411,4.4147,4.3892,4.3677,4.3603,3.5204,3.5204,3.5204,3.5204,3.5204,3.5204,3.5204,3.5204,3.5204,3.5204,3.5204,3.5204,3.5204,3.5204,3.5204,3.5204,3.5204,3.5204,3.5204,3.5204,3.5204,3.5204,3.5204,3.5204,3.5204,3.5204,3.5204,3.5204,3.5204,3.5204,3.5204,3.5204,3.5204,3.5204,3.5204,3.5204,3.5204,3.5204,3.5204,3.5204,3.5204,3.5204,3.5204,3.5204,3.5204,3.5204,3.5204,3.5204,3.5204,3.5204,3.527,3.5599,3.6961,3.8745,4.0672,4.2351,4.3967,4.5904,4.5529,4.4969,4.4382,4.5441,4.5742,4.5883,4.5902,4.5902,4.5883,4.5883,4.5883,4.5902,4.5902,4.5883,4.5883,4.5883,4.5883,4.5883,4.5883,4.5883,4.5883,4.5883,4.5883,4.5883,4.5883,4.5883,4.5883,4.5883,4.5883,4.5883,4.5883,4.5883,4.5883,4.5883,4.5883,4.5883,4.5883,4.5883,4.5883,4.5883,4.5883,4.5883,4.5883,4.5883,4.5883,4.5894,4.5919,4.5889,4.5658,4.5238,4.4934,4.4678,4.4586,4.4522,4.4846,4.4655,4.4019,3.5204,3.5204,3.5204,3.5204,3.5204,3.5204,3.5204,3.5204,3.5204,3.5204,3.5204,3.5204,3.5204,3.5204,3.5204,3.5204,3.5204,3.5204,3.5204,3.5204,3.5204,3.5204,3.5322,3.5401,3.5625,3.527,3.5559,3.573,3.5204,3.5204,3.5204,3.5756,3.6151,3.573,3.5322,3.5204,3.5204,3.527,3.5428,3.5559,3.5638,3.5691,3.5691,3.5204,3.5204,3.5204,3.5835,3.5862,3.6046,3.6478,3.6399,3.6909,3.8054,3.9007,4.0799,4.2946,4.3707,4.4821,4.5663,4.5732,4.5821,4.5904,4.603,4.603,4.5999,4.5999,4.6048,4.6195,4.6085,4.5993,4.5938,4.592,4.5957,4.5975,4.5993,4.6035,4.6054,4.5899,4.5894,4.5897,4.5883,4.5883,4.5883,4.5883,4.5883,4.5883,4.5883,4.5902,4.5902,4.5883,4.5883,4.5883,4.5883,4.5883,4.5883,4.5883,4.5883,4.5883,4.5883,4.5883,4.5883,4.5883,4.5907,4.5907,4.5899,4.5901,4.5886,4.5828,4.5485,4.5136,4.4953,4.4971,4.5425,4.538,4.4567,3.5204,3.5204,3.5204,3.5204,3.5204,3.5204,3.5204,3.5204,3.5204,3.5204,3.5204,3.5204,3.5204,3.5204,3.5204,3.5204,3.5204,3.5204,3.5204,3.5204,3.5204,3.5204,3.5533,3.6425,3.6569,3.6019,3.6268,3.6478,3.5204,3.5428,3.6373,3.7118,3.8069,3.7756,3.5993,3.5322,3.5704,3.7118,3.7444,3.7417,3.7391,3.7249,3.6635,3.5349,3.5204,3.5783,3.7014,3.7092,3.7652,3.873,3.8911,3.9093,3.9638,4.0307,4.202,4.3036,4.3465,4.5724,4.621,4.6263,4.6287,4.6311,4.6287,4.6397,4.6617,4.669,4.669,4.6654,4.658,4.6489,4.636,4.6329,4.6347,4.6329,4.6347,4.6347,4.63,4.6037,4.5911,4.5899,4.5883,4.5975,4.5993,4.6098,4.6093,4.6038,4.6014,4.5957,4.592,4.5902,4.5883,4.5883,4.5883,4.5883,4.5883,4.5883,4.5883,4.5883,4.5883,4.5883,4.5883,4.5883,4.5883,4.5907,4.5883,4.5883,4.5883,4.5883,4.5792,4.5572,4.5463,4.5445,4.5788,4.544,4.4552,3.5204,3.5204,3.5204,3.5204,3.5204,3.5204,3.5204,3.5204,3.5204,3.5204,3.5204,3.5204,3.5204,3.5204,3.5204,3.5204,3.5204,3.5204,3.5204,3.5204,3.5204,3.5756,3.674,3.7756,3.8158,3.7756,3.834,3.8548,3.6661,3.6399,3.7092,3.8548,4.06,3.9842,3.8277,3.8043,3.7809,3.8782,3.8756,3.9119,3.8678,3.808,3.7327,3.5835,3.5454,3.6137,3.7809,3.8859,3.9517,4.1114,4.1626,4.1533,4.1694,4.2407,4.3904,4.4158,4.4835,4.6697,4.6709,4.6714,4.6788,4.6929,4.6782,4.6837,4.7039,4.7002,4.702,4.7039,4.713,4.6984,4.6764,4.669,4.669,4.669,4.669,4.6714,4.6624,4.6354,4.6209,4.6163,4.625,4.625,4.625,4.6271,4.6357,4.626,4.6163,4.6111,4.6012,4.5928,4.591,4.5891,4.5897,4.5902,4.5902,4.5883,4.5883,4.5883,4.5883,4.5883,4.5883,4.5883,4.5883,4.5925,4.5949,4.5949,4.5925,4.5889,4.5951,4.6063,4.612,4.6135,4.6219,4.5746,4.5117,3.5204,3.5204,3.5204,3.5204,3.5204,3.5204,3.5204,3.5204,3.5204,3.5204,3.5204,3.5204,3.5204,3.5204,3.5204,3.5204,3.5204,3.5204,3.5204,3.5401,3.5665,3.6726,3.7939,3.9026,3.993,4.1037,4.1472,4.0729,3.8834,3.9248,3.9351,3.9754,4.2051,4.1981,4.1766,4.1632,4.1027,4.0816,4.1011,4.1037,4.042,3.9569,3.8314,3.6871,3.6072,3.7144,3.8418,3.9233,4.0497,4.1677,4.2367,4.3359,4.4077,4.4609,4.5946,4.6783,4.7058,4.7064,4.7112,4.7112,4.7314,4.7497,4.7351,4.7222,4.724,4.7369,4.7406,4.7387,4.7406,4.7277,4.7106,4.7106,4.7088,4.7112,4.7112,4.7088,4.6997,4.6864,4.6694,4.6694,4.6862,4.6892,4.6837,4.6826,4.6704,4.6559,4.6534,4.6718,4.6553,4.5982,4.5951,4.5912,4.5899,4.5915,4.5897,4.592,4.5883,4.5883,4.5883,4.5883,4.5883,4.5902,4.5883,4.5925,4.5996,4.6043,4.6119,4.6213,4.6288,4.6518,4.7429,4.6644,4.6698,4.6786,4.6719,3.5204,3.5204,3.5204,3.5204,3.5204,3.5204,3.5204,3.5204,3.5204,3.5204,3.5204,3.5204,3.5204,3.5204,3.5204,3.5204,3.5204,3.5204,3.5204,3.5612,3.6583,3.7678,3.9311,4.1175,4.2121,4.2596,4.2893,4.3043,4.1658,4.199,4.3072,4.3928,4.4929,4.5191,4.5233,4.5702,4.4498,4.3696,4.3814,4.3257,4.2911,4.2555,4.0574,3.8548,3.7574,3.8782,4.0214,4.0754,4.2469,4.5396,4.614,4.654,4.4758,4.5988,4.7308,4.7059,4.7143,4.7204,4.7461,4.7534,4.7681,4.7974,4.7962,4.7999,4.798,4.7864,4.7846,4.7815,4.7778,4.7699,4.7571,4.7534,4.7534,4.7534,4.7534,4.7491,4.7467,4.7516,4.7345,4.715,4.7314,4.7314,4.7295,4.7222,4.7076,4.6949,4.6961,4.7189,4.7066,4.6516,4.6351,4.6336,4.6108,4.6155,4.6025,4.5993,4.5938,4.5883,4.597,4.5965,4.591,4.5891,4.5902,4.609,4.6414,4.6466,4.6447,4.6733,4.7414,4.867,4.9433,4.8129,4.7293,4.8455,4.8495,3.5204,3.5204,3.5204,3.5204,3.5204,3.5204,3.5204,3.5204,3.5204,3.5204,3.5204,3.5204,3.5204,3.5204,3.5204,3.5204,3.5204,3.5204,3.5204,3.573,3.76,3.8885,4.0806,4.3096,4.4582,4.492,4.5301,4.5573,4.4293,4.447,4.5507,4.5712,4.777,4.7935,4.7704,4.787,4.7813,4.6955,4.6394,4.5842,4.5413,4.5044,4.2682,4.0626,3.9827,4.0985,4.2571,4.2851,4.4943,4.7722,4.8261,4.7821,4.6441,4.7394,4.7705,4.7516,4.7589,4.7742,4.7925,4.7962,4.809,4.8219,4.8311,4.8274,4.8255,4.8182,4.82,4.82,4.8219,4.8176,4.8047,4.7937,4.7962,4.7962,4.7962,4.7962,4.8054,4.8146,4.7968,4.7662,4.7626,4.7644,4.7607,4.7552,4.7571,4.7613,4.765,4.7754,4.7564,4.7064,4.7086,4.7215,4.6817,4.6492,4.6344,4.6269,4.6342,4.6349,4.6327,4.6291,4.6053,4.6072,4.6214,4.6582,4.6995,4.7327,4.7929,4.8343,4.9042,5.0484,5.1825,5.1417,5.1758,5.353,5.2885,3.5204,3.5204,3.5204,3.5204,3.5204,3.5204,3.5204,3.5204,3.5204,3.5204,3.5204,3.5204,3.5204,3.5204,3.5204,3.5204,3.5204,3.5204,3.5204,3.5454,3.8173,3.9905,4.1652,4.4144,4.632,4.8079,4.8537,4.7555,4.6799,4.674,4.6867,4.6647,4.8345,4.9093,4.9148,4.914,4.898,4.8712,4.809,4.7451,4.6095,4.5196,4.427,4.2443,4.2188,4.2825,4.4296,4.527,4.6015,4.7498,4.8286,4.8211,4.8168,4.8082,4.7986,4.7962,4.8017,4.8109,4.8182,4.82,4.8237,4.8292,4.8311,4.8311,4.8311,4.8311,4.8311,4.8311,4.8292,4.8292,4.8182,4.8145,4.8145,4.8145,4.8145,4.8145,4.8188,4.8281,4.8176,4.798,4.798,4.7999,4.7999,4.7962,4.7925,4.8145,4.8182,4.8213,4.8023,4.754,4.7637,4.789,4.7555,4.7094,4.682,4.68,4.691,4.6911,4.6797,4.6614,4.6417,4.6484,4.6592,4.7653,4.8872,4.9287,4.9792,5.0403,5.1372,5.2992,5.4125,5.4698,5.5858,5.7303,5.7049,3.5204,3.5204,3.5204,3.5204,3.5204,3.5204,3.5204,3.5204,3.5204,3.5204,3.5204,3.5204,3.5217,3.5231,3.5204,3.5204,3.5231,3.5217,3.5204,3.6689,3.8993,4.1069,4.2617,4.586,4.7989,4.8713,4.904,4.9155,4.8626,4.8568,4.8793,4.9035,4.9764,4.9691,4.9911,4.9746,4.9624,4.9643,4.9266,4.8775,4.7921,4.7304,4.6515,4.496,4.443,4.4456,4.5287,4.5245,4.6416,4.7821,4.8211,4.8311,4.8311,4.8311,4.8274,4.8176,4.8237,4.8292,4.8311,4.8311,4.8311,4.8311,4.8311,4.8311,4.8311,4.8311,4.8311,4.8311,4.8311,4.8311,4.8311,4.8311,4.8311,4.8311,4.8311,4.8311,4.8311,4.8311,4.8311,4.8311,4.8311,4.8311,4.8311,4.8311,4.8311,4.8292,4.8292,4.8299,4.828,4.7992,4.7968,4.8127,4.8163,4.7839,4.7466,4.7277,4.7369,4.7229,4.7058,4.6906,4.6891,4.7601,4.8434,4.991,5.1052,5.1582,5.2205,5.2824,5.3967,5.5531,5.6292,5.6809,5.7713,5.9059,5.9264,3.5458,3.5605,3.5618,3.5498,3.5404,3.5364,3.5391,3.5364,3.5257,3.5204,3.5204,3.5204,3.5257,3.5311,3.5271,3.5324,3.5351,3.5244,3.6209,3.7838,4.0096,4.2367,4.4818,4.7284,4.8629,4.9471,4.9819,5.0013,4.9991,5.0013,5.0101,5.0296,5.0094,5.0076,5.0314,5.0112,5.001,5.0065,4.9863,4.9643,4.9361,4.8811,4.8289,4.6988,4.6705,4.6627,4.6483,4.6465,4.7132,4.7988,4.8261,4.8311,4.8311,4.8311,4.8311,4.8292,4.8292,4.8311,4.8311,4.8311,4.8311,4.8311,4.8311,4.8311,4.8311,4.8311,4.8311,4.8311,4.8311,4.8311,4.8311,4.8311,4.8311,4.8311,4.8311,4.8311,4.8311,4.8311,4.8311,4.8311,4.8311,4.8311,4.8311,4.8311,4.8311,4.8311,4.8311,4.8342,4.8317,4.8348,4.8336,4.8429,4.8527,4.8361,4.7938,4.7791,4.7797,4.7613,4.743,4.8232,4.878,4.9479,5.041,5.1672,5.2954,5.4176,5.4777,5.5245,5.6452,5.7981,5.8492,5.8854,5.9726,6.0213,6.0042,3.5832,3.6086,3.6086,3.5925,3.5712,3.5658,3.5658,3.5645,3.5431,3.5297,3.5403,3.5667,3.5722,3.5431,3.5734,3.567,3.6029,3.7093,3.8058,3.9163,4.1729,4.3733,4.5918,4.8291,4.9406,5.0076,5.0406,5.0516,5.0534,5.0552,5.0534,5.0662,5.0699,5.068,5.0699,5.0662,5.057,5.0461,5.0332,5.0204,4.9984,4.9727,4.9186,4.8955,4.8946,4.8738,4.8481,4.8353,4.8377,4.8286,4.8311,4.8311,4.8311,4.8311,4.8311,4.8311,4.8311,4.8311,4.8311,4.8311,4.8311,4.8311,4.8311,4.8311,4.8311,4.8335,4.8335,4.8311,4.8311,4.8311,4.8311,4.8335,4.8335,4.8335,4.8335,4.8292,4.8292,4.8385,4.8477,4.8477,4.8434,4.8434,4.8335,4.8335,4.8434,4.841,4.8434,4.8391,4.8379,4.8441,4.8466,4.8725,4.8965,4.8737,4.8336,4.8336,4.8318,4.8232,4.8281,4.956,5.0523,5.0644,5.1435,5.3118,5.4429,5.5913,5.6887,5.7416,5.8836,5.9941,5.9708,5.9621,5.9811,6.0213,6.0213,3.6046,3.6099,3.6099,3.6073,3.6019,3.6019,3.5992,3.5979,3.5966,3.5778,3.619,3.7325,3.7323,3.5469,3.7265,3.7617,3.7241,3.8854,3.9428,4.002,4.3474,4.5254,4.6914,4.9002,5.0042,5.0461,5.0625,5.0662,5.0699,5.0699,5.0699,5.0699,5.0699,5.0699,5.0699,5.0699,5.068,5.0625,5.0625,5.0516,5.0358,5.0028,4.9551,4.9404,4.9386,4.9104,4.8884,4.8774,4.8598,4.8421,4.8311,4.8329,4.8347,4.8347,4.8311,4.8311,4.8311,4.8311,4.8311,4.8311,4.8311,4.8311,4.8311,4.8292,4.8317,4.8385,4.8342,4.8317,4.8317,4.836,4.836,4.8385,4.841,4.8416,4.8416,4.8348,4.8323,4.8725,4.9034,4.8941,4.8848,4.87,4.8434,4.8626,4.904,4.9114,4.9311,4.9224,4.8903,4.8774,4.8687,4.9119,4.9527,4.8947,4.849,4.8861,4.8885,4.8805,4.894,4.9877,5.0628,5.1168,5.2291,5.4414,5.6138,5.7635,5.8524,5.9059,5.9837,6.0576,6.0255,6.0132,6.0216,6.0213,6.0213]}]]